     2              OBSERVATION DATA    GPS                 RINEX VERSION / TYPE
teqc 2000Feb29 simon 20000628 03:39:38UTC                   PGM / RUN BY / DATE
                                                            COMMENT
L2: 1 -> 1; 150 -> 5; 250 -> 9                              COMMENT
L2: 1 -> 1; 150 -> 5; 250 -> 9                              COMMENT
L2: 1 -> 1; 150 -> 5; 250 -> 9                              COMMENT
L2: 1 -> 1; 150 -> 5; 250 -> 9                              COMMENT
L2: 1 -> 1; 150 -> 5; 250 -> 9                              COMMENT
Original Marker Name: GS43                                  COMMENT
Campaign Name: China Lake April 2000                        COMMENT
4-Character Station Name: GS43                              COMMENT
6-Character Antenna Code: ASHGD3                            COMMENT
Vertical Measurement Point: TGP                             COMMENT
Vertical Offset to Rinex Ref. Point: 0.0640                 COMMENT
Radial Measurement Point: OOH                               COMMENT
Radial Offset to Rinex Ref. Point: 0.1737                   COMMENT
Antenna Height from Field Measurement: 1.2620 m             COMMENT
Additional Antenna Identification Info.:                    COMMENT
The Whopper (700718AB)                                      COMMENT
Original XYZ: -2399984.1900 -4560504.0000 3748842.0500      COMMENT
New XYZ position is based on association with SCEC monument COMMENT
E1F4O1R8+0011. Position of that monument is believed to be  COMMENT
valid to within 1 m horizontally; vertical accuracy         COMMENT
should be no worse than 3-times this value.                 COMMENT
                                                            COMMENT
Revised Rinex header created by UCSD GPS archive for        COMMENT
GSAC on 14-Sep-2001 (2001:257) 21:20:40 GMT                 COMMENT
For assistance contact dagnew@ucsd.edu                      COMMENT
or anderson@python.ucsd.edu                                 COMMENT
                                                            COMMENT
PUNCH HOLE                                                  MARKER NAME
gs43                                                        MARKER NUMBER
LCS US NATIONAL IMAGERY MAPPING AGENCY                      OBSERVER / AGENCY
481 ASHTECH Z-XII3 4J30                                     REC # / TYPE / VERS
015 ASHTECH GEODETIC III                                    ANT # / TYPE
 -2387784.3255 -4577838.0214  3735281.1819                  APPROX POSITION XYZ
        1.1860        0.0000        0.0000                  ANTENNA: DELTA H/E/N
     1     1     0                                          WAVELENGTH FACT L1/2
     7    L1    L2    C1    P1    P2    S1    S2            # / TYPES OF OBSERV
    30                                                      INTERVAL
  2000     5    24    13    46   30.000000                  TIME OF FIRST OBS
  2000     5    24    21    29   60.000000                  TIME OF LAST OBS
                                                            END OF HEADER
 00  5 24 13 46 30.0000000  0  7G26G 4G 2G 9G 8G 7G24
      5775.97146                  16368238.200                    16368242.396
       230.000         183.000
    -26295.59856                  15877506.012                    15877513.871
       226.000         179.000
     -1283.58547                  14600860.003                    14600866.100
       243.000         208.000
    -23488.83046                  15949993.751                    15949999.052
       230.000         184.000
     16010.72753                  16848588.656
       218.000          74.000
     -2252.33157                  13727507.150                    13727513.571
       234.000         204.000
    -49785.73953                  18183286.907
       196.000          74.000
 00  5 24 13 46 59.9990000  0  7G26G 4G 2G 9G 8G 7G24
     42591.63549     27864.00346  16073838.098    16073837.935    16073844.177
       228.000         181.000
   -188323.66759   -126267.28156  15553299.764    15553300.397    15553306.801
       226.000         178.000
     -9193.74249     -6109.28847  14299889.597    14299889.263    14299894.957
       243.000         208.000
   -167148.56849   -112754.13546  15628401.673    15628401.227    15628407.230
       233.000         184.000
    111345.17749     76958.51856  16563679.353    16563678.234    16563686.322
       216.000         167.000
    -15640.49159    -10687.40957  13425655.917    13425655.413    13425661.210
       233.000         204.000
   -157263.10944                  17857247.027
       195.000         123.000
 00  5 24 13 47 30.0000000  0  6G26G 4G 2G 9G 8G 7
     71157.64449     50123.14146  22974500.447    22974500.202    22974506.713
       227.000         180.000
   -316389.83149   -226059.04746  22424156.194    22424156.592    22424163.171
       227.000         181.000
    -15266.10349    -10841.01147  21193960.739    21193960.247    21193965.953
       242.000         208.000
   -281425.33949   -201800.97546  22501882.311    22501881.891    22501887.624
       234.000         186.000
    189588.77359    137927.45546  23473795.214    23473794.567    23473802.772
       217.000         166.000
    -26198.40049    -18914.35947  20318873.494    20318872.875    20318878.603
       235.000         205.000
 00  5 24 13 47 59.9990000  0  6G26G 4G 2G 9G 8G 7
    100069.27549     72651.58146  22980002.057    22980001.896    22980008.474
       229.000         181.000
   -444318.22049   -325743.46646  22399812.288    22399812.650    22399819.156
       227.000         180.000
    -21138.44149    -15416.87447  21192843.411    21192842.833    21192848.506
       242.000         208.000
   -395495.68649   -290686.94446  22480175.516    22480175.033    22480180.734
       232.000         183.000
    268057.81949    199072.06846  23488727.418    23488726.867    23488734.728
       217.000         163.000
    -36418.44649    -26878.05047  20316928.825    20316928.156    20316933.853
       235.000         205.000
 00  5 24 13 48 29.9990000  0  6G26G 4G 2G 9G 8G 7
    129323.49149     95446.97946  22985569.064    22985568.888    22985575.398
       229.000         183.000
   -572001.55149   -425236.91546  22375515.090    22375515.296    22375521.815
       229.000         180.000
    -26787.54949    -19818.80347  21191768.475    21191767.864    21191773.550
       242.000         208.000
   -509262.30949   -379336.24846  22458526.338    22458525.952    22458531.537
       231.000         183.000
    346716.66849    260364.58245  23503696.044    23503695.391    23503702.817
       219.000         162.000
    -46276.21849    -34559.45447  20315053.047    20315052.337    20315058.018
       235.000         205.000
 00  5 24 13 48 59.9990000  0  6G26G 4G 2G 9G 8G 7
    158895.37449    118489.94146  22991196.424    22991196.269    22991202.842
       230.000         184.000
   -699453.70249   -524550.21546  22351261.872    22351261.985    22351268.476
       229.000         180.000
    -32233.53249    -24062.45347  21190732.200    21190731.536    21190737.294
       243.000         208.000
   -622740.22549   -467760.58546  22436932.163    22436931.813    22436937.392
       231.000         185.000
    425539.32649    321784.74645  23518695.636    23518694.930    23518702.104
       216.000         161.000
    -55794.06649    -41975.98447  20313241.939    20313241.196    20313246.857
       235.000         205.000
 00  5 24 13 49 29.9990000  0  7G26G 4G 2G 9G 8G 7G24
    188791.51749    141785.56246  22996885.550    22996885.381    22996891.928
       229.000         184.000
   -826662.24049   -623673.68246  22327054.930    22327055.000    22327061.516
       228.000         180.000
    -37466.51949    -28140.12147  21189736.497    21189735.772    21189741.562
       242.000         208.000
   -735917.79049   -555950.87146  22415395.198    22415394.841    22415400.430
       232.000         186.000
    504533.11949    383338.23945  23533727.830    23533727.074    23533734.056
       216.000         162.000
    -64964.30149    -49121.63947  20311496.946    20311496.195    20311501.835
       235.000         205.000
   -937776.44859   -695946.09254  24620919.129    24620917.930    24620928.039
       202.000         128.000
 00  5 24 13 49 59.9990000  0  7G26G 4G 2G 9G 8G 7G24
    219018.67249    165339.13746  23002637.645    23002637.476    23002644.060
       229.000         183.000
   -953614.47549   -722597.41646  22302896.628    22302896.762    22302903.297
       228.000         180.000
    -42476.23849    -32043.80347  21188783.226    21188782.470    21188788.260
       242.000         208.000
   -848783.01849   -643897.78146  22393917.669    22393917.307    22393922.915
       230.000         187.000
    583705.38649    445030.78845  23548793.877    23548793.136    23548800.017
       218.000         162.000
    -73778.64749    -55989.98647  20309819.653    20309818.901    20309824.542
       235.000         205.000
  -1076293.83149   -803881.64944  24594559.935    24594558.756    24594568.893
       198.000         126.000
 00  5 24 13 50 29.9990000  0  7G26G 4G 2G 9G 8G 7G24
    249588.89849    189160.04246  23008455.072    23008454.868    23008461.456
       228.000         182.000
  -1080292.56449   -821307.52046  22278790.608    22278790.706    22278797.223
       229.000         181.000
    -47247.57249    -35761.73047  21187875.278    21187874.536    21187880.320
       242.000         207.000
   -961319.02849   -731588.14547  22372502.692    22372502.398    22372508.094
       232.000         189.000
    663068.69849    506872.21645  23563896.403    23563895.560    23563902.424
       217.000         161.000
    -82224.04249    -62570.83747  20308212.624    20308211.825    20308217.455
       235.000         205.000
  -1214861.37949   -911856.03645  24568191.532    24568190.382    24568200.347
       204.000         136.000
 00  5 24 13 50 59.9990000  0  7G26G 4G 2G 9G 8G 7G24
    280493.40549    213241.42246  23014336.081    23014335.862    23014342.425
       229.000         182.000
  -1206699.23649   -919806.13446  22254736.112    22254736.271    22254742.813
       227.000         180.000
    -51785.83949    -39298.04347  21187011.709    21187010.954    21187016.729
       242.000         207.000
  -1073529.02149   -819024.49247  22351149.895    22351149.569    22351155.301
       231.000         189.000
    742615.23849    568856.42545  23579033.735    23579032.845    23579039.654
       216.000         159.000
    -90307.75449    -68869.85347  20306674.380    20306673.568    20306679.206
       235.000         205.000
  -1353482.80549  -1019872.48044  24541812.470    24541811.599    24541821.455
       204.000         128.000
 00  5 24 13 51 29.9990000  0  7G26G 4G 2G 9G 8G 7G24
    311719.73149    237573.55046  23020278.340    23020278.136    23020284.657
       227.000         181.000
  -1332841.36049  -1018098.59946  22230731.906    22230732.149    22230738.716
       227.000         181.000
    -56099.95249    -42659.70447  21186190.805    21186190.025    21186195.803
       242.000         207.000
  -1185420.54049   -906212.64647  22329857.593    22329857.271    22329863.153
       232.000         190.000
    822333.18849    630974.19845  23594203.685    23594202.740    23594209.563
       216.000         159.000
    -98041.08949    -74895.83847  20305202.822    20305202.005    20305207.628
       235.000         205.000
  -1492165.25649  -1127936.56145  24515421.951    24515421.244    24515431.045
       211.000         139.000
 00  5 24 13 51 59.9990000  0  7G26G 4G 2G 9G 8G 7G24
    343272.79749    262160.30146  23026282.732    23026282.493    23026289.062
       228.000         180.000
  -1458708.06149  -1116176.44246  22206780.233    22206780.456    22206787.060
       228.000         182.000
    -60181.87749    -45840.43847  21185414.092    21185413.299    21185419.068
       242.000         208.000
  -1296983.46449   -993144.77647  22308627.961    22308627.590    22308633.528
       232.000         189.000
    902227.83849    693229.67645  23609407.110    23609406.192    23609413.111
       213.000         158.000
   -105417.95249    -80644.05647  20303799.057    20303798.233    20303803.881
       235.000         206.000
  -1630898.59749  -1236040.25645  24489021.777    24489021.187    24489030.976
       210.000         142.000
 00  5 24 13 52 29.9990000  0  7G26G 4G 2G 9G 8G 7G24
    375148.34749    286998.35646  23032348.478    23032348.248    23032354.857
       227.000         180.000
  -1584297.72649  -1214038.43046  22182881.277    22182881.503    22182888.096
       230.000         183.000
    -64032.38649    -48840.85147  21184681.381    21184680.596    21184686.351
       242.000         207.000
  -1408216.80749  -1079820.08247  22287460.901    22287460.558    22287466.567
       232.000         188.000
    982295.75549    755620.13545  23624643.644    23624642.662    23624649.653
       215.000         159.000
   -112441.24649    -86116.77147  20302462.557    20302461.750    20302467.433
       235.000         206.000
  -1769681.62649  -1344182.59345  24462612.199    24462611.616    24462621.471
       204.000         144.000
 00  5 24 13 52 59.9990000  0  7G26G 4G 2G 9G 8G 7G24
    407346.77649    312087.99646  23038475.682    23038475.446    23038482.079
       224.000         178.000
  -1709604.10249  -1311679.70546  22159036.377    22159036.479    22159043.015
       230.000         183.000
    -67647.76049    -51658.04947  21183993.425    21183992.639    21183998.393
       242.000         207.000
  -1519114.95449  -1166234.19447  22266357.679    22266357.330    22266363.388
       233.000         188.000
   1062537.92649    818146.38245  23639913.332    23639912.296    23639919.424
       213.000         161.000
   -119109.31549    -91312.68047  20301193.676    20301192.885    20301198.562
       236.000         206.000
  -1908509.15349  -1452359.61745  24436194.002    24436193.477    24436203.576
       203.000         145.000
 00  5 24 13 53 29.9990000  0  7G26G 4G 2G 9G 8G 7G24
    439863.40549    337425.56946  23044663.441    23044663.192    23044669.841
       225.000         179.000
  -1834625.89549  -1409099.22846  22135245.578    22135245.628    22135252.078
       229.000         183.000
    -71028.97849    -54292.77547  21183350.024    21183349.239    21183355.017
       242.000         207.000
  -1629677.75649  -1252386.99947  22245318.295    22245317.946    22245324.021
       232.000         189.000
   1142950.31449    880805.26545  23655215.354    23655214.353    23655221.581
       215.000         162.000
   -125425.51749    -96234.39147  20299991.839    20299990.997    20299996.663
       236.000         206.000
  -2047380.48349  -1560570.93845  24409767.607    24409766.953    24409777.323
       202.000         143.000
 00  5 24 13 53 59.9990000  0  7G26G 4G 2G 9G 8G 7G24
    472710.28449    363020.48946  23050913.969    23050913.759    23050920.498
       226.000         178.000
  -1959345.11849  -1506282.99146  22111512.297    22111512.343    22111518.714
       229.000         184.000
    -74160.82549    -56733.20747  21182754.098    21182753.308    21182759.095
       242.000         207.000
  -1739887.78449  -1338264.92746  22224345.988    22224345.687    22224351.686
       232.000         186.000
   1223545.73449    943606.75946  23670552.290    23670551.283    23670558.626
       216.000         165.000
   -131376.58649   -100871.57847  20298859.415    20298858.566    20298864.248
       236.000         206.000
  -2186277.99549  -1668802.73145  24383336.273    24383335.473    24383345.932
       205.000         144.000
 00  5 24 13 54 29.9990000  0  7G26G 4G 2G 9G 8G 7G24
    505878.24049    388865.58446  23057225.666    23057225.452    23057232.165
       225.000         176.000
  -2083765.07949  -1603233.55146  22087835.918    22087835.958    22087842.362
       228.000         183.000
    -77048.96749    -58983.73747  21182204.518    21182203.735    21182209.555
       242.000         207.000
  -1849748.88249  -1423870.95747  22203440.139    22203439.778    22203445.800
       233.000         189.000
   1304315.63149   1006544.22246  23685922.510    23685921.434    23685928.837
       219.000         167.000
   -136970.36649   -105230.36147  20297794.985    20297794.137    20297799.826
       236.000         206.000
  -2325205.68749  -1777058.00645  24356898.932    24356898.426    24356908.677
       198.000         134.000
 00  5 24 13 54 59.9990000  0  7G26G 4G 2G 9G 8G 7G24
    539377.57649    414968.91146  23063600.481    23063600.232    23063606.898
       225.000         178.000
  -2207869.62149  -1699938.32846  22064219.535    22064219.577    22064226.027
       230.000         184.000
    -79679.73849    -61033.71647  21181703.952    21181703.143    21181708.984
       242.000         207.000
  -1959245.48149  -1509192.95447  22182603.637    22182603.268    22182609.285
       230.000         188.000
   1385271.10149   1069626.28846  23701327.930    23701326.849    23701334.311
       217.000         164.000
   -142195.21549   -109301.66447  20296800.780    20296799.911    20296805.597
       236.000         206.000
  -2464147.60149  -1885324.43045  24330459.054    24330458.759    24330468.799
       205.000         135.000
 00  5 24 13 55 29.9990000  0  7G26G 4G 2G 9G 8G 7G24
    573182.11849    441310.04846  23070033.362    23070033.071    23070039.776
       225.000         175.000
  -2331679.11149  -1796413.21046  22040659.231    22040659.367    22040665.788
       229.000         183.000
    -82075.94549    -62900.91747  21181248.032    21181247.195    21181253.053
       242.000         207.000
  -2068398.89349  -1594247.52747  22161832.284    22161832.016    22161838.110
       231.000         191.000
   1466386.52849   1132832.98545  23716763.805    23716762.705    23716770.180
       218.000         161.000
   -147076.09749   -113104.94547  20295872.014    20295871.134    20295876.836
       236.000         206.000
  -2603124.71749  -1993618.36945  24304012.593    24304012.351    24304022.140
       205.000         134.000
 00  5 24 13 55 59.9980000  0  7G26G 4G 2G 9G 8G 7G24
    607271.30449    467873.00146  23076520.337    23076520.102    23076526.719
       227.000         176.000
  -2455202.79849  -1892665.39346  22017153.460    22017153.557    22017159.929
       229.000         184.000
    -84253.41449    -64597.68047  21180833.736    21180832.876    21180838.729
       241.000         207.000
  -2177219.41449  -1679042.71047  22141124.512    22141124.183    22141130.285
       235.000         193.000
   1547640.39149   1196147.57945  23732225.852    23732224.901    23732232.310
       217.000         161.000
   -151631.19249   -116654.37547  20295005.194    20295004.342    20295010.025
       236.000         206.000
  -2742146.37849  -2101946.92044  24277557.519    24277557.317    24277566.724
       209.000         128.000
 00  5 24 13 56 29.9980000  0  7G26G 4G 2G 9G 8G 7G24
    641658.32049    494668.01346  23083064.068    23083063.823    23083070.409
       227.000         177.000
  -2578432.00849  -1988688.11546  21993703.746    21993703.815    21993710.120
       230.000         185.000
    -86198.18649    -66113.12247  21180463.674    21180462.831    21180468.680
       241.000         207.000
  -2285698.36349  -1763571.72447  22120481.690    22120481.349    22120487.495
       234.000         194.000
   1629049.79449   1259583.37245  23747717.615    23747716.721    23747724.119
       217.000         159.000
   -155848.29949   -119940.44447  20294202.774    20294201.892    20294207.549
       237.000         207.000
  -2881205.55949  -2210304.75745  24251095.091    24251095.263    24251104.218
       209.000         136.000
 00  5 24 13 56 59.9980000  0  7G26G 4G 2G 9G 8G 7G24
    676319.12449    521676.38046  23089659.820    23089659.608    23089666.191
       228.000         179.000
  -2701379.89249  -2084491.61446  21970307.492    21970307.585    21970313.887
       230.000         186.000
    -87929.45249    -67462.19347  21180134.230    21180133.399    21180139.266
       241.000         206.000
  -2393849.57849  -1847845.36547  22099901.216    22099900.883    22099907.091
       234.000         194.000
   1710590.06049   1323121.12545  23763234.294    23763233.419    23763240.882
       216.000         157.000
   -159749.03449   -122979.98447  20293460.507    20293459.622    20293465.279
       237.000         207.000
  -3020314.75149  -2318701.34745  24224623.280    24224623.565    24224632.620
       207.000         143.000
 00  5 24 13 57 29.9980000  0  7G26G 4G 2G 9G 8G 7G24
    711273.91049    548913.82746  23096311.562    23096311.344    23096317.946
       225.000         176.000
  -2824020.26649  -2180055.51146  21946969.769    21946969.887    21946976.181
       230.000         186.000
    -89423.42349    -68626.35847  21179849.935    21179849.127    21179854.999
       241.000         206.000
  -2501648.00049  -1931844.12047  22079387.914    22079387.548    22079393.749
       235.000         194.000
   1792281.77749   1386776.90245  23778779.832    23778778.876    23778786.382
       216.000         156.000
   -163311.81349   -125756.17047  20292782.479    20292781.658    20292787.332
       236.000         206.000
  -3159448.79649  -2427117.25345  24198146.822    24198147.190    24198156.346
       203.000         142.000
 00  5 24 13 57 59.9980000  0  7G26G 4G 2G 9G 8G 7G24
    746508.71149    576369.48846  23103016.454    23103016.311    23103022.974
       227.000         176.000
  -2946361.12449  -2275386.01647  21923689.022    21923689.197    21923695.443
       231.000         188.000
    -90690.72649    -69613.90247  21179608.780    21179608.003    21179613.869
       241.000         206.000
  -2609102.16949  -2015574.61647  22058940.016    22058939.684    22058945.923
       234.000         192.000
   1874111.83749   1450540.46645  23794351.628    23794350.653    23794358.167
       212.000         155.000
   -166549.37749   -128278.95947  20292166.413    20292165.598    20292171.254
       237.000         207.000
  -3298616.23949  -2535559.24945  24171664.116    24171664.480    24171673.661
       206.000         142.000
 00  5 24 13 58 29.9980000  0  7G26G 4G 2G 9G 8G 7G24
    782027.08049    604046.10146  23109775.438    23109775.311    23109781.888
       229.000         178.000
  -3068392.84249  -2370475.62546  21900467.133    21900467.290    21900473.562
       231.000         186.000
    -91724.31349    -70419.32347  21179412.161    21179411.352    21179417.222
       241.000         206.000
  -2716203.21649  -2099029.96047  22038559.320    22038559.018    22038565.247
       235.000         193.000
   1956084.45949   1514415.09945  23809950.524    23809949.573    23809957.092
       214.000         156.000
   -169456.78149   -130544.48247  20291613.181    20291612.366    20291618.026
       237.000         207.000
  -3437808.03749  -2644020.22045  24145176.918    24145177.018    24145186.253
       207.000         143.000
 00  5 24 13 58 59.9980000  0  7G26G 4G 2G 9G 8G 7G24
    817821.13649    631937.51546  23116586.979    23116586.791    23116593.402
       226.000         176.000
  -3190117.58749  -2465326.04247  21877303.690    21877303.835    21877310.082
       232.000         188.000
    -92528.54649    -71046.01747  21179259.174    21179258.322    21179264.239
       241.000         206.000
  -2822954.15349  -2182212.47547  22018245.301    22018244.991    22018251.188
       235.000         194.000
   2038192.51449   1578395.28845  23825575.350    23825574.384    23825581.860
       212.000         155.000
   -172040.70849   -132557.94047  20291121.461    20291120.675    20291126.335
       237.000         207.000
  -3577026.65849  -2752502.05645  24118684.888    24118684.601    24118693.824
       209.000         145.000
 00  5 24 13 59 29.9980000  0  7G26G 4G 2G 9G 8G 7G24
    853893.43949    660045.76346  23123451.281    23123451.122    23123457.831
       227.000         175.000
  -3311526.84949  -2559930.63047  21854200.272    21854200.408    21854206.666
       232.000         189.000
    -93097.26449    -71489.20247  21179150.968    21179150.128    21179156.089
       240.000         206.000
  -2929346.94949  -2265115.92647  21997999.541    21997999.138    21998005.366
       236.000         195.000
   2120439.25249   1642483.55745  23841226.492    23841225.540    23841233.008
       212.000         156.000
   -174297.19549   -134316.24847  20290692.101    20290691.312    20290696.952
       237.000         207.000
  -3716264.11049  -2860998.59945  24092188.969    24092188.586    24092197.794
       212.000         148.000
 00  5 24 13 59 59.9980000  0  7G26G 4G 2G 9G 8G 7G24
    890222.40849    688354.03846  23130364.670    23130364.423    23130371.015
       228.000         175.000
  -3432636.26649  -2654301.56947  21831153.818    21831154.063    21831160.307
       232.000         189.000
    -93448.77249    -71763.12847  21179084.042    21179083.257    21179089.261
       241.000         206.000
  -3035397.91249  -2347753.02047  21977818.669    21977818.283    21977824.512
       235.000         194.000
   2202803.68849   1706663.48245  23856899.983    23856899.013    23856906.575
       213.000         157.000
   -176246.42749   -135835.12747  20290321.230    20290320.411    20290326.054
       238.000         207.000
  -3855536.55649  -2969522.45445  24065686.317    24065685.837    24065695.075
       212.000         145.000
 00  5 24 14  0 29.9980000  0  7G26G 4G 2G 9G 8G 7G24
    926797.12149    716853.75646  23137324.575    23137324.386    23137330.951
       227.000         175.000
  -3553451.05449  -2748442.92947  21808163.712    21808163.826    21808170.035
       233.000         189.000
    -93590.60849    -71873.66947  21179057.064    21179056.284    21179062.321
       240.000         205.000
  -3141112.92949  -2430128.33847  21957701.780    21957701.422    21957707.634
       236.000         194.000
   2285275.87649   1770927.42245  23872594.204    23872593.032    23872600.675
       214.000         156.000
   -177898.21649   -137122.23647  20290006.934    20290006.101    20290011.756
       237.000         207.000
  -3994849.33449  -3078077.70845  24039175.775    24039175.390    24039184.621
       209.000         144.000
 00  5 24 14  0 59.9980000  0  7G26G 4G 2G 9G 8G 7G24
    963618.50449    745545.66646  23144331.576    23144331.318    23144337.872
       229.000         178.000
  -3673964.13449  -2842349.20547  21785230.855    21785230.942    21785237.132
       232.000         188.000
    -93518.15049    -71817.23447  21179070.795    21179070.067    21179076.147
       240.000         205.000
  -3246485.80349  -2512237.05547  21937650.024    21937649.649    21937655.750
       236.000         195.000
   2367857.14849   1835276.33645  23888309.152    23888307.818    23888315.505
       215.000         154.000
   -179250.24449   -138175.78347  20289749.633    20289748.845    20289754.484
       237.000         207.000
  -4134196.01049  -3186659.40545  24012658.702    24012658.476    24012667.620
       208.000         145.000
 00  5 24 14  1 29.9980000  0  7G26G 4G 2G 9G 8G 7G24
   1000674.44249    774420.34846  23151383.241    23151382.941    23151389.444
       229.000         178.000
  -3794181.71349  -2936025.21547  21762354.130    21762354.256    21762360.436
       233.000         188.000
    -93240.07549    -71600.57247  21179123.742    21179122.996    21179129.109
       239.000         205.000
  -3351523.04749  -2594084.23147  21917662.149    21917661.733    21917667.769
       237.000         196.000
   2450536.49749   1899701.68245  23904042.619    23904041.286    23904048.987
       213.000         155.000
   -180313.22149   -139004.09047  20289547.394    20289546.567    20289552.221
       237.000         207.000
  -4273583.52149  -3295272.86445  23986133.685    23986133.823    23986142.992
       209.000         149.000
 00  5 24 14  1 59.9980000  0  7G26G 4G 2G 9G 8G 7G24
   1037955.28149    803470.28046  23158477.717    23158477.347    23158483.845
       225.000         176.000
  -3914107.61049  -3029473.92847  21739533.029    21739533.094    21739539.301
       233.000         190.000
    -92762.70349    -71228.60847  21179214.622    21179213.864    21179220.001
       240.000         204.000
  -3456229.14649  -2675673.36947  21897737.287    21897736.839    21897742.823
       236.000         194.000
   2533304.73149   1964196.28745  23919793.126    23919791.632    23919799.398
       211.000         149.000
   -181095.57949   -139613.72847  20289398.496    20289397.724    20289403.358
       237.000         207.000
  -4413015.71849  -3403921.18945  23959600.364    23959600.613    23959609.946
       207.000         149.000
 00  5 24 14  2 29.9980000  0  7G26G 4G 2G 9G 8G 7G24
   1075461.12049    832695.55746  23165614.641    23165614.442    23165620.984
       223.000         173.000
  -4033735.87749  -3122690.72547  21716768.478    21716768.570    21716774.805
       233.000         190.000
    -92082.34349    -70698.47647  21179344.144    21179343.363    21179349.489
       239.000         204.000
  -3560599.10249  -2757000.58847  21877876.380    21877875.912    21877881.810
       236.000         194.000
   2616162.67749   2028760.77345  23935560.520    23935559.100    23935566.913
       209.000         147.000
   -181595.87949   -140003.57947  20289303.317    20289302.528    20289308.156
       237.000         206.000
  -4552487.29849  -3512600.24745  23933059.625    23933059.943    23933069.406
       209.000         147.000
 00  5 24 14  2 59.9980000  0  7G26G 4G 2G 9G 8G 7G24
   1113194.13149    862097.84946  23172795.063    23172794.804    23172801.408
       226.000         176.000
  -4153058.38249  -3215669.27647  21694062.155    21694062.231    21694068.495
       232.000         190.000
    -91193.29649    -70005.72047  21179513.334    21179512.555    21179518.677
       239.000         204.000
  -3664625.59549  -2838060.17247  21858080.775    21858080.339    21858086.176
       236.000         195.000
   2699113.15049   2093397.41845  23951345.476    23951344.084    23951352.009
       207.000         144.000
   -181810.64549   -140170.94147  20289262.499    20289261.675    20289267.306
       237.000         206.000
  -4691990.07849  -3621303.57745  23906513.253    23906513.405    23906522.794
       210.000         149.000
 00  5 24 14  3 29.9980000  0  7G26G 4G 2G 9G 8G 7G24
   1151147.19149    891671.59446  23180017.423    23180017.138    23180023.688
       225.000         176.000
  -4272076.15549  -3308410.35847  21671413.727    21671413.859    21671420.155
       232.000         190.000
    -90098.91349    -69152.96047  21179721.613    21179720.821    21179726.938
       239.000         204.000
  -3768310.11249  -2918853.27147  21838350.142    21838349.791    21838355.655
       235.000         194.000
   2782150.02349   2158101.34945  23967146.766    23967145.539    23967153.590
       203.000         142.000
   -181745.52349   -140120.21047  20289274.806    20289274.059    20289279.697
       237.000         206.000
  -4831525.80849  -3730032.57045  23879960.714    23879960.659    23879969.975
       212.000         145.000
 00  5 24 14  3 59.9980000  0  7G26G 4G 2G 9G 8G 7G24
   1189312.12549    921410.45046  23187280.012    23187279.742    23187286.338
       224.000         176.000
  -4390791.75449  -3400915.98847  21648822.911    21648823.030    21648829.305
       234.000         190.000
    -88804.24049    -68144.12747  21179968.028    21179967.217    21179973.337
       239.000         204.000
  -3871655.82849  -2999382.37747  21818683.961    21818683.703    21818689.589
       235.000         194.000
   2865265.66449   2222866.65745  23982963.030    23982962.003    23982970.181
       205.000         143.000
   -181407.50449   -139856.82847  20289339.110    20289338.372    20289344.033
       237.000         206.000
  -4971097.27349  -3838789.50545  23853401.222    23853401.040    23853410.152
       209.000         140.000
 00  5 24 14  4 29.9980000  0  7G26G 4G 2G 9G 8G 7G24
   1227701.76649    951324.41846  23194585.345    23194585.121    23194591.760
       227.000         179.000
  -4509186.36349  -3493171.50247  21626293.202    21626293.298    21626299.526
       234.000         191.000
    -87292.82949    -66966.41447  21180255.636    21180254.836    21180260.981
       240.000         204.000
  -3974644.52549  -3079633.29147  21799085.784    21799085.575    21799091.437
       235.000         194.000
   2948473.77549   2287704.02745  23998796.953    23998796.042    23998804.358
       205.000         143.000
   -180782.34549   -139369.69447  20289458.055    20289457.335    20289463.022
       237.000         207.000
  -5110686.05549  -3947559.86845  23826838.092    23826838.002    23826847.158
       206.000         144.000
 00  5 24 14  4 59.9980000  0  7G26G 4G 2G 9G 8G 7G24
   1266297.35949    981398.88146  23201929.952    23201929.724    23201936.337
       227.000         178.000
  -4627272.69449  -3585186.79647  21603822.093    21603822.211    21603828.429
       234.000         191.000
    -85579.82449    -65631.61847  21180581.659    21180580.842    21180586.973
       240.000         203.000
  -4077290.11349  -3159616.83947  21779552.958    21779552.732    21779558.602
       236.000         195.000
   3031756.39849   2352599.43945  24014645.030    24014644.306    24014652.700
       208.000         146.000
   -179887.33449   -138672.29847  20289628.467    20289627.681    20289633.367
       238.000         207.000
  -5250305.39849  -4056354.06645  23800269.291    23800269.126    23800278.385
       211.000         147.000
 00  5 24 14  5 29.9980000  0  7G26G 4G 2G 9G 8G 7G24
   1305114.13449   1011645.71146  23209316.640    23209316.382    23209322.983
       226.000         175.000
  -4745029.75049  -3676945.50247  21581413.613    21581413.772    21581420.000
       234.000         191.000
    -83646.57149    -64125.20047  21180949.521    21180948.753    21180954.840
       240.000         203.000
  -4179572.00549  -3239316.98747  21760089.381    21760089.118    21760095.026
       235.000         195.000
   3115129.17949   2417565.12345  24030510.634    24030509.820    24030518.147
       213.000         152.000
   -178706.21149   -137751.95947  20289853.264    20289852.472    20289858.147
       238.000         207.000
  -5389934.49249  -4165155.88445  23773698.865    23773698.489    23773707.752
       209.000         149.000
 00  5 24 14  5 59.9980000  0  7G26G 4G 2G 9G 8G 7G24
   1344142.60649   1042057.47046  23216743.520    23216743.290    23216749.968
       223.000         174.000
  -4862461.17149  -3768450.47047  21559067.220    21559067.329    21559073.515
       235.000         191.000
    -81499.27249    -62452.01047  21181358.192    21181357.395    21181363.459
       240.000         203.000
  -4281494.17949  -3318736.84747  21740694.263    21740693.956    21740699.863
       236.000         196.000
   3198583.63749   2482594.43445  24046391.880    24046390.858    24046399.230
       213.000         154.000
   -177247.05349   -136614.95247  20290130.895    20290130.136    20290135.846
       237.000         207.000
  -5529577.17349  -4273968.25945  23747125.629    23747125.246    23747134.556
       207.000         147.000
 00  5 24 14  6 29.9980000  0  7G26G 4G 2G 9G 8G 7G24
   1383354.45949   1072612.10446  23224205.167    23224205.018    23224211.772
       224.000         174.000
  -4979589.37049  -3859719.15547  21536778.453    21536778.572    21536784.701
       234.000         191.000
    -79162.44949    -60631.11547  21181802.893    21181802.114    21181808.145
       240.000         202.000
  -4383079.82549  -3397894.47347  21721363.122    21721362.849    21721368.752
       236.000         198.000
   3282092.12849   2547665.86045  24062283.235    24062282.144    24062290.493
       210.000         152.000
   -175536.65249   -135282.17547  20290456.359    20290455.616    20290461.358
       238.000         208.000
  -5669256.16549  -4382808.95845  23720545.445    23720545.077    23720554.412
       212.000         149.000
 00  5 24 14  6 59.9980000  0  7G26G 4G 2G 9G 8G 7G24
   1422752.61549   1103311.91146  23231702.311    23231702.244    23231709.007
       225.000         174.000
  -5096405.28149  -3950744.48747  21514549.055    21514549.189    21514555.326
       234.000         191.000
    -76629.63949    -58657.49947  21182284.947    21182284.122    21182290.121
       240.000         202.000
  -4484320.75949  -3476783.48147  21702097.607    21702097.354    21702103.324
       236.000         198.000
   3365658.58649   2612782.45545  24078185.427    24078184.419    24078192.769
       209.000         152.000
   -173570.64649   -133750.22347  20290830.527    20290829.752    20290835.507
       239.000         208.000
  -5808962.78849  -4491671.17345  23693960.017    23693959.739    23693969.133
       211.000         148.000
 00  5 24 14  7 29.9980000  0  7G26G 4G 2G 9G 8G 7G24
   1462352.21149   1134168.70046  23239238.034    23239237.847    23239244.561
       224.000         174.000
  -5212888.18949  -4041510.34147  21492382.974    21492383.209    21492389.346
       234.000         192.000
    -73882.46249    -56516.83947  21182807.823    21182806.943    21182812.904
       240.000         203.000
  -4585196.88949  -3555388.23647  21682901.480    21682901.230    21682907.237
       235.000         197.000
   3449298.59449   2677956.35445  24094101.747    24094100.699    24094109.033
       211.000         153.000
   -171332.85749   -132006.50547  20291256.398    20291255.613    20291261.379
       238.000         208.000
  -5948676.45649  -4600538.94345  23667373.384    23667373.062    23667382.364
       212.000         149.000
 00  5 24 14  7 59.9980000  0  7G26G 4G 2G 9G 8G 7G24
   1502146.80049   1165177.44746  23246810.670    23246810.552    23246817.259
       224.000         173.000
  -5329038.58649  -4132017.09747  21470280.244    21470280.477    21470286.634
       233.000         192.000
    -70923.75449    -54211.35547  21183370.860    21183370.004    21183375.952
       240.000         203.000
  -4685709.40449  -3633709.65247  21663774.525    21663774.317    21663780.322
       237.000         198.000
   3533006.57849   2743183.24645  24110030.896    24110029.918    24110038.195
       208.000         148.000
   -168828.35349   -130054.95247  20291733.030    20291732.212    20291738.006
       238.000         208.000
  -6088398.18449  -4709412.89345  23640784.951    23640784.807    23640794.167
       209.000         151.000
 00  5 24 14  8 29.9980000  0  7G26G 4G 2G 9G 8G 7G24
   1542108.56049   1196316.40346  23254415.119    23254415.052    23254421.765
       221.000         172.000
  -5444878.48049  -4222281.91247  21448236.610    21448236.832    21448242.993
       234.000         192.000
    -67777.87049    -51760.01647  21183969.484    21183968.658    21183974.629
       240.000         203.000
  -4785880.87449  -3711765.31947  21644712.565    21644712.315    21644718.353
       236.000         199.000
   3616755.26649   2808441.82745  24125967.777    24125966.781    24125975.144
       206.000         141.000
   -166083.50049   -127916.10747  20292255.365    20292254.554    20292260.338
       239.000         208.000
  -6228150.23849  -4818310.51245  23614190.988    23614190.775    23614200.260
       212.000         149.000
 00  5 24 14  8 59.9980000  0  7G26G 4G 2G 9G 8G 7G24
   1582260.26449   1227603.37446  23262055.856    23262055.706    23262062.479
       223.000         173.000
  -5560379.12949  -4312282.37547  21426257.486    21426257.717    21426263.970
       234.000         193.000
    -64418.29049    -49142.16547  21184608.768    21184607.987    21184613.950
       240.000         202.000
  -4885682.72049  -3789532.96247  21625720.917    21625720.630    21625726.735
       236.000         198.000
   3700568.55949   2873750.79945  24141916.801    24141915.930    24141924.284
       206.000         141.000
   -163073.93449   -125570.99747  20292828.036    20292827.273    20292833.056
       238.000         208.000
  -6367903.92149  -4927209.43745  23587596.689    23587596.595    23587605.952
       210.000         152.000
 00  5 24 14  9 29.9980000  0  7G26G 4G 2G 9G 8G 7G24
   1622562.39549   1259007.57746  23269725.228    23269725.013    23269731.797
       225.000         173.000
  -5675574.25149  -4402044.76847  21404336.537    21404336.788    21404343.045
       233.000         192.000
    -60881.36049    -46386.12347  21185281.796    21185281.064    21185287.008
       241.000         202.000
  -4985149.87449  -3867039.81747  21606792.830    21606792.611    21606798.758
       234.000         197.000
   3784407.47049   2939079.70045  24157870.655    24157870.021    24157878.541
       205.000         143.000
   -159838.16549   -123049.63047  20293443.816    20293443.034    20293448.810
       240.000         208.000
  -6507693.37349  -5036136.17745  23560995.584    23560995.423    23561004.953
       208.000         151.000
 00  5 24 14  9 59.9980000  0  7G26G 4G 2G 9G 8G 7G24
   1663012.54149   1290527.08946  23277422.686    23277422.495    23277429.251
       223.000         171.000
  -5790460.39949  -4491566.39647  21382474.423    21382474.655    21382480.915
       234.000         193.000
    -57165.61749    -43490.74547  21185988.904    21185988.158    21185994.097
       240.000         203.000
  -5084279.45649  -3944283.60847  21587929.006    21587928.815    21587935.083
       237.000         198.000
   3868270.42249   3004427.33345  24173829.407    24173828.725    24173837.223
       209.000         143.000
   -156377.07749   -120352.69047  20294102.468    20294101.689    20294107.445
       239.000         208.000
  -6647515.06149  -5145088.08845  23534388.260    23534388.138    23534397.646
       210.000         148.000
 00  5 24 14 10 29.9980000  0  7G26G 4G 2G 9G 8G 7G24
   1703627.97349   1322175.39646  23285151.431    23285151.345    23285158.128
       223.000         170.000
  -5905014.29249  -4580829.11547  21360675.569    21360675.762    21360681.983
       234.000         193.000
    -53250.21549    -40439.80347  21186734.073    21186733.277    21186739.233
       240.000         203.000
  -5183048.84749  -4021246.75047  21569133.850    21569133.627    21569139.903
       236.000         199.000
   3952175.44249   3069807.74545  24189796.025    24189795.392    24189803.855
       207.000         146.000
   -152672.03049   -117465.64447  20294807.518    20294806.734    20294812.515
       239.000         208.000
  -6787346.24449  -5254047.36345  23507779.049    23507778.986    23507788.517
       209.000         147.000
 00  5 24 14 10 59.9980000  0  7G26G 4G 2G 9G 8G 7G24
   1744402.33049   1353947.56946  23292910.679    23292910.547    23292917.205
       225.000         168.000
  -6019236.73649  -4669833.55747  21338939.752    21338939.918    21338946.113
       235.000         194.000
    -49138.17049    -37235.63747  21187516.538    21187515.784    21187521.748
       240.000         203.000
  -5281459.46149  -4097930.32147  21550407.017    21550406.714    21550413.016
       236.000         199.000
   4036116.90249   3135216.56745  24205769.888    24205769.114    24205777.464
       209.000         147.000
   -148728.03749   -114392.39947  20295557.996    20295557.260    20295563.076
       239.000         209.000
  -6927187.71849  -5363014.65845  23481168.014    23481167.967    23481177.367
       208.000         147.000
 00  5 24 14 11 29.9980000  0  7G26G 4G 2G 9G 8G 7G24
   1785328.21749   1385837.78946  23300698.702    23300698.531    23300705.067
       225.000         168.000
  -6133129.13649  -4758580.82447  21317266.769    21317266.901    21317273.094
       234.000         194.000
    -44833.15849    -33881.09647  21188335.720    21188335.027    21188341.019
       240.000         203.000
  -5379513.54849  -4174336.07947  21531747.898    21531747.629    21531753.935
       238.000         199.000
   4120088.23949   3200648.65045  24221749.249    24221748.398    24221756.750
       208.000         146.000
   -144551.25849   -111137.78347  20296352.858    20296352.085    20296357.916
       238.000         209.000
  -7067041.14149  -5471991.25445  23454554.692    23454554.636    23454564.005
       208.000         150.000
 00  5 24 14 11 59.9980000  0  7G26G 4G 2G 9G 8G 7G24
   1826400.44449   1417842.04546  23308514.650    23308514.405    23308520.866
       221.000         168.000
  -6246690.93449  -4847070.47747  21295656.624    21295656.786    21295662.987
       234.000         194.000
    -40337.16749    -30377.74247  21189191.335    21189190.619    21189196.599
       240.000         203.000
  -5477211.05449  -4250463.98747  21513156.703    21513156.417    21513162.690
       237.000         198.000
   4204084.93249   3266100.47745  24237733.320    24237732.541    24237740.907
       207.000         149.000
   -140145.43549   -107704.69447  20297191.245    20297190.489    20297196.337
       238.000         209.000
  -7206906.19249  -5580976.88545  23427939.217    23427939.184    23427948.539
       212.000         150.000
 00  5 24 14 12 29.9980000  0  7G26G 4G 2G 9G 8G 7G24
   1867610.47549   1449953.66246  23316356.668    23316356.447    23316362.980
       221.000         167.000
  -6359924.81849  -4935304.62247  21274108.848    21274109.060    21274115.268
       235.000         194.000
    -35655.14249    -26729.43047  21190082.302    21190081.597    21190087.606
       240.000         204.000
  -5574555.02349  -4326316.40747  21494632.786    21494632.480    21494638.760
       237.000         199.000
   4288099.41649   3331566.21245  24253720.493    24253719.978    24253728.487
       207.000         149.000
   -135517.58549   -104098.59147  20298071.901    20298071.149    20298077.013
       238.000         209.000
  -7346785.56349  -5689973.71745  23401320.963    23401321.008    23401330.300
       211.000         151.000
 00  5 24 14 12 59.9980000  0  7G26G 4G 2G 9G 8G 7G24
   1908975.76549   1482186.25446  23324228.293    23324228.027    23324234.625
       220.000         166.000
  -6472807.46749  -5023265.08347  21252627.987    21252628.179    21252634.397
       236.000         194.000
    -30766.19549    -22919.88547  21191012.677    21191011.956    21191017.983
       241.000         203.000
  -5671523.24049  -4401876.05247  21476180.386    21476180.056    21476186.295
       237.000         199.000
   4372149.68249   3397059.79745  24269714.507    24269714.250    24269722.958
       202.000         145.000
   -130649.07649   -100304.96747  20298998.359    20298997.624    20299003.486
       238.000         209.000
  -7486656.19149  -5798963.71745  23374704.300    23374704.453    23374713.668
       212.000         153.000
 00  5 24 14 13 29.9980000  0  7G26G 4G 2G 9G 8G 7G24
   1950481.06949   1514527.98646  23332126.510    23332126.270    23332132.928
       221.000         166.000
  -6585348.43649  -5110959.29747  21231212.206    21231212.354    21231218.563
       236.000         194.000
    -25682.04749    -18958.22947  21191980.314    21191979.473    21191985.526
       240.000         202.000
  -5768125.86049  -4477150.80547  21457797.485    21457797.176    21457803.411
       237.000         199.000
   4456221.30649   3462570.01345  24285712.500    24285712.546    24285721.415
       202.000         146.000
   -125553.77449    -96334.61947  20299967.953    20299967.237    20299973.142
       239.000         209.000
  -7626527.70149  -5907954.41545  23348087.629    23348087.744    23348096.845
       213.000         152.000
 00  5 24 14 13 59.9980000  0  7G26G 4G 2G 9G 8G 7G24
   1992123.69149   1546976.72546  23340050.945    23340050.655    23340057.362
       222.000         169.000
  -6697544.75549  -5198384.95047  21209861.947    21209862.069    21209868.278
       237.000         194.000
    -20401.71649    -14843.69847  21192985.158    21192984.320    21192990.373
       240.000         203.000
  -5864360.25449  -4552138.62247  21439484.641    21439484.373    21439490.596
       237.000         198.000
   4540312.46849   3528095.43745  24301714.719    24301714.617    24301723.478
       199.000         143.000
   -120232.93849    -92188.51747  20300980.532    20300979.781    20300985.703
       239.000         209.000
  -7766397.17749  -6016943.54745  23321471.314    23321471.467    23321480.361
       212.000         152.000
 00  5 24 14 14 29.9980000  0  7G26G 4G 2G 9G 8G 7G24
   2033906.93249   1579535.02346  23348002.107    23348001.810    23348008.567
       221.000         170.000
  -6809387.08049  -5285534.76547  21188579.103    21188579.203    21188585.309
       237.000         194.000
    -14918.34349    -10570.95547  21194028.619    21194027.796    21194033.885
       241.000         203.000
  -5960217.81649  -4626832.79847  21421243.514    21421243.271    21421249.451
       238.000         199.000
   4624427.17749   3593639.21845  24317721.312    24317721.138    24317730.125
       202.000         142.000
   -114681.78849    -87862.94847  20302036.914    20302036.157    20302042.060
       239.000         209.000
  -7906255.56849  -6125923.97345  23294856.971    23294857.184    23294866.135
       211.000         156.000
 00  5 24 14 14 59.9980000  0  7G26G 4G 2G 9G 8G 7G24
   2075833.93249   1612205.30846  23355980.558    23355980.285    23355987.111
       220.000         170.000
  -6920866.60049  -5372401.89447  21167365.161    21167365.336    21167371.376
       236.000         195.000
     -9225.45449     -6134.95147  21195111.946    21195111.147    21195117.237
       240.000         203.000
  -6055690.16949  -4701226.82247  21403075.776    21403075.481    21403081.636
       237.000         199.000
   4708569.47449   3659204.51645  24333733.453    24333733.017    24333741.970
       203.000         140.000
   -108895.84449    -83354.43047  20303137.964    20303137.183    20303143.094
       239.000         209.000
  -8046094.02649  -6234888.87545  23268246.476    23268246.698    23268255.737
       208.000         153.000
 00  5 24 14 15 29.9980000  0  7G26G 4G 2G 9G 8G 7G24
   2117892.25749   1644977.92946  23363983.993    23363983.741    23363990.684
       220.000         168.000
  -7031989.96749  -5458991.49047  21146219.061    21146219.231    21146225.249
       236.000         195.000
     -3331.89649     -1542.58747  21196233.428    21196232.646    21196238.758
       240.000         203.000
  -6150784.61249  -4775326.36247  21384979.945    21384979.613    21384985.752
       238.000         200.000
   4792727.56749   3724782.15545  24349748.584    24349747.954    24349756.849
       206.000         141.000
   -102886.28549    -78671.66747  20304281.534    20304280.767    20304286.701
       239.000         209.000
  -8185919.30949  -6343843.50945  23241638.316    23241638.669    23241647.801
       212.000         151.000
 00  5 24 14 15 59.9980000  0  7G26G 4G 2G 9G 8G 7G24
   2160096.70049   1677864.40646  23372015.148    23372015.023    23372022.084
       220.000         167.000
  -7142736.60749  -5545287.52947  21125144.608    21125144.791    21125150.811
       236.000         194.000
      2780.53449      3220.32847  21197396.587    21197395.827    21197401.935
       241.000         203.000
  -6245481.42849  -4849116.06647  21366959.678    21366959.416    21366965.528
       238.000         201.000
   4876917.06149   3790384.29045  24365769.687    24365768.853    24365777.564
       207.000         140.000
    -96636.76749    -73801.91947  20305470.771    20305470.025    20305475.984
       240.000         209.000
  -8325710.98449  -6452771.99545  23215036.722    23215037.115    23215046.166
       212.000         152.000
 00  5 24 14 16 29.9980000  0  7G26G 4G 2G 9G 8G 7G24
   2202435.04549   1710855.21446  23380072.074    23380071.845    23380078.911
       222.000         167.000
  -7253113.18449  -5631295.22247  21104140.617    21104140.810    21104146.778
       237.000         195.000
      9103.01549      8146.90847  21198599.778    21198599.003    21198605.106
       241.000         204.000
  -6339787.42549  -4922601.23647  21349013.903    21349013.601    21349019.667
       239.000         201.000
   4961126.55849   3856001.94245  24381794.550    24381793.588    24381802.182
       207.000         139.000
    -90158.34049    -68753.80247  20306703.609    20306702.832    20306708.807
       239.000         209.000
  -8465475.55349  -6561679.33445  23188440.290    23188440.730    23188449.717
       214.000         156.000
 00  5 24 14 16 59.9980000  0  7G26G 4G 2G 9G 8G 7G24
   2244907.33449   1743950.33746  23388154.368    23388154.120    23388161.128
       218.000         163.000
  -7363113.78549  -5717009.94147  21083208.261    21083208.392    21083214.311
       237.000         195.000
     15639.33949     13240.11247  21199843.645    21199842.858    21199848.996
       240.000         204.000
  -6433697.64949  -4995778.02247  21331143.374    21331143.091    21331149.094
       238.000         201.000
   5045357.03749   3921635.97045  24397823.120    24397822.241    24397830.688
       206.000         136.000
    -83449.37149    -63526.04047  20307980.291    20307979.523    20307985.521
       239.000         209.000
  -8605207.19649  -6670561.03245  23161850.273    23161850.611    23161859.591
       211.000         152.000
 00  5 24 14 17 29.9980000  0  7G26G 4G 2G 9G 8G 7G24
   2287488.93449   1777130.71245  23396257.450    23396257.187    23396264.195
       217.000         158.000
  -7472757.40649  -5802446.49047  21062343.767    21062343.891    21062349.741
       237.000         195.000
     22368.28649     18483.41547  21201124.140    21201123.370    21201129.522
       241.000         203.000
  -6527231.73749  -5068661.70447  21313344.399    21313344.123    21313350.167
       238.000         201.000
   5129584.14949   3987267.43045  24413851.009    24413850.236    24413858.693
       206.000         139.000
    -76533.17149    -58136.80047  20309296.318    20309295.621    20309301.663
       239.000         208.000
  -8744924.94449  -6779431.92145  23135262.814    23135263.192    23135272.105
       212.000         159.000
 00  5 24 14 17 59.9980000  0  7G26G 4G 2G 9G 8G 7G24
   2330203.79549   1810414.94445  23404385.805    23404385.583    23404392.518
       220.000         161.000
  -7582014.23249  -5887581.62947  21041552.833    21041552.972    21041558.809
       237.000         196.000
     29317.27049     23898.17947  21202446.491    21202445.740    21202451.900
       240.000         204.000
  -6620360.80849  -5141229.79047  21295622.424    21295622.211    21295628.293
       237.000         201.000
   5213833.01549   4052915.78845  24429883.164    24429882.375    24429891.019
       201.000         137.000
    -69384.48149    -52566.38947  20310656.714    20310655.981    20310662.024
       238.000         208.000
  -8884599.42649  -6888269.08245  23108683.698    23108683.982    23108692.827
       216.000         155.000
 00  5 24 14 18 29.9980000  0  7G26G 4G 2G 9G 8G 7G24
   2373048.47349   1843800.32346  23412538.914    23412538.704    23412545.667
       220.000         165.000
  -7690882.16149  -5972413.73447  21020835.964    21020836.069    21020841.894
       237.000         196.000
     36486.47349     29484.53647  21203810.751    21203810.023    21203816.171
       239.000         204.000
  -6713082.92349  -5213480.77547  21277977.922    21277977.741    21277983.832
       239.000         202.000
   5298101.06049   4118579.00345  24445919.222    24445918.181    24445926.939
       201.000         137.000
    -62005.20849    -46816.31147  20312060.957    20312060.224    20312066.261
       238.000         208.000
  -9024228.11149  -6997070.59545  23082113.406    23082113.449    23082122.116
       215.000         153.000
 00  5 24 14 18 59.9980000  0  7G26G 4G 2G 9G 8G 7G24
   2416027.41249   1877290.32546  23420717.601    23420717.412    23420724.429
       220.000         164.000
  -7799351.08849  -6056934.93647  21000194.932    21000195.071    21000200.926
       237.000         196.000
     43883.79849     35248.65847  21205218.486    21205217.732    21205223.853
       241.000         204.000
  -6805388.72049  -5285407.35947  21260412.765    21260412.561    21260418.602
       240.000         202.000
   5382393.15949   4184261.01245  24461959.698    24461958.604    24461967.151
       199.000         133.000
    -54389.62849    -40882.11747  20313510.182    20313509.433    20313515.447
       239.000         208.000
  -9163800.83349  -7105828.49245  23055553.768    23055553.675    23055562.125
       216.000         158.000
 00  5 24 14 19 29.9980000  0  7G26G 4G 2G 9G 8G 7G24
   2459123.74049   1910871.78046  23428918.752    23428918.482    23428925.495
       222.000         165.000
  -7907431.96849  -6141153.77647  20979627.810    20979627.947    20979633.789
       236.000         198.000
     51495.83449     41180.08747  21206667.145    21206666.316    21206672.427
       241.000         204.000
  -6897289.96349  -5357018.70047  21242924.534    21242924.325    21242930.347
       240.000         202.000
   5466693.43449   4249949.45745  24478001.839    24478000.682    24478009.010
       200.000         134.000
    -46553.16349    -34775.79047  20315001.432    20315000.689    20315006.664
       239.000         208.000
  -9303328.62949  -7214551.36445  23029002.718    23029002.462    23029010.748
       216.000         158.000
 00  5 24 14 19 59.9980000  0  7G26G 4G 2G 9G 8G 7G24
   2502356.97749   1944559.89746  23437145.884    23437145.596    23437152.600
       220.000         165.000
  -8015099.94549  -6225050.87647  20959139.208    20959139.385    20959145.229
       237.000         198.000
     59345.50249     47296.68447  21208160.914    21208160.100    21208166.208
       240.000         204.000
  -6988761.93649  -5428295.54247  21225518.012    21225517.790    21225523.775
       239.000         201.000
   5551022.17749   4315660.02645  24494049.328    24494048.094    24494056.548
       205.000         139.000
    -38474.94449    -28481.08847  20316538.653    20316537.938    20316543.904
       239.000         208.000
  -9442786.37449  -7323219.62645  23002464.899    23002464.535    23002472.702
       216.000         159.000
 00  5 24 14 20 29.9980000  0  7G26G 4G 2G 9G 8G 7G24
   2545712.01249   1978342.95246  23445396.133    23445395.918    23445402.926
       221.000         167.000
  -8122364.27249  -6308633.44447  20938727.431    20938727.629    20938733.512
       237.000         199.000
     67421.16549     53589.36447  21209697.715    21209696.884    21209702.985
       241.000         204.000
  -7079814.53349  -5499245.59347  21208191.314    21208191.051    21208197.023
       239.000         202.000
   5635365.17149   4381381.71745  24510099.463    24510098.166    24510106.528
       205.000         137.000
    -30168.70449    -22008.70747  20318119.299    20318118.582    20318124.515
       240.000         209.000
  -9582183.78649  -7431840.90345  22975938.400    22975937.990    22975946.147
       217.000         158.000
 00  5 24 14 20 59.9980000  0  7G26G 4G 2G 9G 8G 7G24
   2589178.51949   2012212.87846  23453667.632    23453667.401    23453674.375
       220.000         169.000
  -8229229.64049  -6391905.13947  20918391.611    20918391.790    20918397.694
       237.000         199.000
     75716.07849     60052.88947  21211276.232    21211275.411    21211281.463
       240.000         203.000
  -7170453.30049  -5569873.18847  21190943.340    21190943.076    21190948.997
       241.000         203.000
   5719712.76749   4447107.00645  24526150.614    24526149.231    24526157.355
       202.000         141.000
    -21643.26249    -15365.51347  20319741.641    20319740.921    20319746.853
       238.000         208.000
  -9721525.11949  -7540418.51845  22949422.602    22949422.160    22949430.171
       218.000         159.000
 00  5 24 14 21 29.9980000  0  7G26G 4G 2G 9G 8G 7G24
   2632771.28049   2046181.17846  23461962.993    23461962.860    23461969.923
       219.000         169.000
  -8335675.87849  -6474850.24247  20898135.506    20898135.710    20898141.629
       237.000         199.000
     84248.12849     66701.19947  21212899.853    21212899.055    21212905.084
       241.000         204.000
  -7260658.75949  -5640163.13247  21173777.807    21173777.535    21173783.445
       239.000         202.000
   5804080.21149   4512847.70745  24542205.267    24542203.911    24542212.208
       205.000         145.000
    -12882.65749     -8539.07847  20321408.739    20321408.024    20321413.930
       240.000         208.000
  -9860790.00649  -7648936.53445  22922921.447    22922920.964    22922928.814
       217.000         161.000
 00  5 24 14 21 59.9970000  0  7G26G 4G 2G 9G 8G 7G24
   2676478.22849   2080238.44046  23470280.146    23470280.065    23470287.298
       218.000         168.000
  -8441704.17849  -6557469.66947  20877958.978    20877959.203    20877965.088
       237.000         199.000
     93010.10549     73528.68347  21214567.213    21214566.434    21214572.494
       239.000         204.000
  -7350432.87449  -5710116.96447  21156694.381    21156694.099    21156699.968
       240.000         202.000
   5888455.54349   4578594.53145  24558261.534    24558260.006    24558268.379
       201.000         135.000
     -3896.18449     -1536.64847  20323118.825    20323118.101    20323124.000
       239.000         208.000
  -9999978.51049  -7757395.03245  22896434.631    22896434.199    22896441.980
       218.000         160.000
 00  5 24 14 22 29.9970000  0  7G26G 4G 2G 9G 8G 7G24
   2720310.61449   2114393.42746  23478621.292    23478621.183    23478628.483
       218.000         163.000
  -8547307.63149  -6639758.05247  20857863.327    20857863.507    20857869.426
       237.000         199.000
    102014.27549     80544.88647  21216280.747    21216279.910    21216286.015
       241.000         204.000
  -7439768.48749  -5779729.10447  21139694.368    21139694.084    21139699.935
       240.000         203.000
   5972853.17649   4644358.77845  24574322.160    24574320.417    24574328.748
       204.000         132.000
      5326.52149      5649.86947  20324873.848    20324873.137    20324879.027
       240.000         208.000
 -10139085.99349  -7865790.39245  22869963.382    22869962.904    22869970.677
       217.000         161.000
 00  5 24 14 22 59.9970000  0  7G26G 4G 2G 9G 8G 7G24
   2764249.29449   2148631.26945  23486982.573    23486982.506    23486989.792
       219.000         160.000
  -8652495.14149  -6721722.33447  20837846.835    20837846.964    20837852.919
       237.000         199.000
    111246.20849     87738.57947  21218037.587    21218036.743    21218042.874
       241.000         204.000
  -7528675.27949  -5849007.10247  21122775.920    21122775.673    21122781.488
       239.000         202.000
   6057253.23549   4710125.02344  24590383.069    24590381.353    24590389.494
       201.000         126.000
     14768.75549     13007.45147  20326670.685    20326669.936    20326675.838
       240.000         208.000
 -10278119.85649  -7974128.40245  22843506.023    22843505.584    22843513.322
       218.000         160.000
 00  5 24 14 23 29.9970000  0  7G26G 4G 2G 9G 8G 7G24
   2808305.60849   2182960.75345  23495366.365    23495366.201    23495373.470
       218.000         159.000
  -8757249.62049  -6803349.19747  20817912.658    20817912.835    20817918.792
       238.000         200.000
    120720.62449     95121.22147  21219840.500    21219839.698    21219845.843
       240.000         203.000
  -7617137.09449  -5917938.36547  21105942.122    21105941.906    21105947.743
       239.000         203.000
   6141667.93649   4775902.61345  24606446.642    24606445.007    24606453.236
       204.000         132.000
     24443.41049     20546.13847  20328511.651    20328510.953    20328516.875
       239.000         208.000
 -10417062.93049  -8082395.67945  22817066.058    22817065.566    22817073.276
       219.000         161.000
 00  5 24 14 23 59.9970000  0  7G26G 4G 2G 9G 8G 7G24
   2852452.62549   2217360.93945  23503767.438    23503767.173    23503774.376
       219.000         156.000
  -8861592.52649  -6884655.35647  20798056.917    20798057.031    20798062.978
       238.000         200.000
    130414.05349    102674.52347  21221685.062    21221684.312    21221690.441
       239.000         203.000
  -7705176.05049  -5986540.13147  21089188.836    21089188.646    21089194.448
       240.000         203.000
   6226071.37749   4841671.39944  24622507.746    24622506.393    24622514.875
       200.000         127.000
     34324.74149     28245.86747  20330392.029    20330391.312    20330397.255
       239.000         208.000
 -10555936.57549  -8190608.86245  22790639.208    22790638.801    22790646.513
       218.000         159.000
 00  5 24 14 24 29.9970000  0  7G26G 4G 2G 9G 8G 7G24
   2896718.71449   2251853.93345  23512191.093    23512190.861    23512197.848
       218.000         150.000
  -8965489.82949  -6965614.29247  20778285.936    20778286.047    20778291.955
       237.000         200.000
    140358.41949    110423.36647  21223577.520    21223576.698    21223582.802
       240.000         202.000
  -7792758.70849  -6054786.33647  21072522.469    21072522.243    21072528.055
       241.000         204.000
   6310492.58248   4907454.01644  24638572.038    24638571.026    24638579.759
       194.000         119.000
     44442.78049     36130.04147  20332317.403    20332316.707    20332322.652
       240.000         208.000
 -10694706.53249  -8298741.22145  22764231.951    22764231.702    22764239.490
       217.000         161.000
 00  5 24 14 24 59.9970000  0  6G26G 4G 2G 9G 7G24
   2941077.66049   2286419.28745  23520632.517    23520632.182    23520638.906
       218.000         152.000
  -9068962.11749  -7046242.04047  20758595.750    20758595.911    20758601.830
       237.000         200.000
    150530.87849    118349.93447  21225513.323    21225512.470    21225518.556
       240.000         202.000
  -7879906.25649  -6122693.49147  21055938.808    21055938.575    21055944.445
       239.000         204.000
     54772.49249     44179.14447  20334283.075    20334282.394    20334288.309
       240.000         208.000
 -10833393.52649  -8406808.92045  22737840.419    22737840.343    22737848.311
       218.000         161.000
 00  5 24 14 25 29.9970000  0  7G26G 4G 2G 9G 7G 5G24
   2985542.77049   2321067.36945  23529094.050    23529093.702    23529100.349
       219.000         156.000
  -9171990.86949  -7126524.16847  20738990.049    20738990.182    20738996.106
       238.000         200.000
    160948.11949    126467.23947  21227495.660    21227494.830    21227500.922
       238.000         202.000
  -7966600.49949  -6190247.43147  21039441.419    21039441.205    21039447.064
       241.000         204.000
     65328.65149     52404.70747  20336291.867    20336291.182    20336297.100
       239.000         208.000
   -206425.13853                  23930400.501
       208.000          70.000
 -10971978.29149  -8514796.99045  22711468.457    22711468.461    22711476.473
       220.000         161.000
 00  5 24 14 25 59.9970000  0  7G26G 4G 2G 9G 7G 5G24
   3030107.39249   2355793.01345  23537574.449    23537574.089    23537580.755
       219.000         156.000
  -9274577.05249  -7206461.44247  20719468.569    20719468.691    20719474.584
       238.000         199.000
    171607.07449    134772.88547  21229523.973    21229523.184    21229529.286
       240.000         202.000
  -8052842.98549  -6257449.35047  21023030.126    21023029.833    21023035.659
       241.000         204.000
     76106.19249     60802.77647  20338342.842    20338342.120    20338348.010
       241.000         208.000
    -17755.48643                  23908095.766
       210.000          74.000
 -11110461.97149  -8622706.28745  22685115.770    22685115.801    22685123.807
       219.000         160.000
 00  5 24 14 26 29.9970000  0  7G26G 4G 2G 9G 7G 5G24
   3074754.88949   2390583.19945  23546070.549    23546070.281    23546077.059
       219.000         160.000
  -9376731.83649  -7286062.56147  20700029.139    20700029.270    20700035.126
       238.000         200.000
    182494.50149    143256.57347  21231595.839    21231595.030    21231601.117
       239.000         202.000
  -8138645.32749  -6324308.30447  21006702.505    21006702.191    21006708.005
       241.000         204.000
     87089.85349     69361.46647  20340433.000    20340432.266    20340438.148
       239.000         208.000
   -109128.74845                  23885781.623
       208.000         143.000
 -11248855.13049  -8730545.06146  22658780.498    22658780.437    22658788.327
       222.000         163.000
 00  5 24 14 26 59.9970000  0  7G26G 4G 2G 9G 7G 5G24
   3119490.83749   2425442.26045  23554583.529    23554583.262    23554590.205
       216.000         159.000
  -9478444.21749  -7365318.94947  20680673.845    20680674.025    20680679.896
       238.000         200.000
    193619.18449    151925.12947  21233712.803    21233711.989    21233718.111
       238.000         202.000
  -8223997.31849  -6390816.33147  20990460.567    20990460.248    20990466.037
       242.000         205.000
     98286.54349     78086.14447  20342563.625    20342562.924    20342568.792
       239.000         207.000
   -200533.84945                  23863459.484
       210.000         147.000
 -11387146.71149  -8838304.65846  22632464.526    22632464.434    22632472.300
       221.000         166.000
 00  5 24 14 27 29.9970000  0  7G26G 4G 2G 9G 7G 5G24
   3164323.42949   2460376.59446  23563114.868    23563114.669    23563121.650
       218.000         163.000
  -9579700.56249  -7444219.97247  20661405.421    20661405.564    20661411.441
       238.000         200.000
    204992.77349    160787.62347  21235877.162    21235876.348    21235882.458
       239.000         201.000
  -8308886.03449  -6456963.36547  20974306.801    20974306.476    20974312.284
       240.000         205.000
    109705.96849     86984.38647  20344736.695    20344735.983    20344741.834
       240.000         208.000
   -755605.75249   -291961.58845  23841131.834    23841130.084    23841140.219
       207.000         146.000
 -11525322.80449  -8945974.27646  22606170.484    22606170.371    22606178.216
       220.000         166.000
 00  5 24 14 27 59.9970000  0  7G26G 4G 2G 9G 7G 5G24
   3209229.92149   2495368.50646  23571660.403    23571660.209    23571667.244
       218.000         165.000
  -9680518.27149  -7522779.22247  20642220.428    20642220.589    20642226.416
       238.000         200.000
    216595.74249    169828.85447  21238085.116    21238084.335    21238090.493
       238.000         201.000
  -8393329.36149  -6522763.33947  20958237.722    20958237.429    20958243.249
       240.000         205.000
    121326.56849     96039.39047  20346948.107    20346947.356    20346953.183
       240.000         208.000
   -872986.54759   -383427.09555  23818795.199    23818795.796    23818802.346
       201.000         140.000
 -11663400.37349  -9053567.11946  22579895.126    22579895.022    22579902.893
       219.000         164.000
 00  5 24 14 28 29.9970000  0  7G26G 4G 2G 9G 7G 5G24
   3254217.00349   2530423.26646  23580221.297    23580221.064    23580228.247
       220.000         164.000
  -9780885.20649  -7600987.20147  20623121.295    20623121.390    20623127.198
       238.000         201.000
    228438.47149    179056.90647  21240338.723    21240337.956    21240344.129
       237.000         200.000
  -8477315.79649  -6588207.29647  20942255.599    20942255.343    20942261.167
       240.000         206.000
    133156.55749    105257.54647  20349199.296    20349198.558    20349204.364
       240.000         208.000
   -990405.55849   -474922.34345  23796450.871    23796450.345    23796457.662
       196.000         134.000
 -11801367.24349  -9161073.70346  22553640.785    22553640.723    22553648.588
       219.000         165.000
 00  5 24 14 28 59.9970000  0  7G26G 4G 2G 9G 7G 5G24
   3299275.30849   2565533.52645  23588795.922    23588795.545    23588802.770
       219.000         161.000
  -9880805.67149  -7678847.28147  20604107.029    20604107.163    20604112.946
       238.000         201.000
    240514.70449    188466.92147  21242636.681    21242635.984    21242642.198
       236.000         201.000
  -8560849.88549  -6653298.78747  20926359.586    20926359.317    20926365.163
       240.000         205.000
    145187.92149    114632.61947  20351488.801    20351488.078    20351493.892
       241.000         209.000
  -1107868.64949   -566451.88145  23774098.419    23774097.866    23774105.246
       206.000         133.000
 -11939226.99649  -9268496.83846  22527406.722    22527406.801    22527414.603
       218.000         163.000
 00  5 24 14 29 29.9970000  0  7G26G 4G 2G 9G 7G 5G24
   3344403.74749   2600698.50945  23597383.610    23597383.288    23597390.500
       217.000         155.000
  -9980274.83449  -7756355.71747  20585178.664    20585178.806    20585184.573
       238.000         201.000
    252826.79049    198060.71547  21244979.669    21244978.946    21244985.172
       236.000         200.000
  -8643927.54449  -6718034.61847  20910550.428    20910550.175    20910556.008
       241.000         205.000
    157421.16449    124165.00547  20353816.777    20353816.022    20353821.821
       241.000         209.000
  -1225373.23449   -658013.82145  23751738.246    23751737.546    23751745.206
       209.000         137.000
 -12076974.93849  -9375832.83446  22501194.066    22501194.202    22501201.949
       221.000         163.000
 00  5 24 14 29 59.9970000  0  7G26G 4G 2G 9G 7G 5G24
   3389599.82449   2635916.17345  23605984.079    23605983.816    23605991.125
       214.000         157.000
 -10079290.01049  -7833510.39047  20566336.588    20566336.819    20566342.596
       238.000         202.000
    265375.70049    207839.05247  21247367.646    21247366.962    21247373.204
       237.000         201.000
  -8726546.56349  -6782413.05947  20894828.527    20894828.295    20894834.110
       240.000         205.000
    169855.24849    133853.89147  20356182.931    20356182.185    20356187.966
       241.000         209.000
  -1342918.46849   -749607.48045  23729369.976    23729369.348    23729377.478
       208.000         136.000
 -12214607.65649  -9483079.04246  22475003.503    22475003.545    22475011.322
       221.000         168.000
 00  5 24 14 30 29.9970000  0  7G26G 4G 2G 9G 7G 5G24
   3434854.90649   2671179.76145  23614595.796    23614595.589    23614603.105
       215.000         157.000
 -10177854.74749  -7910314.05247  20547580.367    20547580.562    20547586.339
       239.000         202.000
    278155.91549    217797.62347  21249799.654    21249798.978    21249805.278
       238.000         200.000
  -8808710.90549  -6846437.20947  20879193.148    20879192.935    20879198.725
       240.000         205.000
    182482.73949    143693.48147  20358585.912    20358585.143    20358590.926
       242.000         209.000
  -1460509.74149   -841237.03345  23706992.791    23706992.335    23707000.627
       211.000         140.000
 -12352128.45549  -9590238.03046  22448834.026    22448834.193    22448842.072
       217.000         169.000
 00  5 24 14 30 59.9970000  0  7G26G 4G 2G 9G 7G 5G24
   3480156.17149   2706479.35945  23623216.401    23623216.200    23623223.724
       216.000         159.000
 -10275976.19949  -7986772.30547  20528908.488    20528908.671    20528914.459
       239.000         202.000
    291158.34249    227929.35747  21252273.965    21252273.297    21252279.613
       236.000         200.000
  -8890428.45449  -6910113.19847  20863642.758    20863642.567    20863648.389
       240.000         206.000
    195292.46849    153675.07447  20361023.535    20361022.787    20361028.548
       240.000         209.000
  -1578155.91049   -932909.28845  23684605.548    23684605.039    23684613.156
       213.000         144.000
 -12489544.00349  -9697314.99746  22422684.585    22422684.820    22422692.719
       220.000         168.000
 00  5 24 14 31 29.9970000  0  7G26G 4G 2G 9G 7G 5G24
   3525530.59749   2741835.98345  23631850.880    23631850.692    23631858.267
       217.000         158.000
 -10373622.26749  -8062860.12547  20510327.139    20510327.262    20510333.029
       239.000         203.000
    304412.99649    238257.62147  21254796.276    21254795.624    21254801.940
       237.000         200.000
  -8971667.41749  -6973416.27047  20848183.483    20848183.302    20848189.102
       240.000         205.000
    208312.74049    163820.72447  20363501.225    20363500.466    20363506.221
       241.000         209.000
  -1695826.61849  -1024600.70245  23662213.347    23662212.987    23662221.082
       207.000         143.000
 -12626822.06849  -9804284.86846  22396561.402    22396561.622    22396569.500
       220.000         167.000
 00  5 24 14 31 59.9970000  0  7G26G 4G 2G 9G 7G 5G24
   3570965.91349   2777240.08345  23640496.934    23640496.812    23640504.500
       214.000         156.000
 -10470800.11049  -8138583.09647  20491834.806    20491834.919    20491840.678
       239.000         203.000
    317910.99949    248775.51147  21257364.820    21257364.213    21257370.571
       236.000         199.000
  -9052435.76849  -7036352.63147  20832813.765    20832813.577    20832819.384
       240.000         206.000
    221532.68449    174121.96647  20366016.869    20366016.160    20366021.938
       241.000         209.000
  -1813530.61349  -1116318.03445  23639815.007    23639814.558    23639822.721
       207.000         142.000
 -12763968.89149  -9911152.46446  22370463.304    22370463.401    22370471.214
       219.000         167.000
 00  5 24 14 32 29.9970000  0  7G26G 4G 2G 9G 7G 5G24
   3616431.79349   2812667.97745  23649148.854    23649148.763    23649156.491
       214.000         156.000
 -10567534.62449  -8213960.62347  20473426.747    20473426.933    20473432.706
       239.000         203.000
    331625.37449    259461.99847  21259974.626    21259973.984    21259980.365
       236.000         199.000
  -9132758.93449  -7098942.09747  20817528.844    20817528.614    20817534.400
       241.000         207.000
    234923.25749    184556.16447  20368565.028    20368564.303    20368570.127
       241.000         209.000
  -1931294.97749  -1208082.39945  23617405.182    23617404.808    23617412.806
       204.000         139.000
 -12901009.46949 -10017937.26446  22344385.256    22344385.364    22344393.230
       221.000         169.000
 00  5 24 14 32 59.9970000  0  7G26G 4G 2G 9G 7G 5G24
   3661934.81549   2848124.80645  23657807.932    23657807.822    23657815.513
       212.000         153.000
 -10663813.96149  -8288983.44947  20455105.381    20455105.564    20455111.375
       239.000         203.000
    345566.10749    270324.86947  21262627.497    21262626.850    21262633.277
       236.000         200.000
  -9212625.75249  -7161175.96047  20802330.641    20802330.443    20802336.236
       240.000         206.000
    248492.75049    195129.78347  20371147.206    20371146.518    20371152.357
       241.000         209.000
  -2049109.46549  -1299885.83645  23594985.807    23594985.338    23594993.495
       200.000         135.000
 -13037931.19049 -10124629.45846  22318329.926    22318330.007    22318337.933
       220.000         170.000
 00  5 24 14 33 29.9970000  0  7G26G 4G 2G 9G 7G 5G24
   3707474.58349   2883610.23845  23666473.828    23666473.760    23666481.520
       214.000         151.000
 -10759633.32149  -8363647.85147  20436871.537    20436871.741    20436877.575
       239.000         204.000
    359735.95549    281366.27047  21265323.987    21265323.342    21265329.772
       235.000         199.000
  -9292031.63849  -7223050.66547  20787220.244    20787220.013    20787225.793
       241.000         207.000
    262242.15049    205843.58947  20373763.657    20373762.959    20373768.800
       241.000         209.000
  -2166970.62449  -1391725.66245  23572557.252    23572556.905    23572565.195
       203.000         135.000
 -13174728.82949 -10231224.95746  22292298.274    22292298.266    22292306.151
       221.000         168.000
 00  5 24 14 33 59.9970000  0  7G26G 4G 2G 9G 7G 5G24
   3753057.28249   2919129.10745  23675147.857    23675147.827    23675155.725
       213.000         153.000
 -10854981.23049  -8437944.90747  20418727.483    20418727.659    20418733.467
       239.000         203.000
    374144.60849    292593.75547  21268065.800    21268065.218    21268071.681
       235.000         198.000
  -9370965.92949  -7284557.88547  20772199.487    20772199.281    20772205.107
       240.000         207.000
    276179.13449    216703.56047  20376415.819    20376415.121    20376420.961
       241.000         209.000
  -2284868.90349  -1483594.42545  23550122.117    23550121.619    23550129.687
       207.000         142.000
 -13311390.55849 -10337714.56446  22266292.245    22266292.289    22266300.157
       220.000         168.000
 00  5 24 14 34 29.9970000  0  7G26G 4G 2G 9G 7G 5G24
   3798686.34749   2954684.12245  23683830.835    23683830.793    23683838.754
       216.000         155.000
 -10949849.36249  -8511868.11647  20400674.710    20400674.848    20400680.629
       239.000         203.000
    388798.46449    304012.30747  21270854.402    21270853.784    21270860.233
       235.000         198.000
  -9449420.48349  -7345691.29347  20757270.140    20757269.887    20757275.688
       241.000         207.000
    290308.35149    227713.32847  20379104.565    20379103.853    20379109.689
       240.000         209.000
  -2402797.58149  -1575486.86945  23527681.034    23527680.566    23527688.572
       205.000         149.000
 -13447907.25949 -10444091.17146  22240313.926    22240313.962    22240321.764
       221.000         169.000
 00  5 24 14 34 59.9970000  0  7G26G 4G 2G 9G 7G 5G24
   3844355.91149   2990270.69445  23692521.719    23692521.546    23692529.532
       218.000         161.000
 -11044238.37049  -8585417.98047  20382713.110    20382713.211    20382718.983
       240.000         203.000
    403694.90249    315619.87647  21273689.167    21273688.511    21273694.960
       235.000         198.000
  -9527396.63849  -7406451.91847  20742431.730    20742431.512    20742437.285
       241.000         206.000
    304625.48749    238869.52847  20381829.039    20381828.330    20381834.172
       240.000         209.000
  -2520758.81049  -1667404.63445  23505233.754    23505233.272    23505241.359
       213.000         155.000
 -13584279.06349 -10550354.84146  22214363.304    22214363.246    22214371.030
       220.000         170.000
 00  5 24 14 35 29.9970000  0  7G26G 4G 2G 9G 7G 5G24
   3890058.31849   3025882.87746  23701218.754    23701218.547    23701226.609
       218.000         163.000
 -11138150.74449  -8658596.43947  20364842.177    20364842.290    20364848.052
       239.000         203.000
    418829.86149    327413.30547  21276569.271    21276568.626    21276575.090
       235.000         197.000
  -9604897.33049  -7466842.05247  20727683.794    20727683.595    20727689.369
       240.000         207.000
    319124.32149    250167.31247  20384588.058    20384587.357    20384593.225
       240.000         209.000
  -2638756.41249  -1759350.77845  23482779.681    23482779.104    23482787.207
       217.000         160.000
 -13720508.23449 -10656507.37546  22188439.784    22188439.641    22188447.441
       222.000         169.000
 00  5 24 14 35 59.9970000  0  7G26G 4G 2G 9G 7G 5G24
   3935787.06349   3061515.60345  23709920.744    23709920.542    23709928.611
       217.000         161.000
 -11231587.79249  -8731404.51847  20347061.693    20347061.801    20347067.540
       239.000         203.000
    434199.91249    339389.92247  21279494.187    21279493.489    21279499.956
       235.000         197.000
  -9681924.60649  -7526863.29047  20713025.919    20713025.763    20713031.578
       241.000         207.000
    333799.68549    261602.65147  20387380.720    20387380.002    20387385.865
       241.000         209.000
  -2756793.69949  -1851327.85245  23460317.770    23460317.342    23460325.360
       216.000         159.000
 -13856595.43249 -10762549.30646  22162543.310    22162543.118    22162550.736
       223.000         170.000
 00  5 24 14 36 29.9970000  0  7G26G 4G 2G 9G 7G 5G24
   3981555.47349   3097179.20845  23718630.291    23718630.076    23718638.099
       215.000         157.000
 -11324531.26149  -8803827.99547  20329375.103    20329375.229    20329380.967
       239.000         203.000
    449821.75949    351562.75247  21282466.941    21282466.272    21282472.741
       234.000         197.000
  -9758460.29249  -7586501.47547  20698461.674    20698461.515    20698467.311
       242.000         207.000
    348666.48549    273187.15347  20390209.745    20390209.081    20390214.969
       240.000         209.000
  -2874853.59449  -1943322.58245  23437851.737    23437851.294    23437859.314
       216.000         159.000
 -13992521.58449 -10868465.73946  22136677.293    22136677.220    22136684.742
       222.000         169.000
 00  5 24 14 36 59.9970000  0  7G26G 4G 2G 9G 7G 5G24
   4027342.17949   3132857.08645  23727343.159    23727343.086    23727351.129
       213.000         151.000
 -11416997.20749  -8875879.37847  20311779.403    20311779.542    20311785.256
       239.000         203.000
    465677.22949    363917.63247  21285484.131    21285483.475    21285490.006
       233.000         196.000
  -9834521.61549  -7645770.02147  20683987.688    20683987.510    20683993.295
       241.000         208.000
    363704.59749    284905.14347  20393071.424    20393070.756    20393076.637
       240.000         208.000
  -2992953.94249  -2035348.75945  23415377.960    23415377.512    23415385.644
       214.000         157.000
 -14128302.52449 -10974269.00946  22110838.904    22110838.927    22110846.437
       222.000         171.000
 00  5 24 14 37 29.9970000  0  7G26G 4G 2G 9G 7G 5G24
   4073146.30249   3168548.53445  23736059.440    23736059.332    23736067.450
       212.000         151.000
 -11508981.73649  -8947555.61947  20294275.310    20294275.478    20294281.161
       240.000         204.000
    481768.62949    376456.34247  21288546.187    21288545.577    21288552.163
       232.000         197.000
  -9910104.74749  -7704665.95247  20669604.733    20669604.525    20669610.319
       242.000         208.000
    378914.75149    296757.19347  20395965.809    20395965.139    20395971.045
       239.000         208.000
  -3111092.14349  -2127404.42345  23392896.911    23392896.536    23392904.699
       212.000         155.000
 -14263933.26349 -11079955.24546  22085029.242    22085029.221    22085036.672
       224.000         170.000
 00  5 24 14 37 59.9970000  0  7G26G 4G 2G 9G 7G 5G24
   4118962.68849   3204249.54445  23744777.951    23744777.923    23744786.045
       219.000         154.000
 -11600484.83149  -9018856.72847  20276862.881    20276863.012    20276868.670
       240.000         204.000
    498094.08049    389177.43147  21291652.837    21291652.205    21291658.849
       232.000         196.000
  -9985210.22849  -7763189.69547  20655312.666    20655312.444    20655318.217
       242.000         208.000
    394293.15949    308740.36147  20398892.227    20398891.554    20398897.439
       240.000         207.000
  -3229269.67449  -2219490.76345  23370408.420    23370408.078    23370416.156
       213.000         152.000
 -14399413.37649 -11185524.12346  22059248.253    22059248.202    22059255.597
       224.000         172.000
 00  5 24 14 38 29.9970000  0  7G26G 4G 2G 9G 7G 5G24
   4164786.16449   3239956.06545  23753498.064    23753497.923    23753505.973
       221.000         159.000
 -11691506.57149  -9089782.75547  20259542.028    20259542.166    20259547.790
       240.000         204.000
    514651.78849    402079.49947  21294803.635    21294803.027    21294809.731
       232.000         196.000
 -10059838.64949  -7821341.70247  20641111.369    20641111.145    20641116.873
       241.000         208.000
    409836.14949    320851.76947  20401849.970    20401849.299    20401855.155
       240.000         207.000
  -3347488.12349  -2311609.01145  23347912.230    23347911.812    23347919.773
       214.000         151.000
 -14534742.36349 -11290975.22846  22033495.992    22033495.913    22033503.321
       223.000         172.000
 00  5 24 14 38 59.9970000  0  7G26G 4G 2G 9G 7G 5G24
   4210645.64849   3275690.63045  23762224.915    23762224.769    23762232.915
       217.000         162.000
 -11782013.13849  -9160307.34247  20242319.210    20242319.335    20242324.949
       240.000         204.000
    531473.64549    415187.39847  21298004.788    21298004.146    21298010.841
       233.000         195.000
 -10133956.82649  -7879096.11247  20627007.089    20627006.878    20627012.649
       241.000         207.000
    425574.12349    333115.11647  20404844.819    20404844.153    20404850.007
       240.000         207.000
  -3465714.97249  -2403733.80145  23325414.399    23325414.024    23325421.973
       211.000         148.000
 -14669885.85849 -11396281.81146  22007779.005    22007778.906    22007786.350
       222.000         173.000
 00  5 24 14 39 29.9970000  0  7G26G 4G 2G 9G 7G 5G24
   4256508.21549   3311427.60145  23770952.432    23770952.244    23770960.372
       217.000         160.000
 -11872032.58749  -9230452.35447  20225189.108    20225189.227    20225194.819
       240.000         205.000
    548529.81149    428477.86247  21301250.565    21301249.854    21301256.571
       232.000         196.000
 -10207593.08349  -7936475.00247  20612994.558    20612994.377    20613000.132
       241.000         209.000
    441475.52449    345505.80647  20407870.734    20407870.077    20407875.959
       240.000         207.000
  -3583979.64549  -2495888.09345  23302909.259    23302908.897    23302917.021
       212.000         148.000
 -14804871.17249 -11501465.12646  21982091.954    21982092.011    21982099.458
       222.000         171.000
 00  5 24 14 39 59.9970000  0  7G26G 4G 2G 9G 7G 5G24
   4302362.83349   3347158.38145  23779678.461    23779678.133    23779686.316
       214.000         160.000
 -11961571.05849  -9300222.58047  20208150.543    20208150.634    20208156.243
       240.000         205.000
    565812.49249    441944.85047  21304539.399    21304538.694    21304545.412
       232.000         195.000
 -10280754.09749  -7993483.57347  20599072.491    20599072.302    20599078.084
       241.000         208.000
    457530.68149    358016.31047  20410925.897    20410925.265    20410931.179
       240.000         207.000
  -3702289.73749  -2588077.74645  23280395.620    23280395.207    23280403.297
       215.000         151.000
 -14939703.54049 -11606529.27646  21956434.211    21956434.225    21956441.647
       224.000         173.000
 00  5 24 14 40 29.9970000  0  7G26G 4G 2G 9G 7G 5G24
   4348219.47449   3382890.73145  23788404.870    23788404.512    23788412.771
       214.000         160.000
 -12050613.61649  -9369606.37847  20191206.243    20191206.392    20191212.023
       240.000         205.000
    583334.91049    455598.64147  21307873.835    21307873.156    21307879.870
       232.000         195.000
 -10353425.54349  -8050110.66247  20585243.619    20585243.404    20585249.138
       241.000         208.000
    473751.10249    370655.58547  20414012.561    20414011.922    20414017.849
       240.000         206.000
  -3820631.49849  -2680292.07845  23257876.034    23257875.572    23257883.579
       220.000         156.000
 -15074367.53049 -11711462.23246  21930808.646    21930808.530    21930815.889
       225.000         172.000
 00  5 24 14 40 59.9970000  0  7G26G 4G 2G 9G 7G 5G24
   4394084.14549   3418629.33045  23797132.696    23797132.356    23797140.768
       211.000         159.000
 -12139149.28649  -9438595.20047  20174358.434    20174358.622    20174364.253
       240.000         206.000
    601106.39449    469446.50047  21311255.711    21311255.018    21311261.701
       232.000         196.000
 -10425596.94749  -8106348.10447  20571509.857    20571509.624    20571515.346
       241.000         208.000
    490144.19549    383429.40247  20417132.050    20417131.418    20417137.350
       240.000         207.000
  -3938995.34349  -2772523.65145  23235352.112    23235351.671    23235359.529
       218.000         157.000
 -15208851.32849 -11816254.75746  21905217.403    21905217.115    21905224.486
       226.000         175.000
 00  5 24 14 41 29.9970000  0  7G26G 4G 2G 9G 7G 5G24
   4439954.85549   3454372.60845  23805861.653    23805861.316    23805869.832
       214.000         161.000
 -12227175.47749  -9507187.02247  20157607.580    20157607.788    20157613.407
       240.000         206.000
    619127.86249    483489.15747  21314685.118    21314684.431    21314691.117
       233.000         195.000
 -10497265.68349  -8162193.86247  20557871.770    20557871.536    20557877.186
       241.000         208.000
    506709.40749    396337.34147  20420284.321    20420283.678    20420289.590
       239.000         207.000
  -4057379.67849  -2864771.11745  23212824.121    23212823.812    23212831.724
       216.000         159.000
 -15343151.37449 -11920904.11746  21879660.951    21879660.681    21879668.039
       225.000         174.000
 00  5 24 14 41 59.9970000  0  7G26G 4G 2G 9G 7G 5G24
   4485818.09949   3490110.06645  23814589.276    23814588.914    23814597.480
       214.000         162.000
 -12314700.53549  -9575388.35847  20140952.100    20140952.318    20140957.927
       240.000         206.000
    637388.92749    497718.51247  21318160.139    21318159.442    21318166.139
       232.000         195.000
 -10568441.14549  -8217655.25147  20544327.535    20544327.283    20544332.932
       241.000         208.000
    523434.81549    409370.11347  20423467.103    20423466.437    20423472.343
       240.000         207.000
  -4175794.38249  -2957042.28645  23190290.593    23190290.206    23190298.099
       220.000         160.000
 -15477275.69949 -12025416.55646  21854137.982    21854137.676    21854145.006
       225.000         176.000
 00  5 24 14 42 29.9970000  0  7G26G 4G 2G 9G 7G 5G24
   4531670.38349   3525839.03645  23823314.684    23823314.410    23823322.958
       217.000         159.000
 -12401723.44149  -9643198.39547  20124392.219    20124392.405    20124398.037
       240.000         206.000
    655889.22849    512134.28247  21321680.694    21321679.970    21321686.678
       234.000         196.000
 -10639122.57449  -8272731.67947  20530877.328    20530877.057    20530882.687
       241.000         208.000
    540318.15749    422525.94747  20426679.916    20426679.254    20426685.157
       240.000         206.000
  -4294239.17849  -3049336.94345  23167751.370    23167750.945    23167758.763
       219.000         161.000
 -15611222.11649 -12129790.33246  21828648.750    21828648.488    21828655.880
       226.000         175.000
 00  5 24 14 42 59.9970000  0  7G26G 4G 2G 9G 7G 5G24
   4577519.27549   3561565.36645  23832039.485    23832039.245    23832047.741
       214.000         158.000
 -12488231.63249  -9710607.35647  20107930.225    20107930.433    20107936.107
       240.000         206.000
    674639.57049    526744.89647  21325248.832    21325248.083    21325254.788
       233.000         196.000
 -10709298.13049  -8327413.91847  20517523.327    20517523.086    20517528.734
       242.000         208.000
    557368.52049    435811.92847  20429924.551    20429923.852    20429929.744
       240.000         206.000
  -4412702.94049  -3141646.34645  23145208.461    23145208.050    23145215.775
       219.000         162.000
 -15744977.33849 -12234015.15746  21803195.792    21803195.659    21803203.062
       224.000         174.000
 00  5 24 14 43 29.9970000  0  7G26G 4G 2G 9G 7G 5G24
   4623357.54449   3597283.43545  23840762.143    23840762.005    23840770.545
       213.000         156.000
 -12574227.68049  -9777617.24947  20091565.691    20091565.914    20091571.616
       240.000         207.000
    693635.74749    541547.06147  21328863.786    21328862.986    21328869.689
       233.000         196.000
 -10778970.59949  -8381704.14547  20504265.085    20504264.852    20504270.516
       241.000         208.000
    574580.16049    449223.58647  20433199.805    20433199.123    20433205.013
       240.000         206.000
  -4531189.31049  -3233973.33645  23122661.295    23122660.800    23122668.507
       220.000         162.000
 -15878543.16449 -12338092.40246  21777778.950    21777778.876    21777786.289
       225.000         175.000
 00  5 24 14 43 59.9970000  0  7G26G 4G 2G 9G 7G 5G24
   4669167.29649   3632979.22245  23849479.486    23849479.373    23849487.931
       208.000         153.000
 -12659724.83949  -9844238.39747  20075296.163    20075296.372    20075302.079
       240.000         207.000
    712862.73249    556529.08447  21332522.660    21332521.833    21332528.501
       233.000         195.000
 -10848153.70749  -8435613.04947  20491099.943    20491099.721    20491105.413
       242.000         208.000
    591936.58849    462748.05847  20436502.636    20436501.964    20436507.836
       240.000         206.000
  -4649712.69549  -3326329.20046  23100107.119    23100106.582    23100114.212
       220.000         163.000
 -16011931.95749 -12442031.67946  21752395.939    21752395.787    21752403.291
       227.000         177.000
 00  5 24 14 44 29.9970000  0  7G26G 4G 2G 9G 7G 5G24
   4714940.65449   3668646.63645  23858189.790    23858189.819    23858198.363
       210.000         152.000
 -12744726.26749  -9910473.26147  20059120.951    20059121.128    20059126.867
       240.000         207.000
    732315.83149    571687.29447  21336224.488    21336223.678    21336230.348
       233.000         195.000
 -10916851.22249  -8489143.57747  20478027.231    20478027.012    20478032.673
       241.000         208.000
    609431.31149    476380.28247  20439831.749    20439831.100    20439836.961
       239.000         206.000
  -4768277.39149  -3418717.25545  23077545.077    23077544.520    23077551.993
       218.000         156.000
 -16145146.17849 -12545834.93346  21727046.022    21727045.935    21727053.461
       225.000         176.000
 00  5 24 14 44 59.9970000  0  7G26G 4G 2G 9G 7G 5G24
   4760692.26349   3704297.12745  23866896.138    23866896.102    23866904.739
       208.000         154.000
 -12829212.42249  -9976306.61347  20043043.827    20043043.971    20043049.705
       241.000         207.000
    752012.96249    587035.66747  21339972.761    21339971.970    21339978.623
       233.000         194.000
 -10985044.09749  -8542280.87147  20465050.499    20465050.325    20465055.991
       242.000         208.000
    627080.51149    490132.87947  20443190.349    20443189.675    20443195.511
       240.000         206.000
  -4886864.90549  -3511123.09945  23054978.378    23054977.957    23054985.413
       216.000         159.000
 -16278165.22849 -12649486.11346  21701733.320    21701733.212    21701740.768
       225.000         177.000
 00  5 24 14 45 29.9970000  0  7G26G 4G 2G 9G 7G 5G24
   4806414.82449   3739925.03645  23875596.913    23875596.830    23875605.533
       213.000         156.000
 -12913186.10549 -10041740.63847  20027064.139    20027064.312    20027070.068
       240.000         207.000
    771949.71849    602570.75847  21343766.670    21343765.844    21343772.516
       232.000         194.000
 -11052735.79049  -8595027.63747  20452169.205    20452169.023    20452174.703
       241.000         208.000
    644878.42749    504001.35847  20446577.244    20446576.537    20446582.361
       240.000         205.000
  -5005479.11249  -3603549.72846  23032406.945    23032406.465    23032413.889
       217.000         166.000
 -16410991.08049 -12752986.72746  21676457.427    21676457.276    21676464.914
       226.000         178.000
 00  5 24 14 45 59.9970000  0  7G26G 4G 2G 9G 7G 5G24
   4852119.14949   3775538.73045  23884294.328    23884294.211    23884302.951
       216.000         159.000
 -12996632.02849 -10106763.41847  20011184.926    20011185.064    20011190.831
       240.000         207.000
    792140.16149    618303.53347  21347608.777    21347607.982    21347614.658
       232.000         194.000
 -11119911.08949  -8647372.01947  20439386.129    20439385.966    20439391.632
       241.000         208.000
    662837.10749    517995.11647  20449994.652    20449993.965    20449999.796
       240.000         205.000
  -5124105.55049  -3695985.82746  23009833.052    23009832.583    23009840.077
       216.000         164.000
 -16543607.22949 -12856323.95846  21651221.266    21651221.210    21651228.883
       226.000         178.000
 00  5 24 14 46 29.9960000  0  7G26G 4G 2G 9G 7G 5G24
   4897814.27149   3811145.24345  23892990.090    23892989.830    23892998.612
       219.000         161.000
 -13079532.13749 -10171360.88547  19995409.580    19995409.706    19995415.451
       240.000         206.000
    812597.19049    634244.02547  21351501.601    21351500.863    21351507.566
       233.000         193.000
 -11186553.01149  -8699300.77947  20426704.663    20426704.444    20426710.064
       242.000         208.000
    680968.12749    532123.16647  20453444.799    20453444.190    20453450.041
       239.000         205.000
  -5242726.11349  -3788417.39345  22987260.268    22987259.790    22987267.298
       216.000         160.000
 -16675993.58149 -12959482.09846  21626028.939    21626028.898    21626036.574
       226.000         177.000
 00  5 24 14 46 59.9960000  0  7G26G 4G 2G 9G 7G 5G24
   4943480.23649   3846729.03045  23901680.252    23901679.922    23901688.682
       216.000         155.000
 -13161910.34549 -10235551.67347  19979733.526    19979733.647    19979739.390
       240.000         206.000
    833302.00849    650377.60847  21355441.646    21355440.912    21355447.609
       233.000         194.000
 -11252684.90449  -8750832.12047  20414120.170    20414119.972    20414125.566
       242.000         208.000
    699251.05249    546369.57447  20456923.937    20456923.320    20456929.216
       239.000         206.000
  -5361367.87649  -3880865.48045  22964683.521    22964683.070    22964690.520
       215.000         159.000
 -16808175.95549 -13062481.32246  21600875.454    21600875.411    21600883.074
       226.000         179.000
 00  5 24 14 47 29.9960000  0  7G26G 4G 2G 9G 7G 5G24
   4989118.69249   3882291.39545  23910364.919    23910364.659    23910373.434
       214.000         147.000
 -13243756.25849 -10299327.68547  19964158.743    19964158.896    19964164.603
       241.000         206.000
    854260.13249    666708.56647  21359429.959    21359429.171    21359435.862
       232.000         193.000
 -11318297.37749  -8801958.72147  20401634.569    20401634.358    20401639.888
       242.000         208.000
    717689.91449    560737.50147  20460432.777    20460432.151    20460438.014
       239.000         206.000
  -5480020.04049  -3973321.66545  22942104.698    22942104.239    22942111.655
       216.000         155.000
 -16940141.52949 -13165311.60546  21575763.179    21575763.160    21575770.828
       225.000         178.000
 00  5 24 14 47 59.9960000  0  8G16G26G 4G 2G 9G 7G 5G24
  -1034788.02759   -784282.50255  24165705.712    24165705.470    24165715.161
       209.000         151.000
   5034722.68149   3917826.87645  23919043.165    23919042.889    23919051.468
       212.000         139.000
 -13325072.30749 -10362690.81747  19948684.719    19948684.938    19948690.643
       240.000         206.000
    875467.64549    683233.85747  21363465.569    21363464.844    21363471.579
       232.000         193.000
 -11383393.17849  -8852682.71047  20389247.228    20389247.014    20389252.571
       242.000         209.000
    736279.17949    575222.62747  20463970.266    20463969.597    20463975.472
       240.000         206.000
  -5598686.04049  -4065788.64145  22919523.451    22919522.868    22919530.314
       217.000         158.000
 -17071891.71849 -13267974.04946  21550691.911    21550691.924    21550699.555
       226.000         179.000
 00  5 24 14 48 29.9960000  0  8G16G26G 4G 2G 9G 7G 5G24
  -1122683.69549   -852772.60445  24148979.829    24148979.451    24148989.156
       211.000         151.000
   5080291.46849   3953334.94645  23927714.630    23927714.355    23927722.866
       209.000         132.000
 -13405854.65449 -10425638.08247  19933312.330    19933312.548    19933318.227
       240.000         206.000
    896926.83449    699955.25047  21367549.177    21367548.434    21367555.183
       232.000         192.000
 -11447968.96749  -8903001.49547  20376958.840    20376958.634    20376964.187
       241.000         209.000
    755019.70649    589825.61147  20467536.520    20467535.841    20467541.710
       240.000         206.000
  -5717362.88049  -4158264.03445  22896939.615    22896939.259    22896946.851
       215.000         159.000
 -17203421.62049 -13370464.84446  21525662.503    21525662.598    21525670.191
       226.000         179.000
 00  5 24 14 48 59.9960000  0  8G16G26G 4G 2G 9G 7G 5G24
  -1210315.38449   -921057.01345  24132304.247    24132303.737    24132313.447
       209.000         154.000
   5125830.18149   3988819.57244  23936380.294    23936380.085    23936388.466
       209.000         131.000
 -13486093.93649 -10488162.17447  19918043.255    19918043.495    19918049.168
       241.000         206.000
    918645.74649    716879.03447  21371682.286    21371681.478    21371688.203
       233.000         192.000
 -11512015.85449  -8952908.15647  20364771.044    20364770.910    20364776.467
       242.000         209.000
    773917.92349    604551.47947  20471132.830    20471132.085    20471137.924
       240.000         205.000
  -5836041.90449  -4250741.14546  22874355.799    22874355.413    22874363.048
       221.000         163.000
 -17334720.88649 -13472775.92446  21500677.179    21500677.197    21500684.692
       227.000         180.000
 00  5 24 14 49 29.9960000  0  8G16G26G 4G 2G 9G 7G 5G24
  -1297683.93349   -989136.40845  24115678.297    24115678.015    24115687.675
       212.000         150.000
   5171332.13749   4024275.57445  23945039.072    23945038.913    23945047.356
       208.000         137.000
 -13565792.07549 -10550264.59847  19902877.167    19902877.434    19902883.081
       241.000         206.000
    940620.62149    734002.26647  21375863.960    21375863.183    21375869.946
       232.000         192.000
 -11575536.36649  -9002404.64647  20352683.495    20352683.342    20352688.960
       242.000         209.000
    792968.62449    619396.15947  20474758.043    20474757.336    20474763.153
       240.000         206.000
  -5954726.03249  -4343222.31245  22851771.115    22851770.612    22851778.139
       221.000         156.000
 -17465790.62449 -13574908.15346  21475735.455    21475735.435    21475742.839
       227.000         180.000
 00  5 24 14 49 59.9960000  0  8G16G26G 4G 2G 9G 7G 5G24
  -1384777.86849  -1057001.84245  24099104.968    24099104.639    24099114.243
       215.000         152.000
   5216803.12649   4059707.48145  23953691.956    23953691.764    23953700.338
       209.000         140.000
 -13644939.09149 -10611937.57747  19887815.992    19887816.253    19887821.872
       241.000         206.000
    962860.22249    751331.77447  21380096.026    21380095.270    21380102.045
       232.000         192.000
 -11638520.58849  -9051483.25847  20340697.963    20340697.825    20340703.442
       241.000         209.000
    812178.95949    634365.22747  20478413.723    20478412.975    20478418.757
       240.000         206.000
  -6073405.78949  -4435699.98245  22829186.870    22829186.528    22829194.119
       215.000         158.000
 -17596619.42349 -13676852.63346  21450839.541    21450839.512    21450846.922
       227.000         180.000
 00  5 24 14 50 29.9960000  0  8G16G26G 4G 2G 9G 7G 5G24
  -1471593.71049  -1124650.53545  24082584.644    24082584.200    24082593.597
       215.000         153.000
   5262241.31749   4095113.74645  23962338.485    23962338.423    23962347.043
       210.000         142.000
 -13723532.57849 -10673179.24147  19872860.129    19872860.412    19872865.990
       240.000         206.000
    985365.57049    768868.35247  21384378.753    21384377.949    21384384.694
       233.000         192.000
 -11700966.43949  -9100142.35547  20328814.873    20328814.762    20328820.410
       242.000         210.000
    831548.68649    649458.49847  20482099.665    20482098.924    20482104.717
       240.000         206.000
  -6192079.59249  -4528173.00745  22806603.985    22806603.606    22806611.190
       221.000         162.000
 -17727203.67949 -13778606.55746  21425990.194    21425990.118    21425997.567
       228.000         181.000
 00  5 24 14 50 59.9960000  0  8G16G26G 4G 2G 9G 7G 5G24
  -1558131.48049  -1192082.56745  24066117.109    24066116.571    24066125.998
       210.000         153.000
   5307640.88849   4130489.92845  23970977.826    23970977.728    23970986.262
       208.000         142.000
 -13801573.65149 -10733990.44847  19858009.466    19858009.685    19858015.254
       240.000         206.000
   1008133.76449    786609.75947  21388711.506    21388710.667    21388717.374
       233.000         192.000
 -11762876.00549  -9148383.56647  20317033.890    20317033.773    20317039.432
       242.000         209.000
    851073.50649    664672.62347  20485815.142    20485814.405    20485820.207
       240.000         207.000
  -6310749.36749  -4620642.94146  22784021.999    22784021.578    22784028.914
       220.000         163.000
 -17857543.92549 -13880170.33546  21401187.279    21401187.161    21401194.677
       226.000         181.000
 00  5 24 14 51 29.9960000  0  8G16G26G 4G 2G 9G 7G 5G24
  -1644412.57149  -1259314.54945  24049698.434    24049697.751    24049707.288
       212.000         153.000
   5352974.90149   4165814.99045  23979604.666    23979604.576    23979613.108
       210.000         146.000
 -13879085.23849 -10794389.07247  19843259.494    19843259.719    19843265.279
       240.000         206.000
   1031140.72649    804537.21647  21393089.595    21393088.793    21393095.475
       233.000         193.000
 -11824272.24449  -9196224.77847  20305350.610    20305350.458    20305356.096
       242.000         209.000
    870727.86049    679987.67747  20489555.246    20489554.516    20489560.354
       240.000         206.000
  -6429438.31849  -4713127.78046  22761436.199    22761435.771    22761443.127
       220.000         164.000
 -17987661.42849 -13981560.55146  21376426.620    21376426.568    21376434.136
       227.000         182.000
 00  5 24 14 51 59.9960000  0  8G16G26G 4G 2G 9G 7G 5G24
  -1730422.59049  -1326335.28245  24033331.029    24033330.609    24033340.105
       207.000         152.000
   5398251.95949   4201095.74145  23988220.759    23988220.535    23988229.161
       214.000         151.000
 -13956054.26849 -10854364.92547  19828612.751    19828613.006    19828618.561
       241.000         206.000
   1054397.98449    822659.71047  21397515.345    21397514.551    21397521.244
       234.000         193.000
 -11885142.59949  -9243656.21447  20293767.378    20293767.217    20293772.853
       242.000         210.000
    890521.81949    695411.51847  20493321.881    20493321.195    20493327.067
       240.000         207.000
  -6548134.14749  -4805617.99146  22738849.116    22738848.714    22738856.056
       221.000         168.000
 -18117542.45049 -14082766.51246  21351711.011    21351711.010    21351718.600
       229.000         183.000
 00  5 24 14 52 29.9960000  0  8G16G26G 4G 2G 9G 7G 5G24
  -1816145.96249  -1393132.67145  24017018.326    24017017.929    24017027.629
       205.000         146.000
   5443482.25249   4236340.04345  23996828.103    23996827.767    23996836.339
       216.000         154.000
 -14032466.37149 -10913906.79847  19814072.091    19814072.269    19814077.822
       240.000         207.000
   1077918.52749    840987.36047  21401991.251    21401990.417    21401997.126
       232.000         192.000
 -11945473.34749  -9290667.17447  20282286.801    20282286.642    20282292.294
       242.000         209.000
    910466.80649    710953.04047  20497117.347    20497116.637    20497122.513
       240.000         206.000
  -6666822.96049  -4898102.70246  22716263.340    22716262.950    22716270.349
       221.000         166.000
 -18247171.37749 -14183776.03046  21327043.426    21327043.425    21327050.990
       229.000         183.000
 00  5 24 14 52 59.9960000  0  8G16G26G 4G 2G 9G 7G 5G24
  -1901581.25649  -1459705.56445  24000760.559    24000760.095    24000769.826
       206.000         146.000
   5488661.79749   4271544.76845  24005425.721    24005425.332    24005433.859
       215.000         153.000
 -14108321.39449 -10973014.59047  19799637.320    19799637.530    19799643.079
       240.000         207.000
   1101701.29349    859519.33047  21406516.986    21406516.177    21406522.893
       233.000         192.000
 -12005264.33949  -9337257.54847  20270908.923    20270908.780    20270914.434
       242.000         209.000
    930560.46749    726610.42247  20500941.130    20500940.382    20500946.245
       240.000         206.000
  -6785505.57749  -4990582.57046  22693678.951    22693678.455    22693685.795
       218.000         164.000
 -18376546.69049 -14284587.91446  21302424.165    21302424.101    21302431.684
       229.000         184.000
 00  5 24 14 53 29.9960000  0  8G16G26G 4G 2G 9G 7G 5G24
  -1986728.73349  -1526054.23045  23984557.376    23984557.035    23984566.627
       208.000         144.000
   5533784.41349   4306705.15645  24014012.306    24014011.993    24014020.469
       213.000         151.000
 -14183621.34449 -11031689.85547  19785308.184    19785308.396    19785313.975
       242.000         207.000
   1125743.03249    878253.10047  21411092.060    21411091.231    21411097.943
       232.000         192.000
 -12064518.24849  -9383429.42347  20259633.312    20259633.133    20259638.768
       242.000         210.000
    950798.08449    742379.97847  20504792.295    20504791.529    20504797.376
       240.000         206.000
  -6904184.13149  -5083059.35446  22671095.180    22671094.707    22671101.884
       221.000         166.000
 -18505669.08549 -14385202.73246  21277852.840    21277852.895    21277860.469
       229.000         184.000
 00  5 24 14 53 59.9960000  0  8G16G26G 4G 2G 9G 7G 5G24
  -2071585.66549  -1592176.45045  23968409.797    23968409.399    23968418.860
       209.000         145.000
   5578847.56349   4341819.20645  24022587.523    24022587.331    24022595.751
       214.000         150.000
 -14258364.37749 -11089931.15847  19771085.111    19771085.268    19771090.869
       241.000         207.000
   1150044.15149    897188.98947  21415716.444    21415715.627    21415722.357
       232.000         192.000
 -12123233.80449  -9429181.80047  20248460.094    20248459.942    20248465.572
       242.000         210.000
    971178.47549    758260.78247  20508670.559    20508669.818    20508675.687
       240.000         207.000
  -7022857.76449  -5175532.25146  22648512.221    22648511.796    22648518.956
       222.000         165.000
 -18634535.78349 -14485618.29946  21253330.372    21253330.365    21253337.899
       231.000         185.000
 00  5 24 14 54 29.9960000  0  8G16G26G 4G 2G 9G 7G 5G24
  -2156140.11549  -1658063.01145  23952319.478    23952319.106    23952328.594
       211.000         146.000
   5623857.53849   4376891.78845  24031152.692    24031152.533    24031160.915
       213.000         149.000
 -14332540.24349 -11147730.51247  19756969.830    19756970.038    19756975.683
       242.000         207.000
   1174613.63749    916333.99747  21420391.899    21420391.095    21420397.819
       232.000         191.000
 -12181400.82649  -9474506.74747  20237391.315    20237391.123    20237396.751
       242.000         210.000
    991709.45049    774258.92247  20512577.519    20512576.766    20512582.654
       240.000         206.000
  -7141516.49249  -5267993.56346  22625932.086    22625931.740    22625938.848
       223.000         169.000
 -18763135.12949 -14585825.53246  21228858.767    21228858.707    21228866.234
       230.000         184.000
 00  5 24 14 54 59.9960000  0  8G16G26G 4G 2G 9G 7G 5G24
  -2240407.53449  -1723725.90045  23936283.987    23936283.632    23936292.978
       212.000         142.000
   5668793.59349   4411906.79045  24039703.800    24039703.630    24039712.046
       210.000         146.000
 -14406165.49349 -11205100.81747  19742959.457    19742959.624    19742965.265
       242.000         207.000
   1199433.54449    935674.14147  21425114.973    21425114.192    21425120.921
       231.000         190.000
 -12239036.51149  -9519417.66747  20226423.626    20226423.442    20226429.081
       242.000         211.000
   1012371.74649    790359.38947  20516509.419    20516508.692    20516514.592
       240.000         206.000
  -7260177.17749  -5360456.40346  22603351.693    22603351.332    22603358.513
       222.000         169.000
 -18891482.63249 -14685836.53946  21204435.070    21204434.984    21204442.482
       231.000         185.000
 00  5 24 14 55 29.9960000  0  8G16G26G 4G 2G 9G 7G 5G24
  -2324360.03349  -1789143.36645  23920308.324    23920308.003    23920317.310
       211.000         146.000
   5713677.87249   4446881.45145  24048245.170    24048244.899    24048253.348
       208.000         141.000
 -14479213.84449 -11262021.58647  19729058.775    19729058.980    19729064.626
       242.000         208.000
   1224528.77049    955228.81347  21429890.539    21429889.703    21429896.427
       231.000         190.000
 -12296115.08049  -9563894.46947  20215561.940    20215561.759    20215567.408
       242.000         211.000
   1033188.97749    806580.58647  20520470.790    20520470.087    20520476.013
       239.000         206.000
  -7378813.94049  -5452900.61046  22580775.692    22580775.438    22580782.704
       223.000         167.000
 -19019550.71049 -14785629.80446  21180064.562    21180064.422    21180071.926
       231.000         185.000
 00  5 24 14 55 59.9960000  0  8G16G26G 4G 2G 9G 7G 5G24
  -2408011.60949  -1854326.34945  23904389.979    23904389.587    23904398.833
       211.000         144.000
   5758491.30249   4481800.93045  24056772.849    24056772.700    24056781.141
       207.000         137.000
 -14551700.66149 -11318504.79747  19715264.955    19715265.169    19715270.871
       242.000         208.000
   1249882.79649    974985.14847  21434715.206    21434714.437    21434721.210
       230.000         191.000
 -12352651.86049  -9607949.08847  20204803.326    20204803.162    20204808.838
       242.000         211.000
   1054143.17449    822908.50747  20524458.184    20524457.537    20524463.496
       239.000         206.000
  -7497442.28349  -5545338.21146  22558201.442    22558201.144    22558208.434
       223.000         166.000
 -19147353.03249 -14885215.99946  21155744.547    21155744.433    21155751.896
       231.000         185.000
 00  5 24 14 56 29.9960000  0  8G16G26G 4G 2G 9G 7G 5G24
  -2491365.13849  -1919277.09645  23888528.135    23888527.880    23888537.330
       210.000         149.000
   5803225.16049   4516658.39245  24065285.259    24065285.272    24065293.748
       207.000         135.000
 -14623630.37249 -11374553.90347  19701577.148    19701577.392    19701583.098
       241.000         208.000
   1275489.91849    994938.70847  21439588.064    21439587.345    21439594.168
       230.000         191.000
 -12408651.67849  -9651585.30347  20194146.902    20194146.755    20194152.455
       242.000         211.000
   1075227.61349    839337.91447  20528470.447    20528469.784    20528475.759
       240.000         206.000
  -7616066.96849  -5637772.97945  22535627.994    22535627.619    22535634.925
       224.000         161.000
 -19274893.15749 -14984597.86546  21131474.475    21131474.324    21131481.806
       231.000         184.000
 00  5 24 14 56 59.9960000  0  8G16G26G 4G 2G 9G 7G 5G24
  -2574422.08249  -1983996.72145  23872722.917    23872722.639    23872732.062
       210.000         147.000
   5847872.86049   4551448.73845  24073781.536    24073781.530    24073790.030
       208.000         137.000
 -14695005.50249 -11430170.87247  19687994.880    19687995.143    19688000.859
       242.000         208.000
   1301346.45949   1015086.61547  21444508.340    21444507.693    21444514.558
       230.000         190.000
 -12464117.73449  -9694805.60147  20183592.104    20183591.923    20183597.603
       242.000         211.000
   1096436.75349    855864.48847  20532506.483    20532505.792    20532511.765
       240.000         206.000
  -7734691.14649  -5730207.39445  22513054.602    22513054.177    22513061.289
       222.000         160.000
 -19402172.15549 -15083776.28646  21107254.072    21107253.921    21107261.356
       231.000         185.000
 00  5 24 14 57 29.9960000  0  8G16G26G 4G 2G 9G 7G 5G24
  -2657155.66249  -2048464.39045  23856979.383    23856978.873    23856988.463
       210.000         149.000
   5892455.48949   4586188.35845  24082265.419    24082265.334    24082273.984
       213.000         136.000
 -14765801.40649 -11485336.49247  19674522.806    19674523.108    19674528.840
       242.000         208.000
   1327475.98949   1035447.23347  21449480.631    21449479.992    21449486.884
       231.000         189.000
 -12519025.35749  -9737590.75447  20173143.529    20173143.355    20173149.023
       242.000         211.000
   1117793.34449    872505.96947  20536570.536    20536569.842    20536575.815
       239.000         205.000
  -7853290.28349  -5822622.29645  22490485.884    22490485.453    22490492.525
       220.000         160.000
 -19529164.02449 -15182730.95846  21083088.236    21083088.150    21083095.570
       231.000         185.000
 00  5 24 14 57 59.9960000  0  8G16G26G 4G 2G 9G 7G 5G24
  -2739562.82749  -2112677.67645  23841297.653    23841297.255    23841306.768
       204.000         142.000
   5936971.08549   4620875.75345  24090736.481    24090736.385    24090744.952
       211.000         138.000
 -14836015.81749 -11540048.99747  19661161.468    19661161.730    19661167.489
       242.000         208.000
   1353879.34949   1056021.23647  21454505.072    21454504.425    21454511.307
       231.000         189.000
 -12573373.15349  -9779939.69047  20162801.520    20162801.328    20162806.976
       243.000         211.000
   1139296.84949    889261.92347  20540662.525    20540661.836    20540667.813
       239.000         205.000
  -7971862.37549  -5915016.05145  22467922.058    22467921.807    22467928.978
       216.000         159.000
 -19655864.98649 -15281458.95946  21058977.812    21058977.727    21058985.115
       230.000         185.000
 00  5 24 14 58 29.9960000  0  8G16G26G 4G 2G 9G 7G 5G24
  -2821642.54549  -2176635.79445  23825678.322    23825677.913    23825687.466
       210.000         144.000
   5981414.81949   4655507.14845  24099193.898    24099193.828    24099202.357
       211.000         137.000
 -14905649.54449 -11594309.02947  19647910.598    19647910.861    19647916.625
       242.000         208.000
   1380554.22049   1076806.80147  21459581.163    21459580.534    21459587.420
       230.000         189.000
 -12627162.34549  -9821853.34547  20152565.775    20152565.586    20152571.231
       243.000         211.000
   1160943.80849    906129.65347  20544781.871    20544781.151    20544787.126
       240.000         205.000
  -8090408.46949  -6007389.56446  22445363.574    22445363.247    22445370.352
       221.000         164.000
 -19782274.87249 -15379960.14246  21034922.722    21034922.698    21034930.109
       231.000         186.000
 00  5 24 14 58 59.9960000  0  8G16G26G 4G 2G 9G 7G 5G24
  -2903396.70449  -2240340.28545  23810121.189    23810120.649    23810130.084
       208.000         142.000
   6025779.81349   4690077.12045  24107636.434    24107636.309    24107644.839
       209.000         137.000
 -14974705.99549 -11648119.23947  19634769.613    19634769.854    19634775.597
       242.000         208.000
   1407496.43249   1097800.68247  21464708.115    21464707.505    21464714.395
       230.000         188.000
 -12680396.28349  -9863334.33447  20142435.769    20142435.536    20142441.171
       243.000         211.000
   1182728.65349    923104.82847  20548927.461    20548926.709    20548932.636
       240.000         205.000
  -8208932.21849  -6099745.72946  22422809.259    22422808.920    22422815.893
       221.000         164.000
 -19908395.38149 -15478235.83546  21010922.854    21010922.772    21010930.154
       233.000         187.000
 00  5 24 14 59 29.9960000  0  8G16G26G 4G 2G 9G 7G 5G24
  -2984811.00149  -2303779.96245  23794628.662    23794628.062    23794637.317
       211.000         150.000
   6070074.77949   4724592.58545  24116065.713    24116065.476    24116073.754
       201.000         132.000
 -15043172.30549 -11701469.59347  19621740.957    19621741.160    19621746.855
       242.000         208.000
   1434717.63249   1119011.94047  21469888.183    21469887.576    21469894.462
       230.000         188.000
 -12733062.65549  -9904373.06347  20132413.626    20132413.462    20132419.081
       243.000         211.000
   1204661.94349    940195.68047  20553101.296    20553100.526    20553106.447
       240.000         205.000
  -8327420.79949  -6192074.44246  22400261.673    22400261.283    22400268.240
       220.000         166.000
 -20034212.32749 -15576274.97247  20986980.748    20986980.604    20986987.976
       231.000         188.000
 00  5 24 14 59 59.9960000  0  8G16G26G 4G 2G 9G 7G 5G24
  -3065878.56949  -2366949.37345  23779202.012    23779201.391    23779210.704
       209.000         149.000
   6114301.23349   4759054.67144  24124481.466    24124481.376    24124489.795
       196.000         129.000
 -15111043.29049 -11754356.06047  19608825.505    19608825.725    19608831.420
       242.000         207.000
   1462221.97749   1140443.83846  21475122.208    21475121.545    21475128.406
       230.000         187.000
 -12785156.97949  -9944966.04347  20122500.467    20122500.269    20122505.867
       243.000         211.000
   1226746.50049    957404.40447  20557303.832    20557303.114    20557309.001
       240.000         205.000
  -8445868.94349  -6284371.68046  22377721.758    22377721.349    22377728.265
       221.000         165.000
 -20159719.07649 -15674072.39847  20963097.563    20963097.430    20963104.812
       232.000         188.000
 00  5 24 15  0 29.9960000  0  8G16G26G 4G 2G 9G 7G 5G24
  -3146583.35449  -2429836.13945  23763844.369    23763843.743    23763853.095
       211.000         151.000
   6158469.92549   4793471.78845  24132886.439    24132886.409    24132894.995
       198.000         135.000
 -15178304.42349 -11806767.31947  19596026.140    19596026.352    19596032.002
       242.000         207.000
   1490022.84449   1162106.78646  21480412.569    21480411.913    21480418.792
       230.000         187.000
 -12836664.69649  -9985101.91947  20112698.838    20112698.678    20112704.288
       243.000         211.000
   1248994.43749    974740.43947  20561537.501    20561536.791    20561542.669
       240.000         204.000
  -8564262.21249  -6376626.12346  22355192.175    22355191.779    22355198.757
       222.000         166.000
 -20284899.51749 -15771615.56247  20939276.468    20939276.383    20939283.725
       232.000         188.000
 00  5 24 15  0 59.9960000  0  8G16G26G 4G 2G 9G 7G 5G24
  -3226930.20849  -2492444.03845  23748554.595    23748554.213    23748563.608
       208.000         151.000
   6202571.04349   4827836.19245  24141278.690    24141278.644    24141287.390
       198.000         138.000
 -15244961.65649 -11858708.00447  19583341.632    19583341.875    19583347.515
       242.000         206.000
   1518112.90149   1183995.09046  21485758.049    21485757.357    21485764.201
       230.000         187.000
 -12887592.27449 -10024785.74147  20103007.676    20103007.492    20103013.082
       243.000         212.000
   1271397.35049    992197.23847  20565800.609    20565799.927    20565805.821
       239.000         204.000
  -8682606.88349  -6468842.72946  22332671.930    22332671.507    22332678.437
       220.000         169.000
 -20409758.46249 -15868908.21347  20915516.537    20915516.477    20915523.829
       232.000         189.000
 00  5 24 15  1 29.9960000  0  8G16G26G 4G 2G 9G 7G 5G24
  -3306945.46049  -2554793.50045  23733327.985    23733327.706    23733337.257
       212.000         152.000
   6246572.44049   4862122.89345  24149651.891    24149651.891    24149660.810
       202.000         141.000
 -15311043.74049 -11910200.52647  19570766.604    19570766.857    19570772.453
       241.000         206.000
   1546462.74049   1206085.82346  21491152.977    21491152.212    21491159.047
       230.000         187.000
 -12937968.72049 -10064040.11047  20093421.385    20093421.200    20093426.749
       243.000         211.000
   1293924.56249   1009750.89247  20570087.417    20570086.729    20570092.647
       239.000         205.000
  -8800931.24449  -6561043.50846  22310155.660    22310155.129    22310162.061
       226.000         172.000
 -20534322.85449 -15965971.33547  20891812.691    20891812.613    20891819.967
       233.000         189.000
 00  5 24 15  1 59.9960000  0  8G16G26G 4G 2G 9G 7G 5G24
  -3386614.91549  -2616873.56445  23718167.246    23718167.052    23718176.641
       212.000         146.000
   6290483.38849   4896339.06445  24158008.026    24158008.038    24158016.927
       205.000         141.000
 -15376537.58749 -11961234.67847  19558303.516    19558303.777    19558309.357
       241.000         206.000
   1575084.01949   1228388.06946  21496599.400    21496598.695    21496605.584
       229.000         187.000
 -12987781.44749 -10102855.21847  20083942.336    20083942.157    20083947.681
       243.000         211.000
   1316586.82249   1027409.77747  20574399.833    20574399.211    20574405.191
       238.000         204.000
  -8919222.38549  -6653218.37646  22287645.464    22287645.035    22287652.098
       220.000         170.000
 -20658578.30249 -16062793.72847  20868167.633    20868167.558    20868174.906
       232.000         189.000
 00  5 24 15  2 29.9960000  0  8G16G26G 4G 2G 9G 7G 5G24
  -3465936.68349  -2678682.70445  23703072.737    23703072.488    23703082.191
       211.000         148.000
   6334300.50949   4930482.14545  24166346.340    24166346.326    24166355.214
       209.000         144.000
 -15441443.01549 -12011810.32547  19545952.447    19545952.662    19545958.229
       241.000         206.000
   1603975.92349   1250901.18546  21502097.336    21502096.673    21502103.593
       229.000         186.000
 -13037030.52249 -10141231.12247  20074570.552    20074570.376    20074575.867
       242.000         211.000
   1339382.23849   1045172.41447  20578737.590    20578737.005    20578743.057
       238.000         204.000
  -9037479.91449  -6745367.06246  22265141.820    22265141.360    22265148.363
       227.000         172.000
 -20782523.05849 -16159374.02347  20844581.639    20844581.618    20844588.993
       232.000         190.000
 00  5 24 15  2 59.9960000  0  8G16G26G 4G 2G 9G 7G 5G24
  -3544890.79749  -2740205.34045  23688048.198    23688047.969    23688057.619
       215.000         147.000
   6378038.75849   4964563.73045  24174669.495    24174669.497    24174678.518
       201.000         139.000
 -15505741.42549 -12061912.96847  19533716.837    19533717.060    19533722.622
       241.000         206.000
   1633155.87849   1273638.75646  21507650.157    21507649.462    21507656.409
       228.000         186.000
 -13085697.81149 -10179153.68447  20065309.455    20065309.288    20065314.799
       243.000         211.000
   1362327.17849   1063051.56647  20583103.870    20583103.297    20583109.366
       239.000         204.000
  -9155685.41149  -6837475.23746  22242648.215    22242647.667    22242654.592
       225.000         173.000
 -20906136.73449 -16255696.32647  20821058.747    20821058.682    20821066.049
       234.000         191.000
 00  5 24 15  3 29.9960000  0  8G16G26G 4G 2G 9G 7G 5G24
  -3623489.97249  -2801451.48145  23673091.417    23673091.088    23673100.577
       213.000         146.000
   6421679.68849   4998569.54445  24182974.158    24182974.182    24182983.298
       203.000         135.000
 -15569447.67249 -12111554.18447  19521593.979    19521594.167    19521599.729
       241.000         206.000
   1662608.27949   1296588.61446  21513254.724    21513254.115    21513261.103
       228.000         186.000
 -13133798.27449 -10216634.57147  20056156.250    20056156.086    20056161.559
       243.000         210.000
   1385404.79049   1081034.09047  20587495.447    20587494.838    20587500.927
       239.000         204.000
  -9273853.30049  -6929554.06746  22220161.413    22220160.969    22220167.993
       223.000         169.000
 -21029432.82049 -16351771.14047  20797596.305    20797596.214    20797603.575
       234.000         191.000
 00  5 24 15  3 59.9960000  0  8G16G26G 4G 2G 9G 7G 5G24
  -3701706.97749  -2862399.75545  23658207.283    23658206.872    23658216.331
       214.000         146.000
   6465245.53149   5032516.86444  24191264.529    24191264.468    24191273.622
       197.000         130.000
 -15632535.84349 -12160713.78147  19509588.664    19509588.879    19509594.441
       242.000         206.000
   1692357.63849   1319769.87546  21518915.721    21518915.194    21518922.242
       227.000         185.000
 -13181306.62949 -10253654.06747  20047115.678    20047115.520    20047120.982
       243.000         210.000
   1408638.45949   1099138.22747  20591916.689    20591916.075    20591922.177
       238.000         204.000
  -9391957.76749  -7021583.48046  22197686.803    22197686.393    22197693.458
       222.000         170.000
 -21152383.98949 -16447577.20647  20774199.429    20774199.346    20774206.691
       233.000         190.000
 00  5 24 15  4 29.9960000  0  8G16G26G 4G 2G 9G 7G 5G24
  -3779549.24049  -2923056.09145  23643394.451    23643394.012    23643403.337
       212.000         151.000
   6508723.67048   5066395.80944  24199538.182    24199538.064    24199547.338
       194.000         128.000
 -15695015.33649 -12209399.08947  19497699.152    19497699.416    19497704.957
       241.000         207.000
   1722393.88549   1343174.69046  21524631.490    21524630.922    21524638.000
       227.000         185.000
 -13228232.30749 -10290219.53147  20038186.005    20038185.867    20038191.282
       243.000         210.000
   1432017.35149   1117355.51247  20596365.508    20596364.950    20596371.063
       237.000         203.000
  -9510007.50449  -7113570.24346  22175222.709    22175222.268    22175229.298
       222.000         169.000
 -21274997.72849 -16543120.33847  20750866.701    20750866.676    20750874.002
       234.000         191.000
 00  5 24 15  4 59.9960000  0  8G16G26G 4G 2G 9G 7G 5G24
  -3857015.56849  -2983419.40845  23628652.943    23628652.563    23628661.930
       211.000         151.000
   6552110.31349   5100203.43144  24207794.231    24207793.965    24207803.813
       195.000         123.000
 -15756886.22549 -12257610.16147  19485925.508    19485925.763    19485931.308
       239.000         207.000
   1752716.07249   1366802.30746  21530401.667    21530401.073    21530408.215
       227.000         185.000
 -13274576.09349 -10326331.57147  20029367.129    20029366.946    20029372.315
       243.000         210.000
   1455538.86349   1135683.94147  20600841.568    20600840.967    20600847.065
       237.000         202.000
  -9628002.86049  -7205514.61846  22152768.764    22152768.421    22152775.480
       222.000         169.000
 -21397272.87349 -16638399.64147  20727598.481    20727598.476    20727605.762
       234.000         191.000
 00  5 24 15  5 29.9960000  0  8G16G26G 4G 2G 9G 7G 5G24
  -3934086.15649  -3043474.40345  23613986.839    23613986.411    23613995.842
       211.000         151.000
   6595420.08349   5133951.14944  24216035.895    24216035.638    24216045.626
       199.000         128.000
 -15818130.76349 -12305333.16347  19474271.050    19474271.306    19474276.839
       240.000         207.000
   1783340.97749   1390665.79846  21536229.493    21536228.849    21536236.020
       227.000         186.000
 -13320320.16849 -10361976.30547  20020662.317    20020662.139    20020667.491
       243.000         210.000
   1479219.04749   1154136.00447  20605347.779    20605347.176    20605353.272
       237.000         201.000
  -9745925.37649  -7297402.29146  22130328.778    22130328.463    22130335.434
       223.000         166.000
 -21519189.82049 -16733399.82847  20704398.416    20704398.418    20704405.712
       233.000         191.000
 00  5 24 15  5 59.9960000  0  8G16G26G 4G 2G 9G 7G 5G24
  -4010789.90749  -3103243.55345  23599390.507    23599390.146    23599399.592
       212.000         153.000
   6638618.96249   5167612.53445  24224256.533    24224256.221    24224266.194
       200.000         133.000
 -15878779.42349 -12352591.85047  19462729.962    19462730.235    19462735.756
       240.000         207.000
   1814237.01749   1414740.58046  21542108.897    21542108.216    21542115.428
       227.000         185.000
 -13365495.46949 -10397177.83847  20012065.758    20012065.566    20012070.875
       243.000         210.000
   1503025.40949   1172686.38547  20609877.982    20609877.369    20609883.461
       236.000         201.000
  -9863805.49149  -7389256.88646  22107896.971    22107896.617    22107903.495
       222.000         168.000
 -21640777.31349 -16828143.29947  20681261.126    20681261.055    20681268.351
       234.000         192.000
 00  5 24 15  6 29.9960000  0  8G16G26G 4G 2G 9G 7G 5G24
  -4087126.61049  -3162726.66545  23584864.046    23584863.719    23584873.151
       210.000         152.000
   6681702.07449   5201183.61545  24232455.107    24232454.796    24232464.749
       205.000         133.000
 -15938833.78349 -12399387.45047  19451302.023    19451302.267    19451307.780
       240.000         208.000
   1845401.96649   1439024.89246  21548039.452    21548038.756    21548045.967
       227.000         185.000
 -13410103.83649 -10431937.60347  20003577.015    20003576.862    20003582.165
       242.000         210.000
   1526954.61549   1191332.49647  20614431.519    20614430.951    20614437.022
       236.000         201.000
  -9981644.30149  -7481079.30546  22085473.025    22085472.602    22085479.451
       223.000         168.000
 -21762035.30249 -16922629.99847  20658186.486    20658186.396    20658193.694
       233.000         191.000
 00  5 24 15  6 59.9960000  0  8G16G26G 4G 2G 9G 7G 5G24
  -4163073.24949  -3221905.85145  23570411.637    23570411.491    23570420.898
       214.000         153.000
   6724687.17049   5234678.32545  24240635.100    24240634.794    24240644.580
       204.000         132.000
 -15998272.72049 -12445703.49647  19439991.185    19439991.427    19439996.916
       239.000         208.000
   1876855.77849   1463534.29046  21554024.952    21554024.301    21554031.439
       228.000         184.000
 -13454124.62549 -10466239.52247  19995200.108    19995199.971    19995205.297
       242.000         210.000
   1551025.64649   1210089.10647  20619012.108    20619011.523    20619017.560
       237.000         200.000
 -10099420.53649  -7572852.95846  22063060.938    22063060.546    22063067.313
       223.000         169.000
 -21882941.10049 -17016842.26447  20635178.770    20635178.746    20635186.033
       233.000         191.000
 00  5 24 15  7 29.9960000  0  7G16G 4G 2G 9G 7G 5G24
  -4238626.49049  -3280778.49945  23556034.432    23556034.261    23556043.555
       214.000         156.000
 -16057094.07349 -12491538.30247  19428797.878    19428798.101    19428803.581
       240.000         208.000
   1908599.60649   1488269.68346  21560065.617    21560065.008    21560072.121
       228.000         184.000
 -13497556.21949 -10500082.32247  19986935.337    19986935.207    19986940.510
       242.000         210.000
   1575238.80449   1228956.46547  20623619.727    20623619.166    20623625.134
       237.000         201.000
 -10217131.76249  -7664575.98046  22040661.144    22040660.775    22040667.573
       223.000         168.000
 -22003490.89649 -17110777.13447  20612238.878    20612238.851    20612246.093
       234.000         191.000
 00  5 24 15  7 59.9960000  0  7G16G 4G 2G 9G 7G 5G24
  -4313763.10549  -3339326.47245  23541736.448    23541736.244    23541745.626
       212.000         158.000
 -16115276.96249 -12536875.61047  19417726.048    19417726.260    19417731.731
       241.000         208.000
   1940653.75449   1513246.88646  21566165.374    21566164.766    21566171.900
       227.000         183.000
 -13540377.58049 -10533449.62147  19978786.690    19978786.577    19978791.876
       242.000         210.000
   1599613.26749   1247949.51647  20628258.128    20628257.516    20628263.456
       237.000         201.000
 -10334756.25549  -7756231.35546  22018277.839    22018277.515    22018284.366
       226.000         170.000
 -22123662.04149 -17204416.94947  20589371.094    20589371.026    20589378.217
       234.000         192.000
 00  5 24 15  8 29.9960000  0  7G16G 4G 2G 9G 7G 5G24
  -4388487.12649  -3397552.92445  23527516.975    23527516.737    23527526.193
       214.000         157.000
 -16172827.16749 -12581719.91147  19406774.649    19406774.830    19406780.297
       241.000         209.000
   1973011.51149   1538460.64746  21572322.722    21572322.283    21572329.402
       226.000         182.000
 -13582594.94249 -10566346.26847  19970753.039    19970752.862    19970758.196
       242.000         210.000
   1624141.45249   1267062.35747  20632925.800    20632925.124    20632931.037
       237.000         201.000
 -10452299.40149  -7847823.40246  21995910.114    21995909.775    21995916.650
       226.000         173.000
 -22243458.52649 -17297764.80947  20566574.551    20566574.507    20566581.656
       234.000         192.000
 00  5 24 15  8 59.9960000  0  7G16G 4G 2G 9G 7G 5G24
  -4462821.45149  -3455475.70345  23513371.605    23513371.332    23513380.738
       211.000         156.000
 -16229769.46549 -12626090.52647  19395938.895    19395939.058    19395944.554
       240.000         208.000
   2005647.53249   1563891.25846  21578533.144    21578532.715    21578539.842
       225.000         181.000
 -13624233.36449 -10598791.79447  19962829.478    19962829.327    19962834.654
       242.000         210.000
   1648796.85849   1286274.33447  20637617.543    20637616.915    20637622.840
       237.000         201.000
 -10569785.16449  -7939370.72346  21973553.308    21973552.953    21973559.845
       227.000         174.000
 -22362903.23249 -17390838.57347  20543844.902    20543844.910    20543852.046
       235.000         192.000
 00  5 24 15  9 29.9960000  0  7G16G 4G 2G 9G 7G 5G24
  -4536760.49049  -3513090.48345  23499301.526    23499301.190    23499310.635
       211.000         157.000
 -16286099.69749 -12669984.19847  19385219.566    19385219.763    19385225.294
       239.000         208.000
   2038564.78449   1589540.98746  21584797.265    21584796.706    21584803.835
       225.000         181.000
 -13665289.31349 -10630783.44847  19955016.777    19955016.648    19955021.986
       242.000         210.000
   1673581.84349   1305587.27447  20642333.953    20642333.345    20642339.329
       237.000         201.000
 -10687209.14649  -8030869.90346  21951208.275    21951207.881    21951214.860
       226.000         174.000
 -22481990.51749 -17483633.82347  20521183.266    20521183.317    20521190.452
       233.000         193.000
 00  5 24 15  9 59.9960000  0  7G16G 4G 2G 9G 7G 5G24
  -4610295.62949  -3570390.52045  23485308.359    23485307.917    23485317.230
       210.000         155.000
 -16341811.36649 -12713395.87947  19374617.894    19374618.170    19374623.717
       239.000         208.000
   2071769.21449   1615414.49346  21591115.926    21591115.370    21591122.481
       227.000         182.000
 -13705756.35749 -10662316.21347  19947316.185    19947316.037    19947321.367
       243.000         210.000
   1698501.16149   1325004.89047  20647076.022    20647075.372    20647081.368
       237.000         201.000
 -10804564.05349  -8122315.25946  21928876.386    21928875.981    21928882.978
       228.000         176.000
 -22600711.93149 -17576143.97047  20498591.301    20498591.335    20498598.477
       234.000         192.000
 00  5 24 15 10 29.9960000  0  7G16G 4G 2G 9G 7G 5G24
  -4683424.68749  -3627374.10445  23471392.489    23471391.905    23471401.204
       210.000         156.000
 -16396904.10049 -12756325.27447  19364134.106    19364134.359    19364139.928
       240.000         208.000
   2105260.32949   1641511.40246  21597489.160    21597488.555    21597495.734
       225.000         182.000
 -13745634.41749 -10693390.02847  19939727.616    19939727.491    19939732.845
       243.000         210.000
   1723553.78949   1344526.37447  20651843.410    20651842.763    20651848.771
       237.000         200.000
 -10921848.98149  -8213706.06746  21906557.839    21906557.411    21906564.343
       226.000         174.000
 -22719065.31449 -17668367.33847  20476069.395    20476069.420    20476076.559
       235.000         193.000
 00  5 24 15 10 59.9950000  0  7G16G 4G 2G 9G 7G 5G24
  -4756141.47749  -3684036.47445  23457554.958    23457554.380    23457563.575
       211.000         156.000
 -16451374.08249 -12798769.40347  19353768.844    19353769.084    19353774.633
       240.000         208.000
   2139038.15249   1667831.70446  21603916.947    21603916.306    21603923.563
       226.000         182.000
 -13784920.53549 -10724002.58947  19932251.694    19932251.595    19932256.961
       242.000         210.000
   1748739.08649   1364151.24447  20656636.026    20656635.374    20656641.391
       236.000         200.000
 -11039057.34949  -8305037.22446  21884253.809    21884253.374    21884260.325
       226.000         177.000
 -22837042.93549 -17760297.90247  20453619.079    20453619.000    20453626.151
       235.000         194.000
 00  5 24 15 11 29.9950000  0  7G16G 4G 2G 9G 7G 5G24
  -4828461.73549  -3740389.87645  23443792.713    23443792.217    23443801.536
       209.000         157.000
 -16505237.78349 -12840741.10847  19343518.937    19343519.157    19343524.696
       239.000         208.000
   2173091.46349   1694366.68546  21610397.108    21610396.467    21610403.774
       225.000         182.000
 -13823630.39049 -10754166.11747  19924885.478    19924885.348    19924890.728
       242.000         211.000
   1774044.35749   1383869.59947  20661451.489    20661450.836    20661456.874
       237.000         200.000
 -11156209.02749  -8396324.20246  21861960.649    21861960.147    21861967.138
       226.000         176.000
 -22954663.60349 -17851950.32747  20431236.578    20431236.507    20431243.636
       235.000         195.000
 00  5 24 15 11 59.9950000  0  7G16G 4G 2G 9G 7G 5G24
  -4900368.72549  -3796421.22345  23430109.031    23430108.711    23430118.084
       208.000         154.000
 -16558480.80249 -12882229.16647  19333387.058    19333387.339    19333392.878
       239.000         208.000
   2207430.88149   1721124.59946  21616931.707    21616931.067    21616938.435
       225.000         181.000
 -13861750.33249 -10783869.97347  19917631.439    19917631.348    19917636.770
       243.000         211.000
   1799479.88949   1403689.45747  20666291.754    20666291.075    20666297.145
       237.000         200.000
 -11273286.77549  -8487553.58046  21839681.523    21839681.007    21839687.981
       224.000         175.000
 -23071909.03949 -17943310.36547  20408925.406    20408925.400    20408932.558
       235.000         195.000
 00  5 24 15 12 29.9950000  0  7G16G 4G 2G 9G 7G 5G24
  -4971870.23449  -3852136.63345  23416502.775    23416502.475    23416511.723
       205.000         151.000
 -16611112.95549 -12923241.22547  19323371.528    19323371.789    19323377.315
       240.000         208.000
   2242045.97949   1748097.32646  21623518.691    21623518.151    21623525.563
       226.000         181.000
 -13899290.46749 -10813122.03547  19910487.798    19910487.702    19910493.124
       242.000         211.000
   1825034.38249   1423602.01247  20671154.616    20671153.960    20671160.072
       236.000         200.000
 -11390299.64649  -8578732.43446  21817414.766    21817414.195    21817421.154
       225.000         173.000
 -23188787.11549 -18034384.14847  20386684.258    20386684.245    20386691.374
       236.000         196.000
 00  5 24 15 12 59.9950000  0  7G16G 4G 2G 9G 7G 5G24
  -5042948.55949  -3907522.26045  23402976.988    23402976.596    23402985.912
       207.000         152.000
 -16663118.45849 -12963764.98647  19313475.240    19313475.493    19313480.990
       240.000         207.000
   2276951.75949   1775296.55946  21630161.156    21630160.559    21630167.947
       226.000         181.000
 -13936235.63949 -10841910.48547  19903457.377    19903457.293    19903462.728
       243.000         211.000
   1850721.85149   1443618.19047  20676042.843    20676042.162    20676048.249
       237.000         199.000
 -11507231.06149  -8669847.77746  21795163.203    21795162.777    21795169.852
       223.000         172.000
 -23305280.29449 -18125158.01347  20364516.308    20364516.282    20364523.446
       235.000         196.000
 00  5 24 15 13 29.9950000  0  7G16G 4G 2G 9G 7G 5G24
  -5113596.10449  -3962572.23145  23389533.090    23389532.728    23389542.135
       204.000         154.000
 -16714491.62649 -13003796.01447  19303699.227    19303699.511    19303704.986
       239.000         208.000
   2312153.22849   1802726.20146  21636859.950    21636859.257    21636866.641
       227.000         181.000
 -13972580.20849 -10870230.93847  19896541.222    19896541.157    19896546.567
       242.000         210.000
   1876546.76049   1463741.46147  20680957.182    20680956.507    20680962.599
       237.000         199.000
 -11624074.52749  -8760894.60346  21772928.489    21772928.140    21772935.218
       225.000         173.000
 -23421380.85849 -18215625.94147  20342423.060    20342423.082    20342430.249
       236.000         198.000
 00  5 24 15 13 59.9950000  0  7G16G 4G 2G 9G 7G 5G24
  -5183831.47349  -4017301.03645  23376167.650    23376167.364    23376176.743
       205.000         155.000
 -16765252.71249 -13043350.09747  19294039.774    19294039.992    19294045.448
       239.000         207.000
   2347629.57949   1830370.04346  21643611.056    21643610.286    21643617.664
       226.000         182.000
 -14008344.64549 -10898099.33647  19889735.507    19889735.424    19889740.823
       243.000         210.000
   1902487.37949   1483954.88847  20685893.546    20685892.875    20685898.952
       237.000         199.000
 -11740849.49149  -8851888.01846  21750706.863    21750706.562    21750713.656
       224.000         174.000
 -23537107.21949 -18305802.28447  20320401.092    20320401.066    20320408.261
       236.000         197.000
 00  5 24 15 14 29.9950000  0  7G16G 4G 2G 9G 7G 5G24
  -5253645.05049  -4071701.16645  23362882.507    23362882.153    23362891.655
       208.000         154.000
 -16815394.31049 -13082421.46047  19284498.150    19284498.389    19284503.784
       240.000         207.000
   2383387.68549   1858233.43246  21650415.725    21650414.907    21650422.312
       225.000         181.000
 -14043521.76749 -10925510.08647  19883041.542    19883041.451    19883046.860
       243.000         211.000
   1928549.84449   1504263.27947  20690853.127    20690852.437    20690858.492
       237.000         199.000
 -11857547.28649  -8942821.32446  21728500.026    21728499.649    21728506.791
       229.000         177.000
 -23652449.88449 -18395679.64447  20298452.149    20298452.076    20298459.262
       237.000         198.000
 00  5 24 15 14 59.9950000  0  7G16G 4G 2G 9G 7G 5G24
  -5323006.66649  -4125749.12245  23349683.171    23349682.979    23349692.530
       204.000         152.000
 -16864888.26449 -13120988.17347  19275079.810    19275080.019    19275085.370
       240.000         208.000
   2419454.83649   1886337.63746  21657279.183    21657278.342    21657285.770
       225.000         180.000
 -14078083.69549 -10952441.46547  19876464.672    19876464.549    19876469.949
       243.000         210.000
   1954760.98849   1524687.50447  20695841.034    20695840.292    20695846.346
       237.000         199.000
 -11974139.09949  -9033672.07346  21706313.395    21706312.987    21706320.053
       228.000         175.000
 -23767378.89749 -18485234.68147  20276581.886    20276581.805    20276589.013
       237.000         198.000
 00  5 24 15 15 29.9950000  0  7G16G 4G 2G 9G 7G 5G24
  -5391959.48249  -4179478.55145  23336561.822    23336561.673    23336571.102
       208.000         151.000
 -16913779.59549 -13159085.30447  19265776.108    19265776.317    19265781.640
       240.000         207.000
   2455785.45549   1914647.13046  21664192.711    21664191.913    21664199.339
       225.000         180.000
 -14112075.95849 -10978928.95147  19869996.153    19869996.033    19870001.412
       242.000         210.000
   1981074.28249   1545191.32847  20700848.319    20700847.598    20700853.629
       235.000         199.000
 -12090669.25049  -9124474.78646  21684138.466    21684138.041    21684145.001
       228.000         174.000
 -23881937.27949 -18574500.92347  20254782.109    20254782.049    20254789.265
       237.000         198.000
 00  5 24 15 15 59.9950000  0  7G16G 4G 2G 9G 7G 5G24
  -5460483.59949  -4232873.92245  23323522.167    23323521.952    23323531.244
       206.000         149.000
 -16962050.27049 -13196698.81147  19256590.482    19256590.717    19256596.006
       239.000         208.000
   2492397.16349   1943175.66046  21671159.746    21671158.984    21671166.422
       225.000         179.000
 -14145480.85949 -11004958.75147  19863639.398    19863639.303    19863644.661
       243.000         210.000
   2007506.57949   1565787.88747  20705878.247    20705877.536    20705883.544
       237.000         199.000
 -12207118.53449  -9215214.45346  21661978.882    21661978.455    21661985.428
       226.000         176.000
 -23996105.09649 -18663462.82747  20233056.611    20233056.603    20233063.831
       236.000         198.000
 00  5 24 15 16 29.9950000  0  7G16G 4G 2G 9G 7G 5G24
  -5528574.47249  -4285931.72845  23310564.831    23310564.682    23310573.937
       209.000         151.000
 -17009697.72349 -13233826.69247  19247523.495    19247523.712    19247528.978
       240.000         208.000
   2529291.71149   1971924.58246  21678180.660    21678179.844    21678187.342
       224.000         179.000
 -14178295.92149 -11030528.94047  19857394.960    19857394.824    19857400.157
       243.000         210.000
   2034059.05949   1586478.09947  20710931.016    20710930.328    20710936.339
       236.000         199.000
 -12323483.24049  -9305888.19846  21639835.282    21639834.901    21639841.912
       226.000         176.000
 -24109877.83149 -18752116.87747  20211406.362    20211406.345    20211413.557
       237.000         198.000
 00  5 24 15 16 59.9950000  0  7G16G 4G 2G 9G 7G 5G24
  -5596213.00349  -4338637.07245  23297693.923    23297693.567    23297702.713
       210.000         150.000
 -17056705.06249 -13270455.78047  19238578.312    19238578.516    19238583.771
       240.000         208.000
   2566485.55049   2000906.70946  21685258.398    21685257.659    21685265.159
       223.000         178.000
 -14210504.54149 -11055626.57647  19851265.879    19851265.735    19851271.030
       242.000         210.000
   2060747.58249   1607274.32147  20716009.729    20716009.014    20716015.051
       236.000         199.000
 -12439745.40949  -9396482.07746  21617711.266    21617710.927    21617717.974
       224.000         178.000
 -24223236.46049 -18840448.24447  20189834.954    20189834.891    20189842.084
       237.000         198.000
 00  5 24 15 17 29.9950000  0  7G16G 4G 2G 9G 7G 5G24
  -5663411.32249  -4390999.41145  23284906.719    23284906.160    23284915.232
       209.000         148.000
 -17103086.41949 -13306597.08947  19229752.307    19229752.467    19229757.704
       240.000         208.000
   2603964.41249   2030110.95146  21692390.368    21692389.721    21692397.202
       224.000         179.000
 -14242121.09249 -11080262.85447  19845249.474    19845249.315    19845254.589
       243.000         210.000
   2087556.95849   1628164.71047  20721111.355    20721110.683    20721116.759
       236.000         199.000
 -12555917.77449  -9487005.96646  21595604.340    21595604.007    21595611.098
       225.000         176.000
 -24336192.95049 -18928466.25847  20168340.053    20168339.984    20168347.145
       237.000         198.000
 00  5 24 15 17 59.9950000  0  7G16G 4G 2G 9G 7G 5G24
  -5730169.58449  -4443018.82745  23272203.085    23272202.466    23272211.574
       209.000         150.000
 -17148843.84749 -13342252.22647  19221044.927    19221045.113    19221050.362
       239.000         208.000
   2641725.36649   2059534.98246  21699576.123    21699575.430    21699582.946
       222.000         179.000
 -14273147.86649 -11104439.56847  19839345.306    19839345.137    19839350.384
       243.000         210.000
   2114483.80049   1649146.63247  20726235.413    20726234.712    20726240.783
       236.000         198.000
 -12672001.24349  -9577460.59246  21573514.371    21573514.044    21573521.117
       224.000         176.000
 -24448747.50149 -19016171.07047  20146921.625    20146921.544    20146928.670
       237.000         198.000
 00  5 24 15 18 29.9950000  0  7G16G 4G 2G 9G 7G 5G24
  -5796480.32249  -4494689.52845  23259584.479    23259583.891    23259593.003
       212.000         150.000
 -17193972.05349 -13377417.05747  19212457.258    19212457.495    19212462.735
       239.000         208.000
   2679773.14949   2089182.51646  21706816.423    21706815.737    21706823.243
       226.000         177.000
 -14303579.97749 -11128152.91147  19833554.255    19833554.090    19833559.362
       243.000         210.000
   2141532.33449   1670223.38747  20731382.570    20731381.900    20731387.974
       236.000         198.000
 -12787989.48149  -9667841.01046  21551442.599    21551442.215    21551449.263
       228.000         179.000
 -24560892.82849 -19103557.00747  20125581.048    20125580.990    20125588.112
       238.000         198.000
 00  5 24 15 18 59.9950000  0  7G16G 4G 2G 9G 7G 5G24
  -5862363.26649  -4546026.91145  23247047.327    23247046.806    23247055.702
       210.000         150.000
 -17238492.68049 -13412108.45047  19203985.279    19203985.494    19203990.748
       240.000         209.000
   2718085.88049   2119036.50446  21714107.207    21714106.477    21714113.994
       224.000         178.000
 -14333438.91949 -11151419.62647  19827872.266    19827872.129    19827877.405
       244.000         211.000
   2168680.02949   1691377.39447  20736548.578    20736547.951    20736554.072
       237.000         199.000
 -12903902.68649  -9758162.95046  21529384.931    21529384.613    21529391.736
       224.000         179.000
 -24672648.24449 -19190639.12547  20104314.738    20104314.628    20104321.732
       237.000         198.000
 00  5 24 15 19 29.9950000  0  7G16G 4G 2G 9G 7G 5G24
  -5927782.30149  -4597002.77545  23234598.556    23234597.981    23234606.943
       211.000         151.000
 -17282371.70049 -13446299.89047  19195635.400    19195635.620    19195640.843
       240.000         208.000
   2756696.80549   2149122.86446  21721454.705    21721453.970    21721461.459
       224.000         178.000
 -14362690.98949 -11174213.45047  19822305.829    19822305.669    19822310.976
       243.000         211.000
   2195959.59149   1712634.15847  20741739.701    20741739.098    20741745.267
       235.000         198.000
 -13019705.56249  -9848398.91046  21507348.259    21507348.016    21507355.268
       224.000         178.000
 -24783977.93349 -19277389.50647  20083129.351    20083129.278    20083136.378
       237.000         199.000
 00  5 24 15 19 59.9950000  0  7G16G 4G 2G 9G 7G 5G24
  -5992749.42949  -4647626.53745  23222235.681    23222235.113    23222244.113
       208.000         148.000
 -17325622.92949 -13480002.14347  19187404.946    19187405.172    19187410.403
       239.000         208.000
   2795591.84349   2179430.59946  21728856.378    21728855.564    21728862.986
       225.000         178.000
 -14391350.37049 -11196545.43847  19816852.142    19816851.983    19816857.317
       243.000         211.000
   2223356.43249   1733982.31147  20746953.180    20746952.584    20746958.803
       236.000         199.000
 -13135410.61349  -9938558.65746  21485330.235    21485330.052    21485337.368
       227.000         179.000
 -24894893.47449 -19363817.16747  20062022.842    20062022.725    20062029.862
       238.000         199.000
 00  5 24 15 20 29.9950000  0  7G16G 4G 2G 9G 7G 5G24
  -6057280.18249  -4697910.26545  23209955.561    23209955.250    23209964.146
       212.000         148.000
 -17368264.29149 -13513229.17547  19179290.569    19179290.798    19179296.030
       240.000         208.000
   2834752.67649   2209945.44546  21736308.592    21736307.711    21736315.075
       225.000         178.000
 -14419435.27549 -11218429.78747  19811507.774    19811507.606    19811512.961
       243.000         211.000
   2250851.48849   1755406.98847  20752185.378    20752184.759    20752190.986
       236.000         198.000
 -13251034.55149 -10028655.22946  21463327.806    21463327.559    21463334.823
       229.000         178.000
 -25005410.71249 -19449934.46947  20040992.026    20040991.991    20040999.134
       238.000         199.000
 00  5 24 15 20 59.9950000  0  7G16G 4G 2G 9G 7G 5G24
  -6121353.62149  -4747837.65245  23197762.825    23197762.498    23197771.309
       213.000         150.000
 -17410276.85149 -13545966.22747  19171295.852    19171296.074    19171301.304
       239.000         207.000
   2874197.70849   2240681.74246  21743814.752    21743813.972    21743821.306
       225.000         178.000
 -14446927.02249 -11239851.93247  19806276.240    19806276.099    19806281.496
       243.000         211.000
   2278462.87049   1776922.31447  20757439.705    20757439.061    20757445.333
       235.000         198.000
 -13366557.24249 -10118672.89046  21441344.713    21441344.337    21441351.558
       227.000         178.000
 -25115508.60449 -19535725.01247  20020041.069    20020041.028    20020048.206
       238.000         199.000
 00  5 24 15 21 29.9950000  0  7G16G 4G 2G 9G 7G 5G24
  -6184959.87749  -4797400.96345  23185659.059    23185658.702    23185667.359
       217.000         154.000
 -17451652.67749 -13578207.12847  19163422.268    19163422.502    19163427.733
       239.000         208.000
   2913934.45849   2271645.37246  21751376.489    21751375.737    21751383.093
       223.000         178.000
 -14473818.00449 -11260805.95047  19801159.062    19801158.929    19801164.360
       243.000         211.000
   2306197.52249   1798533.68947  20762717.433    20762716.791    20762723.130
       236.000         198.000
 -13481969.17949 -10208604.24546  21419382.501    21419382.160    21419389.371
       228.000         180.000
 -25225177.15049 -19621180.99747  19999171.840    19999171.765    19999178.936
       239.000         199.000
 00  5 24 15 21 59.9950000  0  7G16G 4G 2G 9G 7G 5G24
  -6248112.64149  -4846610.87945  23173641.627    23173641.233    23173649.839
       216.000         155.000
 -17492407.95349 -13609964.47247  19155666.772    19155667.026    19155672.262
       239.000         207.000
   2953946.60349   2302823.56146  21758990.484    21758989.844    21758997.281
       222.000         176.000
 -14500124.32049 -11281304.38347  19796153.137    19796153.010    19796158.481
       243.000         211.000
   2334038.58049   1820227.97747  20768015.434    20768014.806    20768021.167
       235.000         198.000
 -13597284.86049 -10298460.58346  21397438.700    21397438.313    21397445.527
       228.000         182.000
 -25334430.10949 -19706313.14547  19978381.651    19978381.588    19978388.745
       239.000         200.000
 00  5 24 15 22 29.9950000  0  7G16G 4G 2G 9G 7G 5G24
  -6310802.23649  -4895459.90545  23161712.173    23161711.742    23161720.424
       211.000         151.000
 -17532534.69649 -13641232.06547  19148030.859    19148031.141    19148036.401
       238.000         207.000
   2994241.52349   2334222.11746  21766658.474    21766657.759    21766665.226
       223.000         174.000
 -14525838.42949 -11301341.36747  19791259.923    19791259.787    19791265.252
       243.000         211.000
   2361993.08049   1842010.66247  20773335.037    20773334.419    20773340.796
       235.000         198.000
 -13712495.01749 -10388234.69346  21375514.901    21375514.539    21375521.735
       229.000         180.000
 -25443257.50749 -19791113.69147  19957672.467    19957672.397    19957679.547
       238.000         200.000
 00  5 24 15 22 59.9950000  0  7G16G 4G 2G 9G 7G 5G24
  -6373018.00449  -4943939.67345  23149872.684    23149872.414    23149881.176
       207.000         149.000
 -17572024.56449 -13672003.38647  19140516.158    19140516.450    19140521.756
       238.000         207.000
   3034827.28349   2365847.30846  21774381.726    21774380.997    21774388.497
       220.000         172.000
 -14550952.32849 -11320910.64947  19786480.881    19786480.767    19786486.261
       244.000         211.000
   2390068.71449   1863887.74147  20778677.616    20778677.054    20778683.474
       234.000         197.000
 -13827589.88549 -10477918.99646  21353613.090    21353612.690    21353619.835
       227.000         178.000
 -25551648.80149 -19875574.41847  19937046.199    19937046.170    19937053.322
       239.000         200.000
 00  5 24 15 23 29.9950000  0  7G16G 4G 2G 9G 7G 5G24
  -6434752.37649  -4992044.32445  23138125.050    23138124.699    23138133.509
       211.000         152.000
 -17610872.11549 -13702274.19947  19133123.679    19133123.993    19133129.300
       238.000         207.000
   3075709.12049   2397703.18446  21782161.187    21782160.561    21782168.153
       219.000         172.000
 -14575460.59849 -11340008.01347  19781817.146    19781817.014    19781822.491
       245.000         211.000
   2418269.85649   1885862.61447  20784044.107    20784043.557    20784050.009
       235.000         197.000
 -13942562.37749 -10567507.94646  21331734.456    21331734.126    21331741.176
       227.000         177.000
 -25659596.40749 -19959689.41747  19916504.422    19916504.420    19916511.541
       239.000         201.000
 00  5 24 15 23 59.9950000  0  7G16G 4G 2G 9G 7G 5G24
  -6496025.57949  -5039789.64545  23126465.217    23126464.836    23126473.676
       212.000         155.000
 -17649099.83949 -13732062.03147  19125849.193    19125849.491    19125854.828
       239.000         207.000
   3116864.07349   2429771.89246  21789992.595    21789992.118    21789999.731
       222.000         171.000
 -14599385.84549 -11358651.07647  19777264.343    19777264.197    19777269.694
       244.000         211.000
   2446573.50849   1907917.36947  20789430.199    20789429.602    20789436.075
       236.000         197.000
 -14057433.28349 -10657017.71146  21309875.189    21309874.888    21309881.943
       226.000         178.000
 -25767120.50149 -20043474.40747  19896043.235    19896043.244    19896050.331
       239.000         200.000
 00  5 24 15 24 29.9950000  0  7G16G 4G 2G 9G 7G 5G24
  -6556835.81749  -5087174.21845  23114893.548    23114893.010    23114901.899
       211.000         153.000
 -17686707.85849 -13761366.97847  19118692.670    19118692.928    19118698.259
       238.000         207.000
   3158291.74349   2462053.10846  21797876.191    21797875.590    21797883.228
       221.000         172.000
 -14622728.82049 -11376840.42247  19772822.441    19772822.235    19772827.696
       244.000         212.000
   2474978.84349   1930051.35447  20794835.639    20794835.003    20794841.485
       235.000         197.000
 -14172201.31649 -10746447.32646  21288035.476    21288035.234    21288042.262
       227.000         179.000
 -25874219.22849 -20126927.94747  19875662.992    19875663.014    19875670.083
       238.000         201.000
 00  5 24 15 24 59.9950000  0  7G16G 4G 2G 9G 7G 5G24
  -6617169.86649  -5134187.73745  23103412.129    23103411.793    23103420.716
       209.000         150.000
 -17723685.17349 -13790180.46847  19111656.154    19111656.376    19111661.700
       239.000         207.000
   3200003.17849   2494555.42946  21805813.684    21805813.039    21805820.769
       218.000         172.000
 -14645478.56149 -11394567.49947  19768493.315    19768493.128    19768498.586
       244.000         211.000
   2503496.11849   1952272.56247  20800262.432    20800261.719    20800268.225
       235.000         198.000
 -14286853.59349 -10835786.73846  21266217.888    21266217.604    21266224.656
       228.000         181.000
 -25980879.09249 -20210039.51247  19855366.345    19855366.302    19855373.343
       239.000         201.000
 00  5 24 15 25 29.9950000  0  7G16G 4G 2G 9G 7G 5G24
  -6677021.02649  -5180824.96245  23092022.507    23092022.373    23092031.273
       207.000         149.000
 -17760027.32049 -13818499.02247  19104740.442    19104740.704    19104745.996
       238.000         207.000
   3242002.41649   2527282.01846  21813805.781    21813805.256    21813813.054
       220.000         172.000
 -14667630.71749 -11411828.92847  19764277.882    19764277.721    19764283.171
       244.000         211.000
   2532129.34749   1974584.12147  20805711.143    20805710.466    20805716.998
       235.000         197.000
 -14401384.17649 -10925031.31446  21244423.423    21244423.110    21244430.169
       230.000         181.000
 -26087093.55349 -20292804.00547  19835154.432    19835154.365    19835161.360
       239.000         201.000
 00  5 24 15 25 59.9950000  0  7G16G 4G 2G 9G 7G 5G24
  -6736397.53449  -5227092.28945  23080723.401    23080723.366    23080732.352
       207.000         148.000
 -17795744.62349 -13846330.68547  19097943.658    19097943.918    19097949.208
       238.000         207.000
   3284278.77049   2560224.54946  21821850.695    21821850.230    21821858.046
       219.000         171.000
 -14689196.10549 -11428633.14047  19760174.113    19760173.964    19760179.403
       244.000         211.000
   2560867.41549   1996977.38347  20811179.850    20811179.176    20811185.672
       234.000         197.000
 -14515801.52949 -11014187.66246  21222650.598    21222650.236    21222657.238
       230.000         180.000
 -26192870.61649 -20375227.66847  19815025.750    19815025.660    19815032.610
       239.000         201.000
 00  5 24 15 26 29.9950000  0  7G16G 4G 2G 9G 7G 5G24
  -6795306.25249  -5272995.15745  23069513.453    23069513.292    23069522.334
       210.000         149.000
 -17830846.04649 -13873682.44647  19091264.092    19091264.330    19091269.618
       238.000         207.000
   3326823.12849   2593375.90746  21829946.633    21829946.232    21829953.994
       218.000         171.000
 -14710183.69749 -11444987.11747  19756180.275    19756180.144    19756185.589
       244.000         210.000
   2589700.95149   2019445.03447  20816666.731    20816666.063    20816672.540
       234.000         196.000
 -14630112.79649 -11103261.35946  21200897.911    21200897.527    21200904.509
       230.000         181.000
 -26298216.93449 -20457315.68547  19794979.021    19794978.932    19794985.855
       240.000         201.000
 00  5 24 15 26 59.9950000  0  7G16G 4G 2G 9G 7G 5G24
  -6853733.11249  -5318522.51145  23058395.028    23058395.008    23058403.988
       207.000         150.000
 -17865319.87449 -13900545.16947  19084703.949    19084704.190    19084709.448
       239.000         207.000
   3369647.05449   2626745.10846  21838096.028    21838095.455    21838103.251
       224.000         173.000
 -14730582.18949 -11460882.05447  19752298.609    19752298.457    19752303.887
       244.000         211.000
   2618641.10749   2041995.77647  20822173.885    20822173.231    20822179.695
       233.000         195.000
 -14744304.49549 -11192241.87746  21179167.923    21179167.568    21179174.534
       231.000         182.000
 -26403118.45649 -20539057.10347  19775016.967    19775016.862    19775023.717
       240.000         201.000
 00  5 24 15 27 29.9950000  0  7G16G 4G 2G 9G 7G 5G24
  -6911676.01149  -5363672.78445  23047368.869    23047368.809    23047377.820
       214.000         154.000
 -17899166.06749 -13926918.82747  19078263.247    19078263.475    19078268.707
       239.000         208.000
   3412750.20149   2660331.87746  21846298.491    21846297.813    21846305.603
       220.000         173.000
 -14750391.69849 -11476318.04247  19748529.001    19748528.837    19748534.245
       244.000         210.000
   2647687.36549   2064629.18347  20827701.162    20827700.560    20827707.052
       234.000         195.000
 -14858374.81449 -11281127.81946  21157461.072    21157460.694    21157467.614
       230.000         182.000
 -26507573.07349 -20620450.28847  19755139.926    19755139.779    19755146.620
       240.000         201.000
 00  5 24 15 27 59.9950000  0  7G16G 4G 2G 9G 7G 5G24
  -6969137.77049  -5408448.13245  23036434.453    23036434.181    23036443.082
       209.000         152.000
 -17932389.72149 -13952807.39447  19071941.018    19071941.253    19071946.458
       239.000         207.000
   3456127.47749   2694132.27146  21854553.047    21854552.303    21854560.149
       222.000         173.000
 -14769617.20749 -11491298.96647  19744870.513    19744870.345    19744875.747
       244.000         210.000
   2676834.19649   2087340.96747  20833247.705    20833247.047    20833253.541
       234.000         195.000
 -14972327.06349 -11369921.73846  21135776.702    21135776.296    21135783.227
       231.000         182.000
 -26611583.40549 -20701497.28647  19735347.335    19735347.235    19735354.096
       240.000         202.000
 00  5 24 15 28 29.9950000  0  7G16G 4G 2G 9G 7G 5G24
  -7026114.99349  -5452845.90245  23025592.044    23025591.648    23025600.682
       207.000         148.000
 -17964989.71549 -13978209.99147  19065737.496    19065737.701    19065742.887
       240.000         207.000
   3499779.65749   2728146.86946  21862859.923    21862859.118    21862866.996
       221.000         172.000
 -14788257.82749 -11505824.13147  19741323.297    19741323.157    19741328.535
       244.000         210.000
   2706082.43349   2110131.76147  20838813.512    20838812.848    20838819.295
       234.000         194.000
 -15086158.07749 -11458621.20346  21114115.443    21114115.006    21114121.838
       231.000         181.000
 -26715146.02349 -20782195.42447  19715639.947    19715639.903    19715646.767
       240.000         202.000
 00  5 24 15 28 59.9950000  0  7G16G 4G 2G 9G 7G 5G24
  -7082600.24249  -5496860.30945  23014843.168    23014842.757    23014851.804
       207.000         147.000
 -17996960.66349 -14003122.42047  19059653.576    19059653.828    19059659.040
       238.000         207.000
   3543712.09449   2762379.85446  21871219.947    21871219.259    21871227.155
       220.000         171.000
 -14806308.43149 -11519889.54847  19737888.382    19737888.235    19737893.602
       244.000         210.000
   2735437.06949   2133005.46547  20844399.479    20844398.860    20844405.283
       234.000         195.000
 -15199860.41649 -11547220.40146  21092478.545    21092478.153    21092484.922
       229.000         181.000
 -26818253.14249 -20862538.61647  19696019.280    19696019.240    19696026.127
       240.000         202.000
 00  5 24 15 29 29.9950000  0  7G16G 4G 2G 9G 7G 5G24
  -7138600.69149  -5540496.95445  23004186.532    23004186.176    23004195.308
       211.000         154.000
 -18028312.04549 -14027552.07447  19053687.596    19053687.857    19053693.062
       239.000         207.000
   3587915.36549   2796823.86746  21879631.606    21879630.926    21879638.847
       219.000         172.000
 -14823778.87949 -11533502.89147  19734563.844    19734563.730    19734569.075
       245.000         211.000
   2764888.17149   2155954.33947  20850003.846    20850003.228    20850009.668
       233.000         194.000
 -15313441.49049 -11635725.09246  21070864.750    21070864.370    21070871.101
       229.000         182.000
 -26920912.14049 -20942532.62347  19676483.898    19676483.845    19676490.736
       240.000         202.000
 00  5 24 15 29 59.9950000  0  7G16G 4G 2G 9G 7G 5G24
  -7194091.94349  -5583736.83745  22993626.919    22993626.526    22993635.687
       212.000         155.000
 -18059021.92349 -14051481.85647  19047843.734    19047843.978    19047849.155
       239.000         207.000
   3632411.17649   2831495.83846  21888099.008    21888098.325    21888106.218
       220.000         171.000
 -14840647.26149 -11546647.09847  19731353.943    19731353.800    19731359.121
       244.000         210.000
   2794457.30949   2178995.19247  20855630.705    20855630.088    20855636.515
       234.000         194.000
 -15426877.60349 -11724116.85646  21049278.606    21049278.202    21049284.883
       231.000         183.000
 -27023098.49049 -21022158.32747  19657038.417    19657038.391    19657045.309
       240.000         202.000
 00  5 24 15 30 29.9950000  0  7G16G 4G 2G 9G 7G 5G24
  -7249080.68049  -5626585.14845  22983162.746    22983162.440    22983171.644
       213.000         156.000
 -18089098.78249 -14074918.37747  19042120.315    19042120.561    19042125.697
       239.000         207.000
   3677191.09149   2866389.17746  21896620.357    21896619.745    21896627.667
       219.000         171.000
 -14856922.11149 -11559328.81447  19728256.950    19728256.813    19728262.138
       244.000         211.000
   2824135.83249   2202121.27547  20861278.436    20861277.772    20861284.231
       234.000         194.000
 -15540175.17549 -11812400.64446  21027718.814    21027718.383    21027725.046
       229.000         183.000
 -27124818.33249 -21101420.50947  19637681.730    19637681.719    19637688.686
       240.000         203.000
 00  5 24 15 30 59.9950000  0  7G16G 4G 2G 9G 7G 5G24
  -7303565.50349  -5669040.82345  22972794.530    22972794.252    22972803.648
       212.000         156.000
 -18118543.63749 -14097862.42847  19036517.184    19036517.391    19036522.521
       239.000         207.000
   3722253.88449   2901502.95446  21905195.492    21905194.971    21905202.941
       218.000         170.000
 -14872604.75749 -11571549.06847  19725272.657    19725272.520    19725277.837
       245.000         210.000
   2853922.36949   2225331.51347  20866946.693    20866946.006    20866952.479
       234.000         194.000
 -15653333.07349 -11900575.60546  21006185.447    21006185.123    21006191.699
       231.000         183.000
 -27226070.49449 -21180318.27447  19618414.043    19618414.065    19618421.068
       241.000         203.000
 00  5 24 15 31 29.9950000  0  7G16G 4G 2G 9G 7G 5G24
  -7357542.73849  -5711100.97045  22962523.020    22962522.763    22962532.026
       211.000         154.000
 -18147355.02049 -14120312.86047  19031034.602    19031034.784    19031039.883
       239.000         207.000
   3767601.27649   2936838.48146  21913824.826    21913824.350    21913832.337
       220.000         170.000
 -14887694.03649 -11583306.96347  19722401.297    19722401.143    19722406.473
       244.000         210.000
   2883818.25749   2248626.96847  20872635.776    20872635.044    20872641.475
       233.000         193.000
 -15766347.77349 -11988638.99046  20984679.428    20984679.118    20984685.641
       230.000         185.000
 -27326851.01949 -21258848.53247  19599236.169    19599236.167    19599243.156
       241.000         203.000
 00  5 24 15 31 59.9950000  0  7G16G 4G 2G 9G 7G 5G24
  -7411022.79549  -5752773.72245  22952346.020    22952345.782    22952355.051
       213.000         155.000
 -18175545.72749 -14142279.65447  19025670.087    19025670.269    19025675.356
       238.000         207.000
   3813219.97749   2972385.40646  21922505.784    21922505.377    21922513.375
       219.000         168.000
 -14902203.11149 -11594612.74947  19719640.266    19719640.144    19719645.521
       244.000         210.000
   2913810.48649   2271997.50147  20878343.128    20878342.402    20878348.833
       233.000         192.000
 -15879229.90349 -12076599.07546  20963198.772    20963198.388    20963204.880
       230.000         185.000
 -27427170.42749 -21337019.48347  19580146.041    19580146.011    19580152.988
       241.000         203.000
 00  5 24 15 32 29.9950000  0  7G16G 4G 2G 9G 7G 5G24
  -7463991.83849  -5794048.25445  22942266.545    22942266.149    22942275.416
       213.000         154.000
 -18203104.06649 -14163753.69047  19020425.900    19020426.108    19020431.165
       238.000         207.000
   3859121.84549   3008152.99746  21931240.712    21931240.243    21931248.293
       216.000         167.000
 -14916120.09449 -11605457.16247  19716991.968    19716991.855    19716997.208
       244.000         210.000
   2943910.65549   2295452.14347  20884070.987    20884070.293    20884076.763
       233.000         193.000
 -15991965.57749 -12164445.01246  20941745.769    20941745.454    20941751.976
       229.000         183.000
 -27527014.51249 -21414820.04347  19561146.339    19561146.308    19561153.287
       241.000         203.000
 00  5 24 15 32 59.9950000  0  7G16G 4G 2G 9G 7G 5G24
  -7516450.69849  -5834925.29545  22932283.834    22932283.517    22932292.797
       213.000         152.000
 -18230033.09749 -14184737.36347  19015301.472    19015301.674    19015306.752
       238.000         207.000
   3905303.74349   3044138.79346  21940029.048    21940028.495    21940036.524
       221.000         166.000
 -14929448.50349 -11615842.94347  19714455.646    19714455.532    19714460.904
       244.000         210.000
   2974115.48549   2318988.33747  20889818.818    20889818.122    20889824.650
       233.000         193.000
 -16104555.98349 -12252177.77146  20920320.351    20920320.170    20920326.691
       229.000         184.000
 -27626384.00349 -21492250.79947  19542236.962    19542236.926    19542243.930
       241.000         204.000
 00  5 24 15 33 29.9950000  0  7G16G 4G 2G 9G 7G 5G24
  -7568414.28649  -5875416.39945  22922395.561    22922395.129    22922404.248
       211.000         150.000
 -18256349.98649 -14205244.04347  19010293.499    19010293.733    19010298.816
       238.000         207.000
   3951748.60349   3080329.52846  21948867.392    21948866.766    21948874.642
       219.000         164.000
 -14942205.58249 -11625783.54047  19712028.084    19712027.947    19712033.356
       245.000         210.000
   3004407.76449   2342592.66947  20895583.278    20895582.594    20895589.154
       233.000         193.000
 -16217015.68849 -12339808.69246  20898920.029    20898919.821    20898926.307
       232.000         187.000
 -27725293.58649 -21569323.18647  19523415.133    19523415.067    19523422.043
       241.000         204.000
 00  5 24 15 33 59.9950000  0  7G16G 4G 2G 9G 7G 5G24
  -7619861.49749  -5915505.12345  22912605.428    22912605.021    22912614.220
       213.000         150.000
 -18282036.17549 -14225259.26747  19005405.552    19005405.806    19005410.901
       238.000         207.000
   3998475.05549   3116739.66146  21957759.256    21957758.598    21957766.430
       217.000         168.000
 -14954372.76849 -11635264.48047  19709712.759    19709712.628    19709718.027
       245.000         210.000
   3034806.14749   2366279.68447  20901367.891    20901367.239    20901373.846
       232.000         193.000
 -16329323.46649 -12427321.23647  20877548.717    20877548.372    20877554.850
       232.000         188.000
 -27823722.08649 -21646020.70147  19504684.795    19504684.738    19504691.687
       241.000         204.000
 00  5 24 15 34 29.9950000  0  7G16G 4G 2G 9G 7G 5G24
  -7670806.56549  -5955202.58645  22902910.863    22902910.463    22902919.543
       211.000         147.000
 -18307107.72549 -14244795.55247  19000634.613    19000634.858    19000639.963
       238.000         207.000
   4045466.85449   3153356.54146  21966701.651    21966700.927    21966708.819
       218.000         169.000
 -14965966.56849 -11644298.63047  19707506.561    19707506.412    19707511.816
       245.000         210.000
   3065294.33549   2390036.67447  20907169.685    20907168.991    20907175.642
       233.000         193.000
 -16441493.76149 -12514726.61846  20856203.340    20856203.025    20856209.582
       230.000         186.000
 -27921683.44549 -21722354.20047  19486043.371    19486043.301    19486050.232
       240.000         204.000
 00  5 24 15 34 59.9950000  0  7G16G 4G 2G 9G 7G 5G24
  -7721230.01649  -5994493.59745  22893315.543    22893315.181    22893324.306
       212.000         151.000
 -18331547.91949 -14263839.87147  18995983.804    18995984.046    18995989.152
       238.000         207.000
   4092741.01949   3190193.44846  21975697.746    21975697.026    21975704.893
       218.000         166.000
 -14976970.28449 -11652872.97347  19705412.629    19705412.478    19705417.871
       244.000         210.000
   3095889.31949   2413876.88647  20912991.692    20912991.035    20912997.730
       231.000         192.000
 -16553507.26249 -12602009.86046  20834887.948    20834887.581    20834894.074
       232.000         187.000
 -28019158.25549 -21798308.57447  19467494.544    19467494.455    19467501.392
       240.000         204.000
 00  5 24 15 35 29.9940000  0  7G16G 4G 2G 9G 7G 5G24
  -7771130.37149  -6033376.96045  22883819.917    22883819.484    22883828.479
       213.000         153.000
 -18355357.86749 -14282393.08647  18991452.929    18991453.175    18991458.301
       238.000         207.000
   4140293.99249   3227247.62146  21984746.834    21984746.114    21984753.992
       218.000         167.000
 -14987385.88849 -11660989.04147  19703430.608    19703430.469    19703435.870
       244.000         210.000
   3126587.79949   2437797.73747  20918833.333    20918832.755    20918839.499
       232.000         191.000
 -16665359.84149 -12689167.68446  20813603.044    20813602.717    20813609.233
       232.000         187.000
 -28116143.07849 -21873881.14647  19449038.955    19449038.841    19449045.787
       240.000         204.000
 00  5 24 15 35 59.9940000  0  7G16G 4G 2G 9G 7G 5G24
  -7820530.82249  -6071870.81345  22874419.460    22874418.974    22874427.856
       212.000         155.000
 -18378561.75249 -14300474.04747  18987037.433    18987037.645    18987042.778
       239.000         207.000
   4188106.32149   3264503.90246  21993845.369    21993844.568    21993852.495
       217.000         167.000
 -14997236.78049 -11668665.07947  19701556.037    19701555.907    19701561.310
       244.000         209.000
   3157369.45349   2461783.40047  20924691.049    20924690.381    20924697.074
       232.000         192.000
 -16777078.94049 -12776221.51546  20792343.542    20792343.255    20792349.793
       232.000         187.000
 -28212664.26749 -21949092.43547  19430671.491    19430671.436    19430678.416
       239.000         204.000
 00  5 24 15 36 29.9940000  0  7G16G 4G 2G 9G 7G 5G24
  -7869414.16749  -6109961.78045  22865117.161    22865116.804    22865125.572
       214.000         151.000
 -18401145.73949 -14318071.96747  18982739.862    18982740.055    18982745.207
       239.000         208.000
   4236190.03349   3301971.62646  22002995.471    22002994.644    22003002.688
       218.000         166.000
 -15006509.17149 -11675890.32947  19699791.525    19699791.406    19699796.851
       244.000         210.000
   3188246.76349   2485843.60647  20930566.840    20930566.183    20930572.829
       232.000         191.000
 -16888645.03549 -12863156.09846  20771113.207    20771112.911    20771119.424
       232.000         187.000
 -28308702.88149 -22023927.69047  19412395.881    19412395.858    19412402.838
       240.000         203.000
 00  5 24 15 36 59.9940000  0  7G16G 4G 2G 9G 7G 5G24
  -7917770.29449  -6147641.91445  22855915.236    22855914.922    22855923.560
       213.000         149.000
 -18423101.66949 -14335180.49647  18978561.789    18978562.000    18978567.146
       238.000         208.000
   4284553.15449   3339657.07446  22012198.877    22012197.968    22012206.091
       214.000         167.000
 -15015195.40949 -11682658.84147  19698138.568    19698138.486    19698143.935
       244.000         210.000
   3219227.79049   2509984.62247  20936462.284    20936461.672    20936468.359
       232.000         191.000
 -17000048.03549 -12949963.60646  20749913.950    20749913.617    20749920.116
       231.000         187.000
 -28404248.57349 -22098378.85947  19394214.126    19394214.105    19394221.048
       240.000         204.000
 00  5 24 15 37 29.9940000  0  7G16G 4G 2G 9G 7G 5G24
  -7965610.26249  -6184919.81145  22846811.655    22846811.300    22846819.816
       210.000         147.000
 -18444442.86549 -14351810.01647  18974500.694    18974500.903    18974506.071
       238.000         207.000
   4333182.40049   3377549.87146  22021452.802    22021451.893    22021460.049
       217.000         165.000
 -15023308.98749 -11688981.12447  19696594.648    19696594.545    19696599.990
       244.000         210.000
   3250299.41649   2534196.22447  20942375.085    20942374.458    20942381.117
       231.000         190.000
 -17111298.48949 -13036652.23847  20728743.621    20728743.325    20728749.868
       232.000         188.000
 -28499312.07049 -22172454.29447  19376124.176    19376124.103    19376131.023
       241.000         204.000
 00  5 24 15 37 59.9940000  0  7G16G 4G 2G 9G 7G 5G24
  -8012942.12849  -6221801.86945  22837804.558    22837804.242    22837812.801
       211.000         147.000
 -18465179.83749 -14367968.70647  18970554.567    18970554.794    18970559.969
       238.000         207.000
   4382067.32449   3415641.91346  22030755.363    22030754.439    22030762.608
       212.000         164.000
 -15030860.83849 -11694865.69547  19695157.573    19695157.473    19695162.948
       243.000         209.000
   3281451.16649   2558470.27847  20948303.069    20948302.479    20948309.090
       231.000         189.000
 -17222404.67749 -13123228.47646  20707600.813    20707600.527    20707607.042
       231.000         187.000
 -28593901.42949 -22246160.26747  19358124.448    19358124.357    19358131.239
       240.000         205.000
 00  5 24 15 38 29.9940000  0  7G16G 4G 2G 9G 7G 5G24
  -8059752.26449  -6258277.30145  22828896.882    22828896.531    22828905.050
       210.000         149.000
 -18485301.15749 -14383647.66847  18966725.578    18966725.837    18966731.015
       238.000         207.000
   4431219.68249   3453942.32946  22040108.451    22040107.803    22040116.075
       212.000         163.000
 -15037839.59449 -11700303.69347  19693829.510    19693829.438    19693834.951
       244.000         210.000
   3312694.85449   2582815.96447  20954248.537    20954247.956    20954254.593
       230.000         190.000
 -17333352.48549 -13209681.29346  20686488.150    20686487.822    20686494.362
       231.000         186.000
 -28688002.66649 -22319485.87947  19340217.522    19340217.479    19340224.359
       240.000         204.000
 00  5 24 15 38 59.9940000  0  7G16G 4G 2G 9G 7G 5G24
  -8105998.88149  -6294313.62445  22820096.261    22820096.018    22820104.580
       208.000         151.000
 -18504767.31849 -14398816.11947  18963021.279    18963021.552    18963026.745
       239.000         207.000
   4480679.16749   3492482.08246  22049520.294    22049519.666    22049527.985
       215.000         164.000
 -15044206.05249 -11705264.59147  19692618.074    19692617.976    19692623.484
       244.000         210.000
   3344070.25049   2607264.27747  20960219.078    20960218.503    20960225.229
       231.000         189.000
 -17444099.73649 -13295977.83547  20665413.584    20665413.281    20665419.817
       231.000         188.000
 -28781573.78149 -22392398.41247  19322411.506    19322411.470    19322418.354
       240.000         205.000
 00  5 24 15 39 29.9940000  0  7G16G 4G 2G 9G 7G 5G24
  -8151699.62649  -6329924.59645  22811399.821    22811399.466    22811407.975
       212.000         151.000
 -18523598.36749 -14413489.67847  18959437.848    18959438.135    18959443.325
       238.000         207.000
   4530425.99749   3531245.72346  22058987.009    22058986.295    22058994.601
       218.000         166.000
 -15049980.19749 -11709763.95347  19691519.306    19691519.197    19691524.730
       244.000         209.000
   3375557.64049   2631799.86047  20966211.045    20966210.415    20966217.139
       232.000         189.000
 -17554663.90949 -13382131.70646  20644373.875    20644373.573    20644380.111
       231.000         186.000
 -28874632.42649 -22464911.61947  19304703.000    19304702.965    19304709.882
       240.000         205.000
 00  5 24 15 39 59.9940000  0  7G16G 4G 2G 9G 7G 5G24
  -8196883.47149  -6365132.81345  22802801.641    22802801.286    22802809.752
       212.000         152.000
 -18541825.48949 -14427692.64247  18955969.382    18955969.635    18955974.826
       238.000         207.000
   4580429.14849   3570209.11346  22068502.436    22068501.675    22068510.026
       217.000         163.000
 -15055193.35349 -11713826.17447  19690527.314    19690527.186    19690532.702
       245.000         210.000
   3407126.09749   2656398.62147  20972218.374    20972217.731    20972224.464
       230.000         189.000
 -17665073.38349 -13468165.04446  20623363.608    20623363.306    20623369.841
       231.000         186.000
 -28967207.24349 -22537047.81647  19287086.579    19287086.551    19287093.506
       240.000         205.000
 00  5 24 15 40 29.9940000  0  7G16G 4G 2G 9G 7G 5G24
  -8241541.65949  -6399931.44245  22794303.656    22794303.222    22794311.602
       214.000         157.000
 -18559442.20749 -14441419.97347  18952617.083    18952617.318    18952622.471
       238.000         207.000
   4630695.15349   3609377.34245  22078067.827    22078067.057    22078075.356
       213.000         162.000
 -15059839.29949 -11717446.41747  19689643.265    19689643.120    19689648.628
       244.000         210.000
   3438782.41949   2681065.83547  20978242.348    20978241.724    20978248.516
       229.000         190.000
 -17775319.20549 -13554070.86447  20602384.538    20602384.229    20602390.737
       232.000         188.000
 -29059289.29649 -22608800.04147  19269563.967    19269563.913    19269570.884
       241.000         205.000
 00  5 24 15 40 59.9940000  0  7G16G 4G 2G 9G 7G 5G24
  -8285658.07149  -6434307.88245  22785908.821    22785908.181    22785916.541
       211.000         156.000
 -18576435.04949 -14454661.16847  18949383.441    18949383.691    18949388.849
       239.000         207.000
   4681238.01749   3648761.27145  22087685.789    22087685.088    22087693.441
       215.000         161.000
 -15063904.54149 -11720614.16647  19688869.695    19688869.544    19688875.040
       244.000         209.000
   3470540.59949   2705812.41047  20984285.755    20984285.157    20984291.968
       232.000         190.000
 -17885384.73649 -13639836.17547  20581439.673    20581439.408    20581445.991
       230.000         188.000
 -29150862.29749 -22680155.60547  19252138.222    19252138.150    19252145.116
       240.000         205.000
 00  5 24 15 41 29.9940000  0  7G16G 4G 2G 9G 7G 5G24
  -8329244.47249  -6468271.31445  22777614.802    22777613.994    22777622.449
       215.000         160.000
 -18592817.71249 -14467426.89647  18946265.964    18946266.200    18946271.349
       238.000         207.000
   4732043.87349   3688350.14745  22097353.948    22097353.223    22097361.557
       212.000         159.000
 -15067402.96749 -11723340.24047  19688204.004    19688203.844    19688209.315
       244.000         209.000
   3502387.33049   2730628.00247  20990346.154    20990345.474    20990352.206
       232.000         189.000
 -17995281.28449 -13725469.83447  20560526.972    20560526.738    20560533.332
       233.000         188.000
 -29241937.64349 -22751123.39347  19234807.145    19234807.071    19234814.024
       240.000         205.000
 00  5 24 15 41 59.9940000  0  7G16G 4G 2G 9G 7G 5G24
  -8372275.35549  -6501801.86045  22769426.229    22769425.547    22769434.026
       215.000         157.000
 -18608567.06149 -14479699.13847  18943268.968    18943269.222    18943274.345
       239.000         207.000
   4783136.42649   3728162.41845  22107076.571    22107075.903    22107084.231
       215.000         158.000
 -15070311.71249 -11725606.82247  19687650.512    19687650.351    19687655.797
       244.000         210.000
   3534346.17849   2755530.94447  20996427.835    20996427.110    20996433.809
       232.000         189.000
 -18104982.92249 -13810951.62847  20539651.523    20539651.218    20539657.750
       232.000         189.000
 -29332489.78449 -22821683.49347  19217575.706    19217575.594    19217582.517
       240.000         206.000
 00  5 24 15 42 29.9940000  0  7G16G 4G 2G 9G 7G 5G24
  -8414774.14549  -6534917.77245  22761338.964    22761338.311    22761346.826
       215.000         157.000
 -18623709.12849 -14491498.17547  18940387.572    18940387.787    18940392.904
       239.000         207.000
   4834490.07649   3768178.15445  22116848.887    22116848.276    22116856.623
       214.000         158.000
 -15072656.68449 -11727434.09647  19687204.255    19687204.126    19687209.595
       244.000         209.000
   3566391.72049   2780501.44847  21002525.974    21002525.240    21002531.906
       232.000         190.000
 -18214512.65149 -13896299.45147  20518808.750    20518808.419    20518814.908
       232.000         189.000
 -29422541.72549 -22891853.81747  19200439.331    19200439.256    19200446.210
       240.000         205.000
 00  5 24 15 42 59.9940000  0  7G16G 4G 2G 9G 7G 5G24
  -8456713.63249  -6567597.87145  22753358.076    22753357.490    22753366.137
       215.000         157.000
 -18638218.98649 -14502804.57847  18937626.428    18937626.669    18937631.796
       238.000         207.000
   4886129.76349   3808416.76145  22126675.551    22126675.012    22126683.408
       213.000         157.000
 -15074413.13549 -11728802.77947  19686870.043    19686869.907    19686875.376
       244.000         210.000
   3598549.40349   2805559.33247  21008645.432    21008644.697    21008651.382
       231.000         189.000
 -18323842.61249 -13981491.60647  20498003.984    20498003.608    20498010.106
       233.000         191.000
 -29512066.24549 -22961613.17447  19183403.341    19183403.294    19183410.227
       240.000         206.000
 00  5 24 15 43 29.9940000  0  7G16G 4G 2G 9G 7G 5G24
  -8498123.62849  -6599865.39745  22745478.126    22745477.468    22745486.132
       214.000         155.000
 -18652128.46049 -14513643.15147  18934979.597    18934979.817    18934984.929
       239.000         207.000
   4938023.99749   3848853.70045  22136550.664    22136550.177    22136558.659
       210.000         157.000
 -15075613.36649 -11729738.04147  19686641.703    19686641.539    19686647.012
       245.000         209.000
   3630787.75349   2830680.06846  21014780.131    21014779.458    21014786.190
       230.000         187.000
 -18433001.97549 -14066550.83847  20477231.655    20477231.277    20477237.769
       233.000         190.000
 -29601092.66949 -23030984.41447  19166462.212    19166462.137    19166469.017
       240.000         205.000
 00  5 24 15 43 59.9940000  0  7G16G 4G 2G 9G 7G 5G24
  -8538986.45749  -6631706.59945  22737701.975    22737701.500    22737710.150
       213.000         153.000
 -18665422.43749 -14524002.12047  18932449.816    18932450.055    18932455.178
       238.000         207.000
   4990188.29149   3889501.07045  22146477.294    22146476.714    22146485.306
       209.000         159.000
 -15076242.25549 -11730228.10747  19686522.058    19686521.892    19686527.370
       244.000         210.000
   3663122.46049   2855875.89847  21020933.276    21020932.595    21020939.311
       231.000         188.000
 -18541972.77649 -14151463.14047  20456495.135    20456494.790    20456501.344
       232.000         189.000
 -29689603.29849 -23099953.73847  19149619.216    19149619.112    19149625.971
       240.000         206.000
 00  5 24 15 44 29.9940000  0  7G16G 4G 2G 9G 7G 5G24
  -8579285.98249  -6663108.84445  22730033.115    22730032.759    22730041.492
       214.000         155.000
 -18678087.06049 -14533870.68147  18930039.862    18930040.095    18930045.195
       238.000         207.000
   5042636.84249   3930369.96045  22156458.164    22156457.400    22156466.070
       211.000         160.000
 -15076285.95749 -11730262.19147  19686513.728    19686513.597    19686519.091
       244.000         210.000
   3695568.28349   2881158.30147  21027107.528    21027106.858    21027113.626
       230.000         188.000
 -18650737.94149 -14236215.20347  20435797.808    20435797.454    20435804.045
       232.000         190.000
 -29777581.69949 -23168508.33647  19132877.429    19132877.373    19132884.209
       240.000         206.000
 00  5 24 15 44 59.9940000  0  7G16G 4G 2G 9G 7G 5G24
  -8619056.79849  -6694099.08445  22722465.090    22722464.723    22722473.343
       215.000         154.000
 -18690159.28949 -14543277.63447  18927742.585    18927742.841    18927747.950
       239.000         207.000
   5095332.95049   3971431.73445  22166485.960    22166485.214    22166493.959
       207.000         160.000
 -15075781.70649 -11729869.28947  19686609.760    19686609.591    19686615.073
       244.000         209.000
   3728088.68149   2906498.80747  21033296.026    21033295.328    21033302.153
       231.000         189.000
 -18759331.61449 -14320833.63047  20415133.067    20415132.725    20415139.322
       231.000         189.000
 -29865062.33649 -23236675.06247  19116230.432    19116230.344    19116237.166
       240.000         205.000
 00  5 24 15 45 29.9940000  0  7G16G 4G 2G 9G 7G 5G24
  -8658300.57149  -6724678.63145  22714997.346    22714996.805    22715005.624
       212.000         156.000
 -18701642.86249 -14552225.89847  18925557.364    18925557.594    18925562.709
       239.000         207.000
   5148273.27249   4012683.80445  22176560.219    22176559.468    22176568.335
       210.000         160.000
 -15074733.48949 -11729052.51947  19686809.192    19686809.055    19686814.586
       244.000         209.000
   3760680.54849   2931895.01147  21039498.057    21039497.380    21039504.309
       229.000         188.000
 -18867754.58549 -14405319.05447  20394500.796    20394500.490    20394507.107
       232.000         189.000
 -29952046.23349 -23304454.71547  19099677.858    19099677.827    19099684.666
       240.000         205.000
 00  5 24 15 45 59.9940000  0  7G16G 4G 2G 9G 7G 5G24
  -8697009.13249  -6754841.10845  22707631.264    22707630.787    22707639.551
       214.000         154.000
 -18712532.13949 -14560711.07047  18923485.250    18923485.470    18923490.564
       239.000         207.000
   5201463.82449   4054130.85745  22186682.139    22186681.320    22186690.266
       212.000         159.000
 -15073135.75949 -11727807.55447  19687113.248    19687113.116    19687118.656
       244.000         209.000
   3793350.30749   2957351.91346  21045714.879    21045714.242    21045721.228
       230.000         187.000
 -18975998.25049 -14489664.74447  20373902.648    20373902.338    20373909.026
       233.000         190.000
 -30038525.21749 -23371840.92647  19083221.411    19083221.405    19083228.282
       240.000         206.000
 00  5 24 15 46 29.9940000  0  7G16G 4G 2G 9G 7G 5G24
  -8735176.73049  -6784582.07645  22700368.230    22700367.790    22700376.482
       215.000         157.000
 -18722823.78549 -14568730.56147  18921526.862    18921527.064    18921532.153
       239.000         207.000
   5254908.58649   4095776.00645  22196852.512    22196851.635    22196860.643
       213.000         161.000
 -15070985.17849 -11726131.80047  19687522.465    19687522.363    19687527.950
       244.000         209.000
   3826102.06749   2982872.71646  21051947.365    21051946.726    21051953.753
       230.000         187.000
 -19084055.87649 -14573865.48947  20353339.968    20353339.666    20353346.318
       233.000         190.000
 -30124493.15549 -23438828.92347  19066862.269    19066862.235    19066869.118
       240.000         205.000
 00  5 24 15 46 59.9940000  0  7G16G 4G 2G 9G 7G 5G24
  -8772793.91849  -6813894.15945  22693209.969    22693209.483    22693218.214
       213.000         158.000
 -18732510.79349 -14576278.90047  18919683.492    18919683.713    18919688.807
       239.000         207.000
   5308614.74649   4137624.83245  22207072.628    22207071.743    22207080.724
       213.000         160.000
 -15068274.91149 -11724019.93147  19688038.206    19688038.118    19688043.714
       244.000         208.000
   3858943.65149   3008463.50347  21058196.958    21058196.309    21058203.374
       230.000         188.000
 -19191917.57849 -14657913.55747  20332814.560    20332814.254    20332820.865
       232.000         190.000
 -30209940.77549 -23505411.47547  19050602.118    19050602.076    19050608.961
       240.000         205.000
 00  5 24 15 47 29.9940000  0  7G16G 4G 2G 9G 7G 5G24
  -8809841.82749  -6842762.63445  22686160.059    22686159.534    22686168.332
       214.000         157.000
 -18741576.11149 -14583342.80547  18917958.445    18917958.653    18917963.724
       238.000         206.000
   5362599.65349   4179690.88245  22217345.761    22217344.883    22217353.738
       216.000         158.000
 -15064987.84349 -11721458.60947  19688663.725    19688663.621    19688669.198
       244.000         208.000
   3891892.79849   3034138.11446  21064467.040    21064466.397    21064473.444
       230.000         187.000
 -19299563.09749 -14741793.16147  20312330.246    20312329.949    20312336.603
       232.000         190.000
 -30294848.33249 -23571573.20047  19034444.750    19034444.721    19034451.588
       240.000         205.000
 00  5 24 15 47 59.9940000  0  7G16G 4G 2G 9G 7G 5G24
  -8846345.21049  -6871206.81645  22679213.574    22679213.072    22679222.047
       212.000         159.000
 -18750047.06049 -14589943.56547  18916346.446    18916346.690    18916351.759
       238.000         206.000
   5416836.56349   4221953.29245  22227666.837    22227665.932    22227674.768
       215.000         159.000
 -15061151.72149 -11718469.45447  19689393.710    19689393.614    19689399.200
       243.000         208.000
   3924922.88449   3059875.78146  21070752.526    21070751.819    21070758.939
       229.000         187.000
 -19407016.87049 -14825523.36147  20291882.509    20291882.177    20291888.791
       233.000         190.000
 -30379240.55049 -23637333.36047  19018385.491    19018385.427    19018392.271
       241.000         206.000
 00  5 24 15 48 29.9940000  0  7G16G 4G 2G 9G 7G 5G24
  -8882326.19449  -6899243.94145  22672366.640    22672366.128    22672375.066
       213.000         157.000
 -18757948.08449 -14596100.23347  18914842.944    18914843.189    18914848.265
       239.000         206.000
   5471301.39849   4264393.27145  22238031.363    22238030.366    22238039.234
       209.000         158.000
 -15056791.10249 -11715071.60747  19690223.534    19690223.436    19690229.026
       244.000         209.000
   3958010.43249   3085658.22947  21077048.812    21077048.181    21077055.375
       230.000         188.000
 -19514300.03549 -14909120.63247  20271467.205    20271466.869    20271473.440
       232.000         191.000
 -30463139.40749 -23702709.08647  19002420.071    19002419.999    19002426.841
       240.000         205.000
 00  5 24 15 48 59.9940000  0  7G16G 4G 2G 9G 7G 5G24
  -8917750.38149  -6926847.19345  22665625.543    22665625.126    22665634.038
       213.000         158.000
 -18765247.01049 -14601787.72947  18913453.995    18913454.265    18913459.342
       238.000         206.000
   5526026.90549   4307036.38345  22248445.435    22248444.385    22248453.233
       217.000         158.000
 -15051873.97149 -11711240.10947  19691159.327    19691159.181    19691164.772
       244.000         209.000
   3991188.44949   3111511.16847  21083362.439    21083361.798    21083369.011
       230.000         188.000
 -19621377.37449 -14992557.49247  20251090.980    20251090.681    20251097.339
       232.000         191.000
 -30546510.01849 -23767673.19147  18986555.173    18986555.081    18986561.931
       240.000         205.000
 00  5 24 15 49 29.9940000  0  7G16G 4G 2G 9G 7G 5G24
  -8952635.34549  -6954030.28445  22658987.158    22658986.693    22658995.685
       212.000         157.000
 -18771963.83849 -14607021.64247  18912175.845    18912176.076    18912181.180
       239.000         206.000
   5580993.49249   4349867.37945  22258905.174    22258904.281    22258913.163
       207.000         156.000
 -15046420.23849 -11706990.48047  19692197.165    19692197.017    19692202.604
       244.000         208.000
   4024437.97949   3137419.84446  21089689.648    21089689.022    21089696.237
       230.000         187.000
 -19728265.26749 -15075846.73847  20230750.887    20230750.591    20230757.243
       234.000         191.000
 -30629369.78649 -23832239.23347  18970787.447    18970787.381    18970794.222
       240.000         206.000
 00  5 24 15 49 59.9940000  0  7G16G 4G 2G 9G 7G 5G24
  -8986980.15749  -6980792.45945  22652451.584    22652451.131    22652460.002
       216.000         156.000
 -18778100.00949 -14611803.09947  18911008.175    18911008.416    18911013.517
       239.000         207.000
   5636200.21049   4392885.43445  22269410.641    22269409.844    22269418.777
       211.000         155.000
 -15040431.44849 -11702323.91547  19693336.796    19693336.647    19693342.238
       243.000         208.000
   4057758.40349   3163383.75046  21096030.430    21096029.750    21096036.912
       230.000         187.000
 -19834961.98649 -15158987.03647  20210447.184    20210446.860    20210453.481
       234.000         191.000
 -30711717.46349 -23896406.24547  18955117.171    18955117.129    18955123.989
       240.000         205.000
 00  5 24 15 50 29.9940000  0  7G16G 4G 2G 9G 7G 5G24
  -9020783.72949  -7007132.89345  22646019.163    22646018.519    22646027.345
       216.000         159.000
 -18783656.74349 -14616133.04447  18909950.759    18909951.017    18909956.137
       238.000         207.000
   5691646.24049   4436090.03045  22279961.777    22279961.031    22279969.835
       211.000         153.000
 -15033908.93649 -11697241.46747  19694577.993    19694577.863    19694583.448
       244.000         208.000
   4091149.48949   3189402.72147  21102384.702    21102383.938    21102391.079
       230.000         188.000
 -19941465.64649 -15241976.88947  20190180.263    20190179.887    20190186.452
       234.000         192.000
 -30793551.81049 -23960173.25547  18939544.591    18939544.567    18939551.422
       240.000         205.000
 00  5 24 15 50 59.9940000  0  7G16G 4G 2G 9G 7G 5G24
  -9054033.22949  -7033041.54245  22639692.062    22639691.356    22639700.230
       215.000         159.000
 -18788623.52749 -14620003.28747  18909005.663    18909005.897    18909011.027
       239.000         207.000
   5747342.54149   4479489.64545  22290560.452    22290559.821    22290568.565
       208.000         153.000
 -15026842.62249 -11691735.27547  19695922.724    19695922.576    19695928.143
       244.000         209.000
   4124622.79249   3215485.75646  21108754.507    21108753.749    21108760.935
       230.000         187.000
 -20047762.14649 -15324805.31247  20169952.670    20169952.340    20169958.907
       235.000         194.000
 -30874859.63449 -24023529.99247  18924072.219    18924072.191    18924079.052
       240.000         206.000
 00  5 24 15 51 29.9940000  0  7G16G 4G 2G 9G 7G 5G24
  -9086743.77949  -7058530.27845  22633467.261    22633466.662    22633475.634
       213.000         158.000
 -18793017.75349 -14623427.38247  18908169.462    18908169.709    18908174.884
       238.000         207.000
   5803272.48349   4523071.27145  22301203.716    22301203.026    22301211.949
       211.000         155.000
 -15019250.07649 -11685819.04647  19697367.608    19697367.434    19697372.987
       243.000         208.000
   4158161.87849   3241620.05146  21115136.915    21115136.095    21115143.294
       230.000         187.000
 -20153865.66649 -15407483.36247  20149761.886    20149761.525    20149768.072
       234.000         194.000
 -30955655.66549 -24086487.92847  18908697.220    18908697.213    18908704.101
       240.000         206.000
 00  5 24 15 51 59.9940000  0  7G16G 4G 2G 9G 7G 5G24
  -9118906.25549  -7083591.94545  22627346.844    22627346.372    22627355.373
       212.000         158.000
 -18796832.21649 -14626399.71247  18907443.617    18907443.832    18907449.074
       238.000         208.000
   5859443.56449   4566840.80345  22311892.911    22311892.148    22311901.177
       209.000         156.000
 -15011124.32149 -11679487.31947  19698913.826    19698913.715    19698919.282
       243.000         208.000
   4191774.79449   3267811.87646  21121533.260    21121532.470    21121539.700
       228.000         185.000
 -20259765.97249 -15490003.07247  20129609.686    20129609.362    20129615.868
       235.000         193.000
 -31035930.51449 -24149039.74547  18893421.406    18893421.392    18893428.319
       240.000         207.000
 00  5 24 15 52 29.9940000  0  7G16G 4G 2G 9G 7G 5G24
  -9150522.58849  -7108228.06345  22621330.376    22621329.997    22621338.920
       212.000         156.000
 -18800071.53749 -14628923.88347  18906827.187    18906827.426    18906832.692
       238.000         208.000
   5915851.99549   4610795.29245  22322627.049    22322626.384    22322635.537
       209.000         157.000
 -15002469.92849 -11672743.67647  19700560.698    19700560.605    19700566.175
       244.000         208.000
   4225458.23949   3294058.65646  21127942.844    21127942.195    21127949.494
       229.000         186.000
 -20365464.08849 -15572365.22047  20109495.930    20109495.624    20109502.171
       233.000         193.000
 -31115685.72149 -24211186.65147  18878244.465    18878244.481    18878251.421
       240.000         207.000
 00  5 24 15 52 59.9940000  0  7G16G 4G 2G 9G 7G 5G24
  -9181584.21549  -7132431.93245  22615419.508    22615419.140    22615428.063
       212.000         157.000
 -18802729.32449 -14630994.91147  18906321.455    18906321.687    18906326.957
       238.000         208.000
   5972504.63549   4654940.06745  22333407.686    22333407.119    22333416.256
       212.000         158.000
 -14993280.31949 -11665582.97747  19702309.515    19702309.373    19702314.950
       244.000         208.000
   4259219.66949   3320366.20846  21134367.443    21134366.793    21134374.118
       228.000         186.000
 -20470950.02249 -15654562.04347  20089422.617    20089422.313    20089428.837
       236.000         194.000
 -31194912.45449 -24272921.76147  18863168.201    18863168.152    18863175.105
       241.000         207.000
 00  5 24 15 53 29.9940000  0  7G16G 4G 2G 9G 7G 5G24
  -9212104.79749  -7156214.22145  22609611.599    22609611.307    22609620.207
       215.000         159.000
 -18804821.57749 -14632625.26447  18905923.351    18905923.561    18905928.853
       239.000         207.000
   6029386.02249   4699263.09245  22344232.183    22344231.471    22344240.456
       213.000         159.000
 -14983571.82849 -11658017.95247  19704157.002    19704156.859    19704162.440
       243.000         207.000
   4293044.26549   3346722.97446  21140804.102    21140803.450    21140810.775
       229.000         184.000
 -20576236.25049 -15736603.24747  20069387.393    20069387.043    20069393.557
       235.000         195.000
 -31273623.89249 -24334255.34547  18848189.926    18848189.874    18848196.804
       241.000         206.000
 00  5 24 15 53 59.9940000  0  7G16G 4G 2G 9G 7G 5G24
  -9242107.46949  -7179592.92245  22603902.373    22603902.000    22603910.820
       213.000         156.000
 -18806373.67749 -14633834.71447  18905627.962    18905628.221    18905633.509
       239.000         207.000
   6086471.11949   4743744.86945  22355095.305    22355094.535    22355103.423
       214.000         161.000
 -14973370.10349 -11650068.58847  19706098.348    19706098.198    19706103.789
       243.000         208.000
   4326907.65849   3373109.97846  21147248.162    21147247.500    21147254.811
       229.000         185.000
 -20681345.05749 -15818506.19647  20049385.925    20049385.526    20049392.007
       236.000         194.000
 -31351843.30549 -24395205.53047  18833305.293    18833305.226    18833312.121
       240.000         206.000
 00  5 24 15 54 29.9940000  0  7G16G 4G 2G 9G 7G 5G24
  -9271541.12649  -7202528.24645  22598301.209    22598300.960    22598309.804
       214.000         160.000
 -18807336.82249 -14634585.24247  18905444.727    18905444.974    18905450.240
       240.000         208.000
   6143809.58549   4788424.03145  22366006.692    22366005.844    22366014.740
       212.000         160.000
 -14962626.14849 -11641696.70947  19708142.885    19708142.729    19708148.341
       243.000         207.000
   4360859.95949   3399566.26246  21153709.108    21153708.458    21153715.780
       229.000         185.000
 -20786223.77749 -15900229.86647  20029428.246    20029427.790    20029434.259
       236.000         195.000
 -31429518.75549 -24455731.85047  18818524.165    18818524.086    18818530.974
       241.000         206.000
 00  5 24 15 54 59.9940000  0  7G16G 4G 2G 9G 7G 5G24
  -9300401.21049  -7225016.67145  22592809.151    22592809.078    22592817.990
       213.000         159.000
 -18807708.84149 -14634875.15447  18905374.037    18905374.215    18905379.463
       240.000         208.000
   6201404.23049   4833302.82645  22376966.605    22376965.834    22376974.774
       210.000         155.000
 -14951337.94049 -11632900.73147  19710290.935    19710290.805    19710296.464
       243.000         207.000
   4394904.72049   3426094.58746  21160187.560    21160186.969    21160194.336
       229.000         185.000
 -20890866.76849 -15981769.84947  20009515.311    20009514.883    20009521.353
       235.000         194.000
 -31506645.78249 -24515830.82747  18803847.416    18803847.329    18803854.166
       240.000         207.000
 00  5 24 15 55 29.9940000  0  7G16G 4G 2G 9G 7G 5G24
  -9328708.85149  -7247074.58245  22587422.516    22587422.337    22587431.259
       214.000         158.000
 -18807512.89749 -14634722.49747  18905411.330    18905411.527    18905416.774
       238.000         208.000
   6259232.17249   4878363.43645  22387970.858    22387970.209    22387979.190
       206.000         152.000
 -14939529.16749 -11623699.12447  19712538.096    19712537.957    19712543.654
       243.000         207.000
   4429019.50449   3452677.47546  21166679.397    21166678.836    21166686.193
       228.000         184.000
 -20995293.76349 -16063141.51847  19989643.484    19989643.090    19989649.535
       235.000         195.000
 -31583244.91349 -24575518.45747  18789271.057    18789271.005    18789277.837
       240.000         207.000
 00  5 24 15 55 59.9940000  0  7G16G 4G 2G 9G 7G 5G24
  -9356457.70649  -7268697.10245  22582142.158    22582141.922    22582150.835
       213.000         156.000
 -18806745.06849 -14634124.21247  18905557.451    18905557.658    18905562.909
       239.000         208.000
   6317298.21149   4923609.53445  22399020.681    22399019.975    22399029.015
       210.000         153.000
 -14927195.85949 -11614088.78647  19714885.119    19714884.952    19714890.629
       243.000         208.000
   4463209.80749   3479319.23046  21173185.652    21173185.091    21173192.343
       229.000         183.000
 -21099497.11249 -16144338.91647  19969814.265    19969813.855    19969820.271
       235.000         195.000
 -31659309.60149 -24634789.63247  18774796.483    18774796.373    18774803.218
       240.000         206.000
 00  5 24 15 56 29.9940000  0  7G16G 4G 2G 9G 7G 5G24
  -9383627.25449  -7289868.23945  22576971.780    22576971.679    22576980.621
       213.000         156.000
 -18805387.00349 -14633066.00847  18905815.852    18905816.110    18905821.361
       239.000         208.000
   6375621.42849   4969056.04445  22410119.664    22410118.731    22410127.765
       206.000         152.000
 -14914319.84449 -11604055.56447  19717335.364    19717335.215    19717340.885
       243.000         207.000
   4497495.15949   3506035.03846  21179709.996    21179709.416    21179716.653
       229.000         183.000
 -21203455.16549 -16225345.17847  19950031.621    19950031.264    19950037.662
       235.000         195.000
 -31734818.92949 -24693628.06347  18760427.525    18760427.428    18760434.242
       240.000         206.000
 00  5 24 15 56 59.9940000  0  7G16G 4G 2G 9G 7G 5G24
  -9410237.27249  -7310603.32145  22571908.160    22571907.992    22571916.969
       215.000         158.000
 -18803460.69749 -14631565.01547  18906182.422    18906182.699    18906187.955
       239.000         208.000
   6434180.23249   5014686.11845  22421263.134    22421262.197    22421271.328
       205.000         151.000
 -14900923.02249 -11593616.51747  19719884.780    19719884.591    19719890.258
       243.000         207.000
   4531854.97549   3532808.85146  21186248.549    21186247.952    21186255.199
       229.000         183.000
 -21307186.16549 -16306174.51847  19930292.254    19930291.911    19930298.289
       236.000         195.000
 -31809792.30149 -24752048.86347  18746160.538    18746160.470    18746167.284
       240.000         206.000
 00  5 24 15 57 29.9940000  0  7G16G 4G 2G 9G 7G 5G24
  -9436324.08349  -7330930.74345  22566944.214    22566943.887    22566952.730
       217.000         155.000
 -18801004.72149 -14629651.29547  18906649.814    18906650.069    18906655.327
       239.000         208.000
   6492936.54849   5060470.14645  22432444.474    22432443.265    22432452.453
       209.000         150.000
 -14887044.27449 -11582801.94447  19722525.785    19722525.623    19722531.343
       242.000         207.000
   4566251.89149   3559611.58646  21192794.193    21192793.533    21192800.730
       230.000         182.000
 -21410724.94749 -16386854.07947  19910589.445    19910589.135    19910595.477
       236.000         196.000
 -31884265.71749 -24810080.08947  18731988.743    18731988.660    18731995.470
       239.000         206.000
 00  5 24 15 57 59.9940000  0  7G16G 4G 2G 9G 7G 5G24
  -9461849.16049  -7350820.41945  22562087.044    22562086.688    22562095.420
       215.000         156.000
 -18797982.86649 -14627296.62947  18907224.891    18907225.125    18907230.391
       239.000         208.000
   6551927.44049   5106436.92245  22443670.045    22443668.897    22443678.170
       205.000         147.000
 -14872647.39649 -11571583.63147  19725265.404    19725265.273    19725271.013
       243.000         207.000
   4600723.57549   3586472.57946  21199353.990    21199353.321    21199360.507
       228.000         181.000
 -21514031.48749 -16467352.66747  19890930.858    19890930.530    19890936.911
       235.000         196.000
 -31958200.28249 -24867691.42947  18717919.442    18717919.381    18717926.193
       240.000         206.000
 00  5 24 15 58 29.9940000  0  7G16G 4G 2G 9G 7G 5G24
  -9486760.75249  -7370232.08745  22557346.644    22557346.165    22557354.825
       215.000         155.000
 -18794345.94549 -14624462.69047  18907917.037    18907917.234    18907922.508
       240.000         208.000
   6611202.74549   5152625.32545  22454949.564    22454948.697    22454957.996
       211.000         153.000
 -14857683.29649 -11559923.33747  19728112.964    19728112.838    19728118.618
       242.000         207.000
   4635320.61449   3613431.25146  21205937.536    21205936.923    21205944.113
       228.000         180.000
 -21617053.18849 -16547629.31047  19871326.386    19871326.113    19871332.562
       235.000         195.000
 -32031543.98349 -24924842.36147  18703962.592    18703962.546    18703969.339
       239.000         206.000
 00  5 24 15 58 59.9940000  0  7G16G 4G 2G 9G 7G 5G24
  -9511069.59949  -7389174.06245  22552720.960    22552720.395    22552729.013
       213.000         153.000
 -18790106.63549 -14621159.35747  18908723.764    18908723.953    18908729.223
       239.000         208.000
   6670750.38749   5199025.95745  22466281.468    22466280.350    22466289.701
       209.000         151.000
 -14842164.87049 -11547831.09847  19731065.999    19731065.913    19731071.702
       243.000         207.000
   4670031.77449   3640478.85846  21212542.862    21212542.276    21212549.467
       228.000         181.000
 -21719799.02349 -16627690.99847  19851774.536    19851774.212    19851780.684
       236.000         196.000
 -32104307.20449 -24981540.96147  18690116.148    18690116.135    18690122.947
       239.000         206.000
 00  5 24 15 59 29.9940000  0  8G16G30G 4G 2G 9G 7G 5G24
  -9534818.25949  -7407679.57145  22548201.613    22548201.163    22548209.781
       210.000         153.000
   -352535.53159   -251090.04455  22862646.006    22862646.400    22862655.564
       219.000         160.000
 -18785309.57449 -14617421.41047  18909636.581    18909636.802    18909642.114
       239.000         207.000
   6730526.54949   5245604.62845  22477656.539    22477655.517    22477664.825
       209.000         153.000
 -14826136.81549 -11535341.75147  19734116.096    19734115.997    19734121.735
       243.000         206.000
   4704813.79549   3667581.66646  21219161.701    21219161.104    21219168.353
       227.000         180.000
 -21822309.93249 -16707569.62747  19832267.322    19832267.014    19832273.516
       235.000         196.000
 -32176532.00249 -25037820.01947  18676372.176    18676372.197    18676379.032
       239.000         206.000
 00  5 24 15 59 59.9940000  0  8G16G30G 4G 2G 9G 7G 5G24
  -9558009.81449  -7425750.96245  22543788.233    22543787.882    22543796.572
       210.000         156.000
   -483441.36459   -353094.54955  22837735.605    22837736.681    22837744.962
       216.000         156.000
 -18779960.04849 -14613252.96947  18910654.561    18910654.809    18910660.116
       240.000         207.000
   6790526.69849   5292357.86445  22489074.176    22489073.299    22489082.538
       209.000         150.000
 -14809604.26549 -11522459.28947  19737262.159    19737262.057    19737267.819
       242.000         207.000
   4739662.80049   3694736.68246  21225793.315    21225792.708    21225799.951
       228.000         179.000
 -21924587.38049 -16787266.33847  19812804.650    19812804.280    19812810.756
       236.000         196.000
 -32248221.10349 -25093681.64747  18662730.209    18662730.209    18662737.053
       239.000         205.000
 00  5 24 16  0 29.9930000  0  8G16G30G 4G 2G 9G 7G 5G24
  -9580646.94349  -7443390.33045  22539480.706    22539480.211    22539488.956
       215.000         157.000
   -614343.04349   -455095.80345  22812825.957    22812826.796    22812835.200
       215.000         149.000
 -18774064.15049 -14608658.78647  18911776.530    18911776.786    18911782.078
       239.000         208.000
   6850743.52349   5339279.96045  22500533.189    22500532.285    22500541.412
       211.000         150.000
 -14792574.14849 -11509189.11247  19740502.938    19740502.816    19740508.568
       243.000         207.000
   4774573.19449   3721939.52446  21232436.699    21232435.982    21232443.185
       228.000         179.000
 -22026630.04549 -16866780.09547  19793386.612    19793386.216    19793392.659
       236.000         196.000
 -32319375.32749 -25149126.48947  18649189.983    18649189.994    18649196.841
       239.000         205.000
 00  5 24 16  0 59.9930000  0  8G16G30G 4G 2G 9G 7G 5G24
  -9602720.36349  -7460590.43545  22535280.217    22535279.744    22535288.578
       212.000         156.000
   -745236.99949   -557091.06445  22787917.745    22787918.362    22787927.140
       216.000         152.000
 -18767612.69449 -14603631.69947  18913004.188    18913004.455    18913009.780
       239.000         207.000
   6911190.41849   5386381.30345  22512035.639    22512035.000    22512044.298
       207.000         148.000
 -14775036.81149 -11495523.70247  19743840.279    19743840.114    19743845.856
       243.000         207.000
   4809557.65149   3749200.07846  21239094.093    21239093.360    21239100.541
       227.000         178.000
 -22128432.29149 -16946106.51747  19774014.335    19774013.921    19774020.307
       238.000         197.000
 -32389988.32749 -25204149.59747  18635752.820    18635752.788    18635759.633
       239.000         205.000
 00  5 24 16  1 29.9930000  0  8G16G30G 4G 2G 9G 7G 5G24
  -9624241.51449  -7477360.15945  22531184.983    22531184.461    22531193.280
       213.000         157.000
   -876129.97249   -659085.53045  22763009.722    22763010.185    22763018.806
       210.000         150.000
 -18760620.26449 -14598183.07347  18914334.837    18914335.104    18914340.433
       239.000         208.000
   6971851.87249   5433649.80045  22523579.108    22523578.535    22523587.971
       203.000         150.000
 -14757006.97849 -11481474.52747  19747271.281    19747271.104    19747276.865
       242.000         206.000
   4844602.11349   3776507.39046  21245762.819    21245762.153    21245769.343
       227.000         179.000
 -22230001.10949 -17025251.03847  19754686.429    19754686.030    19754692.424
       237.000         197.000
 -32460069.30849 -25258758.15047  18622416.827    18622416.819    18622423.658
       239.000         205.000
 00  5 24 16  1 59.9930000  0  8G16G30G 4G 2G 9G 7G 5G24
  -9645207.49749  -7493697.35445  22527195.437    22527194.818    22527203.591
       216.000         159.000
  -1007018.16549   -761076.22645  22738102.402    22738102.933    22738111.447
       212.000         146.000
 -18753086.23549 -14592312.42647  18915768.568    18915768.816    18915774.135
       240.000         207.000
   7032729.19349   5481086.50045  22535163.476    22535163.109    22535172.698
       207.000         148.000
 -14738484.26549 -11467041.28547  19750796.042    19750795.891    19750801.641
       243.000         206.000
   4879708.70349   3803863.12046  21252443.286    21252442.727    21252450.028
       227.000         178.000
 -22331331.99549 -17104210.16347  19735403.762    19735403.389    19735409.810
       237.000         197.000
 -32529615.29549 -25312949.82847  18609182.650    18609182.644    18609189.476
       238.000         205.000
 00  5 24 16  2 29.9930000  0  8G16G30G 4G 2G 9G 7G 5G24
  -9665623.85449  -7509606.23345  22523310.597    22523309.877    22523318.554
       215.000         161.000
  -1137905.97649   -863066.73245  22713195.473    22713195.902    22713204.146
       217.000         151.000
 -18745018.42149 -14586025.83947  18917303.844    18917304.084    18917309.413
       239.000         207.000
   7093815.43949   5528685.97745  22546788.007    22546787.534    22546797.155
       205.000         147.000
 -14719476.58049 -11452230.14747  19754413.151    19754412.979    19754418.731
       242.000         206.000
   4914871.23149   3831262.42846  21259134.559    21259133.995    21259141.321
       228.000         180.000
 -22432428.97449 -17182987.01147  19716165.636    19716165.246    19716171.707
       237.000         197.000
 -32598631.39749 -25366728.60647  18596049.353    18596049.314    18596056.133
       238.000         205.000
 00  5 24 16  2 59.9930000  0  8G16G30G 4G 2G 9G 7G 5G24
  -9685461.79349  -7525064.40245  22519535.510    22519534.853    22519543.634
       213.000         158.000
  -1268763.08849   -965033.19545  22688294.379    22688294.673    22688302.711
       215.000         155.000
 -18736389.92549 -14579302.35947  18918945.837    18918946.046    18918951.369
       240.000         207.000
   7155138.05949   5576469.66645  22558457.596    22558456.995    22558466.626
       202.000         144.000
 -14699957.25249 -11437020.32647  19758127.617    19758127.424    19758133.180
       243.000         207.000
   4950118.22849   3858727.56646  21265841.993    21265841.378    21265848.646
       226.000         178.000
 -22533261.08149 -17261557.46947  19696977.935    19696977.530    19696983.991
       237.000         197.000
 -32667088.06249 -25420071.46547  18583022.451    18583022.433    18583029.253
       238.000         205.000
 00  5 24 16  3 29.9930000  0  8G16G30G 4G 2G 9G 7G 5G24
  -9704750.34249  -7540094.46245  22515864.893    22515864.398    22515873.280
       215.000         157.000
  -1399617.38349  -1066997.52445  22663393.620    22663393.908    22663401.919
       217.000         159.000
 -18727232.14049 -14572166.44447  18920688.547    18920688.733    18920694.063
       239.000         207.000
   7216666.47149   5624413.77245  22570166.132    22570165.463    22570175.188
       205.000         145.000
 -14679957.83449 -11421436.39747  19761933.453    19761933.242    19761938.978
       243.000         206.000
   4985420.00849   3886235.37546  21272559.776    21272559.124    21272566.426
       227.000         177.000
 -22633855.66749 -17339942.85047  19677835.433    19677835.016    19677841.452
       238.000         197.000
 -32735014.16149 -25473000.89247  18570096.518    18570096.508    18570103.329
       238.000         205.000
 00  5 24 16  3 59.9930000  0  8G16G30G 4G 2G 9G 7G 5G24
  -9723492.66749  -7554698.87945  22512298.234    22512297.853    22512306.845
       216.000         157.000
  -1530470.77949  -1168961.13945  22638493.036    22638493.367    22638501.330
       216.000         159.000
 -18717550.41249 -14564622.26347  18922530.941    18922531.119    18922536.469
       240.000         207.000
   7278395.98749   5672514.50845  22581913.161    22581912.358    22581922.109
       209.000         148.000
 -14659483.78949 -11405482.63147  19765829.618    19765829.389    19765835.099
       243.000         207.000
   5020772.78749   3913782.94246  21279287.278    21279286.600    21279293.828
       228.000         178.000
 -22734214.46949 -17418144.50647  19658737.825    19658737.391    19658743.764
       237.000         197.000
 -32802412.60849 -25525519.16647  18557271.062    18557271.038    18557277.814
       238.000         205.000
 00  5 24 16  4 29.9930000  0  8G16G30G 4G 2G 9G 7G 5G24
  -9741671.28949  -7568864.09045  22508839.012    22508838.636    22508847.549
       217.000         158.000
  -1661304.54949  -1270909.45045  22613596.325    22613596.590    22613604.478
       211.000         151.000
 -18707329.41849 -14556657.87447  18924475.957    18924476.133    18924481.487
       239.000         207.000
   7340342.95849   5720784.74145  22593701.413    22593700.670    22593710.379
       211.000         144.000
 -14638519.94649 -11389147.21347  19769818.947    19769818.725    19769824.416
       243.000         206.000
   5056193.54949   3941383.47246  21286027.801    21286027.049    21286034.212
       228.000         179.000
 -22834317.99549 -17496147.24047  19639688.643    19639688.290    19639694.679
       237.000         197.000
 -32869265.32249 -25577612.18147  18544549.419    18544549.407    18544556.193
       238.000         205.000
 00  5 24 16  4 59.9930000  0  8G16G30G 4G 2G 9G 7G 5G24
  -9759294.19849  -7582596.25045  22505485.452    22505485.067    22505494.151
       214.000         156.000
  -1792125.20349  -1372847.56145  22588702.188    22588702.251    22588710.061
       216.000         150.000
 -18696579.18149 -14548281.09047  18926521.620    18926521.853    18926527.216
       239.000         206.000
   7402498.09349   5769217.15645  22605529.143    22605528.573    22605538.281
       207.000         146.000
 -14617076.15049 -11372437.81147  19773899.603    19773899.365    19773905.104
       243.000         206.000
   5091673.91149   3969030.44446  21292779.615    21292778.821    21292785.981
       227.000         177.000
 -22934172.30749 -17573955.78647  19620686.976    19620686.639    19620693.010
       238.000         198.000
 -32935580.12949 -25629286.05747  18531930.156    18531930.117    18531936.908
       238.000         205.000
 00  5 24 16  5 29.9930000  0  8G16G30G 4G 2G 9G 7G 5G24
  -9776374.47549  -7595905.60745  22502235.367    22502234.901    22502243.896
       218.000         157.000
  -1922944.41849  -1474784.56345  22563807.834    22563808.069    22563815.860
       215.000         147.000
 -18685314.80149 -14539503.67547  18928665.177    18928665.409    18928670.768
       239.000         207.000
   7464846.84149   5817800.47045  22617393.748    22617393.303    22617403.103
       205.000         143.000
 -14595167.97949 -11355366.55747  19778068.572    19778068.361    19778074.126
       242.000         205.000
   5127200.48349   3996713.42946  21299540.083    21299539.363    21299546.525
       226.000         176.000
 -23033788.69149 -17651578.92447  19601730.586    19601730.256    19601736.629
       237.000         198.000
 -33001369.27749 -25680550.33147  18519410.882    18519410.874    18519417.659
       238.000         205.000
 00  5 24 16  5 59.9930000  0  8G16G30G 4G 2G 9G 7G 5G24
  -9792892.67749  -7608776.95245  22499092.137    22499091.676    22499100.598
       217.000         159.000
  -2053741.41949  -1576704.24445  22538917.746    22538918.189    22538925.982
       219.000         151.000
 -18673519.19849 -14530312.32547  18930909.813    18930910.056    18930915.404
       239.000         206.000
   7527407.23049   5866548.64145  22629298.942    22629298.242    22629308.130
       206.000         141.000
 -14572778.18949 -11337920.01047  19782329.213    19782329.029    19782334.776
       242.000         205.000
   5162792.30249   4024447.25346  21306313.051    21306312.360    21306319.465
       226.000         176.000
 -23133145.98049 -17729000.17947  19582823.557    19582823.202    19582829.550
       237.000         198.000
 -33066613.29349 -25731389.82547  18506995.358    18506995.326    18507002.121
       236.000         205.000
 00  5 24 16  6 29.9930000  0  8G16G30G 4G 2G 9G 7G 5G24
  -9808851.31549  -7621212.30445  22496055.470    22496054.927    22496063.813
       218.000         160.000
  -2184517.05349  -1678607.34645  22514031.981    22514032.379    22514040.046
       221.000         151.000
 -18661196.71549 -14520710.41147  18933254.766    18933254.973    18933260.313
       240.000         207.000
   7590175.75449   5915459.05645  22641243.636    22641242.871    22641252.525
       203.000         135.000
 -14549911.74249 -11320102.04847  19786680.601    19786680.406    19786686.154
       242.000         205.000
   5198446.35249   4052229.56646  21313097.836    21313097.141    21313104.201
       227.000         175.000
 -23232244.38449 -17806219.70547  19563965.723    19563965.398    19563971.717
       238.000         199.000
 -33131314.25549 -25781806.15447  18494683.182    18494683.160    18494689.943
       238.000         205.000
 00  5 24 16  6 59.9930000  0  8G16G30G 4G 2G 9G 7G 5G24
  -9824250.02349  -7633211.32645  22493125.136    22493124.646    22493133.512
       215.000         154.000
  -2315269.93549  -1780492.65545  22489150.654    22489150.944    22489158.502
       224.000         159.000
 -18648349.52349 -14510699.63947  18935699.504    18935699.730    18935705.071
       240.000         207.000
   7653151.17449   5964530.58844  22653227.380    22653226.684    22653236.430
       199.000         131.000
 -14526570.47049 -11301914.10347  19791122.339    19791122.131    19791127.894
       242.000         205.000
   5234162.51049   4080060.26746  21319894.525    21319893.803    21319900.785
       226.000         175.000
 -23331082.07249 -17883236.07447  19545157.528    19545157.210    19545163.532
       237.000         198.000
 -33195471.49949 -25831798.81247  18482474.441    18482474.438    18482481.222
       237.000         205.000
 00  5 24 16  7 29.9930000  0  8G16G30G 4G 2G 9G 7G 5G24
  -9839082.50049  -7644769.12045  22490302.611    22490302.142    22490310.974
       216.000         155.000
  -2445991.95449  -1882353.94145  22464275.045    22464275.334    22464282.965
       220.000         160.000
 -18634973.08549 -14500276.46747  18938244.980    18938245.198    18938250.527
       239.000         207.000
   7716338.76749   6013767.53245  22665251.598    22665250.776    22665260.641
       202.000         139.000
 -14502750.10449 -11283352.82647  19795655.224    19795655.026    19795660.834
       241.000         205.000
   5269947.13449   4107944.32546  21326704.166    21326703.461    21326710.412
       226.000         175.000
 -23429650.64649 -17960042.74447  19526400.505    19526400.205    19526406.532
       237.000         198.000
 -33259078.04649 -25881362.35747  18470370.517    18470370.509    18470377.293
       237.000         204.000
 00  5 24 16  7 59.9930000  0  8G16G30G 4G 2G 9G 7G 5G24
  -9853358.22049  -7655893.09045  22487586.008    22487585.607    22487594.440
       215.000         156.000
  -2576691.15349  -1984197.41445  22439403.555    22439403.966    22439411.740
       216.000         153.000
 -18621078.99349 -14489449.92747  18940888.922    18940889.175    18940894.498
       239.000         207.000
   7779727.66349   6063161.30145  22677314.200    22677313.412    22677323.249
       205.000         143.000
 -14478462.37449 -11264427.36947  19800276.991    19800276.830    19800282.698
       241.000         205.000
   5305790.39949   4135874.07746  21333524.944    21333524.283    21333531.241
       225.000         175.000
 -23527957.59749 -18036645.55447  19507693.321    19507693.001    19507699.317
       238.000         198.000
 -33322143.02849 -25930503.90147  18458369.683    18458369.648    18458376.435
       238.000         205.000
 00  5 24 16  8 29.9930000  0  8G16G30G 4G 2G 9G 7G 5G24
  -9867093.52949  -7666595.95345  22484972.493    22484971.958    22484980.636
       215.000         154.000
  -2707382.08349  -2086034.45145  22414533.854    22414534.245    22414541.993
       218.000         154.000
 -18606685.64649 -14478234.36247  18943627.950    18943628.183    18943633.483
       240.000         207.000
   7843300.48849   6112698.42045  22689411.681    22689411.028    22689421.051
       202.000         140.000
 -14453726.03849 -11245152.35047  19804984.198    19804984.020    19804989.923
       241.000         205.000
   5341675.67049   4163836.55946  21340353.720    21340353.095    21340360.066
       225.000         174.000
 -23626017.31849 -18113055.71747  19489033.128    19489032.836    19489039.165
       237.000         199.000
 -33384682.52349 -25979235.98147  18446468.829    18446468.797    18446475.571
       237.000         205.000
 00  5 24 16  8 59.9930000  0  9G16G30G 4G 2G 9G10G 7G 5G24
  -9880279.51549  -7676870.75645  22482463.381    22482462.778    22482471.387
       216.000         153.000
  -2838054.14949  -2187856.80445  22389667.962    22389668.225    22389675.819
       219.000         157.000
 -18591786.22549 -14466624.45047  18946463.241    18946463.478    18946468.775
       240.000         207.000
   7907064.71348   6162384.67545  22701545.742    22701545.049    22701555.221
       194.000         140.000
 -14428534.03749 -11225522.27247  19809778.073    19809777.919    19809783.852
       241.000         204.000
   -225785.63255                  22950012.735
       204.000         133.000
   5377611.80449   4191838.68646  21347192.194    21347191.552    21347198.470
       224.000         172.000
 -23723818.63049 -18189264.52047  19470422.101    19470421.842    19470428.167
       237.000         199.000
 -33446686.87249 -26027551.05647  18434669.787    18434669.750    18434676.541
       237.000         204.000
 00  5 24 16  9 29.9930000  0  9G16G30G 4G 2G 9G10G 7G 5G24
  -9892898.23649  -7686703.56645  22480062.023    22480061.501    22480070.165
       210.000         150.000
  -2968688.06849  -2289649.43345  22364809.114    22364809.460    22364816.955
       214.000         153.000
 -18576364.83349 -14454607.81247  18949397.908    18949398.105    18949403.389
       240.000         207.000
   7971036.98349   6212232.95645  22713719.543    22713718.726    22713729.010
       199.000         144.000
 -14402870.63049 -11205524.86847  19814661.685    19814661.532    19814667.473
       242.000         205.000
   -452016.89249   -325771.87345  22925595.097    22925592.276    22925604.831
       198.000         132.000
   5413616.41149   4219894.15146  21354043.516    21354042.984    21354049.986
       224.000         173.000
 -23821341.41649 -18265256.30347  19451864.108    19451863.885    19451870.163
       237.000         198.000
 -33508137.96449 -26075435.02847  18422976.026    18422976.013    18422982.805
       237.000         204.000
 00  5 24 16  9 59.9930000  0  9G16G30G 4G 2G 9G10G 7G 5G24
  -9904958.89249  -7696101.48545  22477766.836    22477766.408    22477775.039
       212.000         150.000
  -3099291.26249  -2391418.11745  22339956.088    22339956.416    22339963.901
       210.000         151.000
 -18560432.87349 -14442193.32347  18952429.688    18952429.891    18952435.170
       240.000         207.000
   8035206.85249   6262235.25045  22725931.015    22725929.996    22725940.383
       200.000         146.000
 -14376747.53049 -11185169.25747  19819632.813    19819632.642    19819638.589
       241.000         204.000
   -580431.50049   -425835.08754  22901158.202    22901156.205    22901168.647
       196.000         125.000
   5449679.88749   4247995.48646  21360906.264    21360905.679    21360912.799
       225.000         175.000
 -23918593.11849 -18341036.84347  19433357.747    19433357.500    19433363.735
       238.000         199.000
 -33569044.61749 -26122894.75547  18411385.844    18411385.844    18411392.653
       237.000         204.000
 00  5 24 16 10 29.9930000  0  9G16G30G 4G 2G 9G10G 7G 5G24
  -9916473.14249  -7705073.64645  22475575.690    22475575.326    22475583.941
       212.000         152.000
  -3229873.14749  -2493170.13345  22315107.100    22315107.448    22315114.992
       214.000         158.000
 -18544003.59649 -14429391.32147  18955556.076    18955556.293    18955561.604
       240.000         207.000
   8099562.29649   6312382.11845  22738177.514    22738176.564    22738186.913
       203.000         144.000
 -14350178.24249 -11164465.97147  19824688.754    19824688.627    19824694.590
       241.000         203.000
   -708953.18559   -525981.70245  22876701.302    22876699.904    22876712.312
       197.000         132.000
   5485790.94449   4276133.89746  21367778.012    21367777.450    21367784.622
       223.000         173.000
 -24015582.88549 -18416613.27447  19414901.281    19414900.980    19414907.183
       238.000         200.000
 -33629417.72049 -26169938.73247  18399897.217    18399897.233    18399904.028
       236.000         204.000
 00  5 24 16 10 59.9930000  0  9G16G30G 4G 2G 9G10G 7G 5G24
  -9927451.29449  -7713628.05645  22473486.862    22473486.281    22473494.938
       214.000         152.000
  -3360443.10349  -2594912.89145  22290260.457    22290260.801    22290268.391
       216.000         161.000
 -18527089.82549 -14416211.78547  18958774.673    18958774.903    18958780.205
       240.000         207.000
   8164090.71549   6362663.76245  22750456.931    22750455.969    22750466.564
       208.000         143.000
 -14323175.39949 -11143424.84947  19829827.258    19829827.132    19829833.098
       240.000         204.000
   -837590.10549   -626218.09345  22852222.276    22852220.663    22852232.282
       200.000         133.000
   5521938.77749   4304300.97346  21374656.850    21374656.205    21374663.352
       224.000         173.000
 -24112319.24749 -18491992.24647  19396493.040    19396492.679    19396498.885
       238.000         200.000
 -33689267.66249 -26216575.05047  18388508.219    18388508.189    18388514.956
       236.000         204.000
 00  5 24 16 11 29.9930000  0  9G16G30G 4G 2G 9G10G 7G 5G24
  -9937854.45649  -7721734.42145  22471507.223    22471506.581    22471515.197
       211.000         147.000
  -3490959.75749  -2696614.11746  22265423.889    22265424.300    22265431.895
       220.000         163.000
 -18509654.24349 -14402625.64947  18962092.577    18962092.802    18962098.122
       240.000         207.000
   8228830.45049   6413110.20745  22762776.675    22762775.810    22762786.121
       204.000         137.000
 -14295702.18349 -11122017.20347  19835055.252    19835055.132    19835061.141
       240.000         203.000
   -966300.00449   -726511.45045  22827729.856    22827728.261    22827739.428
       202.000         132.000
   5558162.66849   4332527.32046  21381550.211    21381549.494    21381556.629
       224.000         173.000
 -24208760.57049 -18567141.32547  19378140.905    19378140.521    19378146.738
       238.000         200.000
 -33748554.69949 -26262772.74147  18377226.267    18377226.227    18377232.976
       236.000         203.000
 00  5 24 16 11 59.9930000  0  9G16G30G 4G 2G 9G10G 7G 5G24
  -9947690.56649  -7729398.92445  22469635.510    22469634.824    22469643.493
       213.000         154.000
  -3621429.35949  -2798278.72145  22240596.370    22240596.722    22240604.261
       219.000         160.000
 -18491706.92949 -14388640.76347  18965507.841    18965508.057    18965513.414
       239.000         207.000
   8293772.55549   6463714.25745  22775134.908    22775134.013    22775144.255
       213.000         146.000
 -14267768.56549 -11100250.81247  19840370.909    19840370.756    19840376.774
       241.000         203.000
  -1095087.88149   -826865.50845  22803222.315    22803220.939    22803231.935
       195.000         134.000
   5594454.62249   4360806.69346  21388456.395    21388455.650    21388462.761
       222.000         169.000
 -24304912.67649 -18642065.04247  19359843.729    19359843.374    19359849.578
       237.000         200.000
 -33807286.33749 -26308537.65447  18366049.981    18366049.984    18366056.711
       236.000         203.000
 00  5 24 16 12 29.9930000  0  9G16G30G 4G 2G 9G10G 7G 5G24
  -9956966.29549  -7736626.83045  22467870.450    22467869.727    22467878.528
       209.000         149.000
  -3751856.90249  -2899910.52445  22215776.709    22215777.136    22215784.608
       219.000         160.000
 -18473256.63249 -14374263.93747  18969018.840    18969019.046    18969024.398
       240.000         207.000
   8358908.93749   6514469.67545  22787530.476    22787529.300    22787539.448
       208.000         142.000
 -14239383.31449 -11078132.48747  19845772.491    19845772.328    19845778.357
       240.000         203.000
  -1223957.88349   -927283.54245  22778698.509    22778697.657    22778708.691
       199.000         134.000
   5630807.56749   4389133.58446  21395374.091    21395373.384    21395380.520
       222.000         169.000
 -24400780.51549 -18716767.24747  19341600.620    19341600.330    19341606.518
       237.000         200.000
 -33865468.96049 -26353874.76247  18354978.221    18354978.207    18354984.929
       236.000         203.000
 00  5 24 16 12 59.9930000  0  9G16G30G 4G 2G 9G10G 7G 5G24
  -9965698.72149  -7743431.31945  22466208.579    22466208.010    22466216.759
       211.000         149.000
  -3882257.41649  -3001521.25346  22190962.238    22190962.713    22190970.184
       221.000         164.000
 -18454322.37949 -14359510.00647  18972621.847    18972622.112    18972627.472
       239.000         206.000
   8424221.78849   6565362.60545  22799959.415    22799958.155    22799968.285
       201.000         138.000
 -14210565.86949 -11055677.40247  19851256.292    19851256.124    19851262.199
       240.000         203.000
  -1352923.75849  -1027776.36645  22754157.264    22754156.351    22754167.292
       205.000         136.000
   5667204.61249   4417494.86946  21402300.265    21402299.569    21402306.634
       223.000         171.000
 -24496378.62449 -18791259.26947  19323408.845    19323408.594    19323414.813
       237.000         200.000
 -33923119.27949 -26398797.08447  18344007.791    18344007.731    18344014.438
       236.000         203.000
 00  5 24 16 13 29.9930000  0  9G16G30G 4G 2G 9G10G 7G 5G24
  -9973861.99649  -7749792.31945  22464655.034    22464654.616    22464663.355
       212.000         154.000
  -4012602.90949  -3103089.14645  22166158.228    22166158.707    22166166.155
       216.000         159.000
 -18434880.15549 -14344360.25047  18976321.593    18976321.848    18976327.196
       239.000         206.000
   8489735.83549   6616412.27645  22812426.358    22812425.190    22812435.325
       196.000         135.000
 -14181292.52649 -11032867.06147  19856826.858    19856826.699    19856832.781
       240.000         203.000
  -1481956.54649  -1128321.33445  22729603.123    22729602.404    22729613.158
       203.000         137.000
   5703671.76349   4445910.74146  21409239.705    21409239.078    21409246.216
       222.000         172.000
 -24591678.65949 -18865519.03047  19305273.810    19305273.560    19305279.827
       237.000         200.000
 -33980210.83949 -26443284.01347  18333143.587    18333143.567    18333150.267
       235.000         203.000
 00  5 24 16 13 59.9930000  0  9G16G30G 4G 2G 9G10G 7G 5G24
  -9981485.76249  -7755732.97545  22463204.169    22463203.844    22463212.702
       212.000         156.000
  -4142921.67749  -3204636.19145  22141359.037    22141359.729    22141367.177
       216.000         159.000
 -18414961.78149 -14328839.46847  18980111.920    18980112.194    18980117.584
       240.000         207.000
   8555420.30049   6667594.69044  22824925.859    22824924.601    22824935.098
       200.000         126.000
 -14151594.95449 -11009726.15647  19862478.140    19862477.987    19862484.089
       240.000         202.000
  -1611083.18349  -1228939.34545  22705031.013    22705030.327    22705041.227
       200.000         139.000
   5740179.41249   4474358.18946  21416186.850    21416186.285    21416193.520
       221.000         170.000
 -24686708.15149 -18939567.97547  19287190.307    19287190.068    19287196.311
       239.000         200.000
 -34036772.92649 -26487358.36347  18322380.165    18322380.157    18322386.859
       235.000         203.000
 00  5 24 16 14 29.9930000  0  9G16G30G 4G 2G 9G10G 7G 5G24
  -9988544.87149  -7761233.59545  22461860.865    22461860.626    22461869.413
       214.000         156.000
  -4273186.09649  -3306140.86946  22116570.464    22116571.149    22116578.715
       219.000         165.000
 -18394543.88049 -14312929.45247  18983997.322    18983997.603    18984003.030
       239.000         206.000
   8621299.21349   6718928.75844  22837462.102    22837461.019    22837471.550
       197.000         129.000
 -14121449.76149 -10986236.45747  19868214.592    19868214.444    19868220.559
       239.000         202.000
  -1740275.14449  -1329608.31345  22680446.618    22680445.889    22680456.773
       204.000         141.000
   5776752.92549   4502856.95546  21423146.554    21423145.993    21423153.382
       222.000         171.000
 -24781439.37849 -19013384.51347  19269163.621    19269163.320    19269169.535
       238.000         200.000
 -34092779.89449 -26531000.16247  18311722.378    18311722.374    18311729.081
       236.000         203.000
 00  5 24 16 14 59.9930000  0  9G16G30G 4G 2G 9G10G 7G 5G24
  -9995043.67249  -7766297.61645  22460624.170    22460623.902    22460632.773
       213.000         156.000
  -4403398.35049  -3407604.88745  22091791.915    22091792.572    22091800.224
       217.000         158.000
 -18373632.58649 -14296634.96647  18987976.633    18987976.911    18987982.348
       240.000         206.000
   8687367.53449   6770410.41244  22850034.498    22850033.665    22850044.151
       201.000         128.000
 -14090863.24449 -10962402.87047  19874035.087    19874034.906    19874041.018
       240.000         202.000
  -1869533.64149  -1430329.13645  22655849.629    22655848.783    22655859.532
       206.000         144.000
   5813388.13849   4531403.80746  21430118.049    21430117.491    21430124.987
       220.000         171.000
 -24875874.07449 -19086969.98047  19251193.303    19251192.990    19251199.191
       238.000         200.000
 -34148235.44749 -26574212.27847  18301169.580    18301169.547    18301176.244
       236.000         203.000
 00  5 24 16 15 29.9930000  0  9G16G30G 4G 2G 9G10G 7G 5G24
 -10000970.23349  -7770915.75345  22459496.431    22459496.210    22459505.072
       214.000         154.000
  -4533544.69049  -3509017.60645  22067025.977    22067026.540    22067034.147
       214.000         150.000
 -18352218.04249 -14279948.33947  18992051.696    18992051.972    18992057.420
       239.000         206.000
   8753635.85649   6822047.85745  22862644.866    22862644.189    22862654.839
       199.000         133.000
 -14059825.72549 -10938217.85847  19879941.397    19879941.195    19879947.286
       240.000         201.000
  -1998843.87449  -1531090.26845  22631242.295    22631241.825    22631252.604
       203.000         145.000
   5850097.18449   4560008.18246  21437103.665    21437103.030    21437110.580
       221.000         171.000
 -24969998.19849 -19160313.44947  19233282.154    19233281.786    19233287.941
       238.000         201.000
 -34203127.49749 -26616985.30247  18290723.974    18290723.946    18290730.631
       235.000         203.000
 00  5 24 16 15 59.9930000  0  9G16G30G 4G 2G 9G10G 7G 5G24
 -10006329.23149  -7775091.60145  22458476.557    22458476.461    22458485.280
       208.000         150.000
  -4663627.77149  -3610380.94245  22042271.719    22042272.427    22042280.252
       214.000         157.000
 -18330306.93149 -14262874.77447  18996221.252    18996221.529    18996227.022
       240.000         207.000
   8820098.49949   6873836.66245  22875292.653    22875291.813    22875302.592
       200.000         140.000
 -14028344.03749 -10913686.73047  19885932.224    19885932.011    19885938.078
       240.000         202.000
  -2128207.01849  -1631892.63345  22606625.029    22606624.756    22606635.488
       210.000         142.000
   5886875.28849   4588666.36746  21444102.354    21444101.708    21444109.267
       221.000         170.000
 -25063814.10449 -19233416.74547  19215429.591    19215429.214    19215435.381
       238.000         200.000
 -34257460.35149 -26659322.59247  18280384.789    18280384.771    18280391.426
       237.000         203.000
 00  5 24 16 16 29.9930000  0  8G16G30G 4G 9G10G 7G 5G24
 -10011125.41849  -7778828.89545  22457563.678    22457563.663    22457572.585
       207.000         147.000
  -4793649.87549  -3711696.79245  22017529.104    22017529.953    22017537.810
       216.000         155.000
 -18307905.78649 -14245419.36947  19000484.004    19000484.332    19000489.865
       239.000         206.000
 -13996424.95849 -10888814.79647  19892006.255    19892006.055    19892012.121
       240.000         202.000
  -2257624.78549  -1732737.57545  22581997.845    22581997.459    22582008.131
       205.000         143.000
   5923718.23749   4617375.09046  21451113.385    21451112.732    21451120.286
       222.000         171.000
 -25157323.92749 -19306281.53647  19197635.252    19197634.881    19197641.055
       238.000         201.000
 -34311237.83449 -26701227.12147  18270151.308    18270151.278    18270157.910
       237.000         203.000
 00  5 24 16 16 59.9930000  0  8G16G30G 4G 9G10G 7G 5G24
 -10015376.18849  -7782141.24345  22456754.701    22456754.714    22456763.695
       206.000         145.000
  -4923626.44449  -3812977.23345  21992795.426    21992796.170    21992803.901
       220.000         153.000
 -18285033.92349 -14227597.16947  19004836.429    19004836.726    19004842.274
       240.000         206.000
 -13964088.06349 -10863617.29547  19898159.841    19898159.632    19898165.679
       240.000         202.000
  -2387111.16049  -1833636.00145  22557357.512    22557356.965    22557367.623
       204.000         142.000
   5960608.69549   4646120.82146  21458133.505    21458132.831    21458140.428
       221.000         170.000
 -25250542.79849 -19378919.61347  19179896.178    19179895.892    19179902.087
       238.000         200.000
 -34364477.27249 -26742712.40447  18260020.207    18260020.171    18260026.789
       237.000         203.000
 00  5 24 16 17 29.9930000  0  8G16G30G 4G 9G10G 7G 5G24
 -10019077.08749  -7785025.09945  22456050.426    22456050.514    22456059.304
       209.000         147.000
  -5053550.94249  -3914217.13145  21968071.511    21968072.336    21968079.959
       217.000         159.000
 -18261688.67949 -14209406.10047  19009278.916    19009279.180    19009284.760
       239.000         206.000
 -13931331.00649 -10838092.40247  19904393.401    19904393.157    19904399.207
       240.000         202.000
  -2516658.19349  -1934581.65745  22532705.431    22532704.908    22532715.745
       205.000         139.000
   5997551.51349   4674907.36846  21465163.549    21465162.861    21465170.481
       221.000         171.000
 -25343463.79149 -19451325.58047  19162213.907    19162213.599    19162219.776
       238.000         201.000
 -34417173.65649 -26783774.52047  18249992.421    18249992.373    18249999.008
       237.000         203.000
 00  5 24 16 17 59.9930000  0  8G16G30G 4G 9G10G 7G 5G24
 -10022215.63149  -7787470.75345  22455453.494    22455453.318    22455462.065
       213.000         154.000
  -5183408.43449  -4015404.67545  21943360.265    21943361.192    21943368.946
       217.000         162.000
 -18237859.40149 -14190837.86447  19013813.518    19013813.767    19013819.340
       240.000         206.000
 -13898142.88249 -10812231.61547  19910708.970    19910708.729    19910714.730
       240.000         202.000
  -2646250.28149  -2035562.46045  22508044.535    22508044.269    22508055.039
       202.000         135.000
   6034559.67649   4703744.81146  21472206.064    21472205.312    21472212.971
       221.000         170.000
 -25436071.58849 -19523487.49847  19144591.227    19144590.919    19144597.101
       237.000         201.000
 -34469313.89649 -26824403.28247  18240070.464    18240070.414    18240077.084
       236.000         203.000
 00  5 24 16 18 29.9930000  0  8G16G30G 4G 9G10G 7G 5G24
 -10024808.54149  -7789491.24645  22454960.212    22454959.979    22454968.694
       212.000         156.000
  -5313213.59749  -4116551.47646  21918659.287    21918660.058    21918667.697
       224.000         165.000
 -18213564.57849 -14171906.86447  19018436.682    19018436.933    19018442.514
       239.000         206.000
 -13864542.62549 -10786049.68647  19917102.907    19917102.678    19917108.725
       239.000         201.000
  -2775900.95349  -2136588.89545  22483372.976    22483372.644    22483383.029
       200.000         133.000
   6071616.67449   4732620.31246  21479257.716    21479257.047    21479264.740
       219.000         170.000
 -25528380.38449 -19595416.42147  19127025.389    19127025.103    19127031.345
       238.000         201.000
 -34520914.36349 -26864611.44747  18230251.190    18230251.172    18230257.858
       237.000         203.000
 00  5 24 16 18 59.9930000  0  8G16G30G 4G 9G10G 7G 5G24
 -10026845.17549  -7791078.27245  22454572.643    22454572.378    22454581.256
       209.000         155.000
  -5442953.23149  -4217647.29246  21893970.948    21893971.468    21893979.002
       223.000         167.000
 -18188795.39249 -14152606.23347  19023150.135    19023150.370    19023155.976
       240.000         206.000
 -13830521.47549 -10759539.77047  19923576.973    19923576.747    19923582.838
       240.000         202.000
  -2905596.14749  -2237650.01645  22458692.636    22458692.431    22458702.860
       198.000         137.000
   6108733.57549   4761542.48646  21486320.962    21486320.244    21486327.987
       219.000         169.000
 -25620377.00249 -19667102.09147  19109519.049    19109518.729    19109524.997
       238.000         201.000
 -34571963.97349 -26904390.36747  18220536.806    18220536.770    18220543.428
       237.000         203.000
 00  5 24 16 19 29.9930000  0  8G16G30G 4G 9G10G 7G 5G24
 -10028345.76149  -7792247.57545  22454287.229    22454286.825    22454295.845
       209.000         153.000
  -5572645.17849  -4318705.90546  21869291.424    21869291.868    21869299.457
       218.000         166.000
 -18163574.08349 -14132953.29347  19027949.630    19027949.861    19027955.453
       240.000         206.000
 -13796101.57749 -10732719.13847  19930126.977    19930126.720    19930132.794
       240.000         201.000
  -3035352.24949  -2338758.56845  22434000.910    22434000.524    22434011.223
       204.000         143.000
   6145890.65749   4790495.97446  21493391.669    21493390.993    21493398.755
       218.000         167.000
 -25712079.08149 -19738558.25247  19092068.763    19092068.425    19092074.662
       239.000         202.000
 -34622482.26049 -26943755.26647  18210923.505    18210923.477    18210930.101
       236.000         202.000
 00  5 24 16 19 59.9930000  0  8G16G30G 4G 9G10G 7G 5G24
 -10029297.37049  -7792989.12145  22454106.365    22454105.824    22454114.830
       208.000         151.000
  -5702273.92849  -4419715.26346  21844623.683    21844624.225    21844631.918
       220.000         164.000
 -18137889.26249 -14112939.17547  19032837.308    19032837.524    19032843.155
       239.000         206.000
 -13761272.00049 -10705579.28347  19936754.942    19936754.638    19936760.705
       240.000         201.000
  -3165153.20549  -2439902.11045  22409300.550    22409300.232    22409310.871
       208.000         146.000
   6183101.20649   4819491.12946  21500472.561    21500471.915    21500479.733
       220.000         168.000
 -25803471.08249 -19809772.79547  19074677.436    19074677.092    19074683.341
       238.000         202.000
 -34672455.95649 -26982695.81347  18201413.823    18201413.801    18201420.423
       236.000         202.000
 00  5 24 16 20 29.9930000  0  8G16G30G 4G 9G10G 7G 5G24
 -10029707.17949  -7793308.52445  22454028.146    22454027.719    22454036.931
       199.000         144.000
  -5831844.39449  -4520679.20246  21819967.200    21819967.724    21819975.468
       218.000         163.000
 -18111749.71749 -14092570.72847  19037811.507    19037811.740    19037817.384
       239.000         206.000
 -13726041.78649 -10678127.24747  19943459.099    19943458.800    19943464.847
       240.000         201.000
  -3295002.78649  -2541083.50745  22384591.325    22384590.676    22384601.294
       209.000         148.000
   6220358.50549   4848522.71746  21507562.533    21507561.845    21507569.741
       219.000         170.000
 -25894557.47449 -19880749.20147  19057344.238    19057343.922    19057350.191
       238.000         201.000
 -34721891.75949 -27021217.22347  18192006.500    18192006.479    18192013.108
       236.000         202.000
 00  5 24 16 20 59.9930000  0  8G16G30G 4G 9G10G 7G 5G24
 -10029565.15949  -7793197.93245  22454054.924    22454054.664    22454064.005
       207.000         149.000
  -5961344.40049  -4621588.22645  21795324.281    21795324.725    21795332.418
       217.000         162.000
 -18085147.75349 -14071841.95547  19042873.759    19042873.958    19042879.604
       239.000         206.000
 -13690403.06749 -10650356.89147  19950240.967    19950240.684    19950246.723
       239.000         201.000
  -3424887.45449  -2642292.29045  22359875.131    22359874.454    22359885.047
       211.000         148.000
   6257672.94949   4877598.84046  21514663.290    21514662.625    21514670.649
       218.000         170.000
 -25985325.70549 -19951477.69747  19040071.650    19040071.315    19040077.551
       238.000         202.000
 -34770779.36549 -27059311.47047  18182703.481    18182703.475    18182710.091
       236.000         202.000
 00  5 24 16 21 29.9930000  0  8G16G30G 4G 9G10G 7G 5G24
 -10028877.28349  -7792661.97345  22454185.854    22454185.577    22454194.978
       205.000         149.000
  -6090777.53649  -4722445.14645  21770693.867    21770694.311    21770702.040
       220.000         161.000
 -18058090.76549 -14050758.61747  19048022.538    19048022.740    19048028.424
       239.000         206.000
 -13654363.53049 -10622274.21047  19957099.134    19957098.842    19957104.891
       240.000         200.000
  -3554809.49749  -2743530.17945  22335152.112    22335151.201    22335161.702
       213.000         152.000
   6295039.25649   4906715.37446  21521773.926    21521773.256    21521781.303
       219.000         169.000
 -26075778.88949 -20021960.68747  19022858.976    19022858.625    19022864.918
       239.000         203.000
 -34819123.99749 -27096982.61947  18173503.803    18173503.781    18173510.431
       235.000         202.000
 00  5 24 16 21 59.9930000  0  8G16G30G 4G 9G10G 7G 5G24
 -10027653.09449  -7791708.10945  22454418.722    22454418.513    22454427.902
       206.000         148.000
  -6220150.48949  -4823255.16945  21746075.113    21746075.487    21746083.181
       218.000         159.000
 -18030590.19849 -14029329.63547  19053255.751    19053255.947    19053261.654
       239.000         206.000
 -13617934.64949 -10593888.15247  19964031.422    19964031.114    19964037.134
       240.000         200.000
  -3684774.71649  -2844801.71445  22310420.739    22310419.767    22310430.128
       207.000         151.000
   6332448.50249   4935865.35546  21528892.580    21528891.993    21528900.088
       219.000         169.000
 -26165923.73849 -20092203.42247  19005704.984    19005704.649    19005710.941
       239.000         203.000
 -34866934.81749 -27134237.81147  18164405.697    18164405.692    18164412.341
       235.000         201.000
 00  5 24 16 22 29.9930000  0  8G16G30G 4G 9G10G 7G 5G24
 -10025900.15749  -7790342.28945  22454752.504    22454752.194    22454761.519
       208.000         154.000
  -6349468.32449  -4924022.29545  21721466.651    21721467.042    21721474.678
       222.000         160.000
 -18002654.95749 -14007561.94847  19058571.690    19058571.873    19058577.574
       240.000         206.000
 -13581125.78349 -10565205.99147  19971036.008    19971035.692    19971041.683
       239.000         199.000
  -3814787.25049  -2946110.07945  22285679.932    22285679.149    22285689.587
       206.000         149.000
   6369893.62949   4965043.30846  21536018.193    21536017.631    21536025.748
       220.000         171.000
 -26255765.28549 -20162209.81147  18988608.745    18988608.376    18988614.681
       239.000         203.000
 -34914218.78949 -27171082.47247  18155407.898    18155407.851    18155414.507
       235.000         202.000
 00  5 24 16 22 59.9930000  0  8G16G30G 4G 9G10G 7G 5G24
 -10023610.97349  -7788558.53245  22455188.084    22455187.843    22455197.254
       206.000         151.000
  -6478721.01149  -5024738.64345  21696870.536    21696871.080    21696878.577
       222.000         158.000
 -17974279.30949 -13985451.08747  19063971.453    19063971.617    19063977.303
       240.000         206.000
 -13543931.33249 -10536223.37447  19978113.941    19978113.614    19978119.584
       239.000         199.000
  -3944835.89949  -3047446.58945  22260932.285    22260931.530    22260942.112
       208.000         148.000
   6407382.83249   4994255.58246  21543152.228    21543151.668    21543159.812
       219.000         170.000
 -26345293.16049 -20231971.78847  18971572.190    18971571.788    18971578.079
       239.000         203.000
 -34960967.96049 -27207510.40847  18146511.815    18146511.789    18146518.446
       236.000         202.000
 00  5 24 16 23 29.9930000  0  8G16G30G 4G 9G10G 7G 5G24
 -10020799.25349  -7786367.63045  22455723.020    22455722.858    22455732.347
       206.000         150.000
  -6607919.77549  -5125412.99245  21672284.717    21672285.297    21672292.738
       225.000         156.000
 -17945478.89149 -13963009.23647  19069452.000    19069452.177    19069457.856
       240.000         206.000
 -13506366.94549 -10506952.49747  19985262.219    19985261.911    19985267.883
       239.000         199.000
  -4074930.89349  -3148819.27745  22236175.929    22236175.280    22236185.753
       206.000         146.000
   6444903.08149   5023492.06546  21550292.156    21550291.569    21550299.805
       218.000         171.000
 -26434518.09349 -20301497.71147  18954593.249    18954592.852    18954599.106
       238.000         203.000
 -35007195.43049 -27243531.81947  18137715.070    18137715.010    18137721.668
       236.000         202.000
 00  5 24 16 23 59.9930000  0  8G16G30G 4G 9G10G 7G 5G24
 -10017449.91449  -7783757.80545  22456360.238    22456360.187    22456369.710
       206.000         149.000
  -6737046.80549  -5226031.43946  21647712.956    21647713.287    21647720.664
       225.000         167.000
 -17916240.35049 -13940225.98647  19075016.001    19075016.120    19075021.775
       240.000         206.000
 -13468419.47349 -10477383.10447  19992483.464    19992483.136    19992489.095
       239.000         199.000
  -4205053.65249  -3250213.52345  22211414.229    22211413.632    22211424.075
       207.000         147.000
   6482469.97349   5052764.88046  21557440.960    21557440.380    21557448.682
       220.000         173.000
 -26523422.51449 -20370773.88047  18937675.256    18937674.902    18937681.145
       238.000         203.000
 -35052885.93149 -27279134.81047  18129020.452    18129020.397    18129027.068
       236.000         202.000
 00  5 24 16 24 29.9930000  0  8G16G30G 4G 9G10G 7G 5G24
 -10013572.70949  -7780736.65945  22457098.020    22457097.933    22457107.445
       203.000         145.000
  -6866109.31049  -5326599.55146  21623153.155    21623153.411    21623160.944
       221.000         164.000
 -17886574.92049 -13917110.10247  19080661.239    19080661.308    19080666.950
       240.000         206.000
 -13430100.38749 -10447524.14647  19999775.390    19999775.059    19999781.033
       239.000         199.000
  -4335209.73349  -3351633.74645  22186646.305    22186645.730    22186656.222
       204.000         147.000
   6520074.42349   5082066.96146  21564597.074    21564596.403    21564604.683
       219.000         170.000
 -26612013.27949 -20439805.64147  18920816.963    18920816.616    18920822.877
       238.000         203.000
 -35098048.57349 -27314326.48847  18120426.333    18120426.253    18120432.938
       235.000         202.000
 00  5 24 16 24 59.9930000  0  8G16G30G 4G 9G10G 7G 5G24
 -10009160.61449  -7777298.70845  22457937.613    22457937.548    22457946.997
       205.000         146.000
  -6995097.30949  -5427109.63946  21598607.445    21598607.768    21598615.276
       222.000         166.000
 -17856477.11549 -13893657.30647  19086388.680    19086388.760    19086394.404
       240.000         206.000
 -13391404.60349 -10417371.65847  20007138.921    20007138.655    20007144.660
       238.000         199.000
  -4465388.42449  -3453071.57645  22161873.731    22161873.234    22161884.052
       204.000         146.000
   6557724.13849   5111404.31546  21571761.610    21571760.927    21571769.224
       218.000         169.000
 -26700280.55549 -20508585.32947  18904020.208    18904019.877    18904026.212
       238.000         203.000
 -35142675.92749 -27349101.05747  18111934.042    18111933.959    18111940.660
       235.000         202.000
 00  5 24 16 25 29.9930000  0  8G16G30G 4G 9G10G 7G 5G24
 -10004229.19149  -7773456.12045  22458876.262    22458876.016    22458885.446
       206.000         147.000
  -7124023.64849  -5527571.67346  21574073.619    21574073.901    21574081.422
       221.000         170.000
 -17825964.28449 -13869881.10747  19092195.066    19092195.182    19092200.827
       240.000         206.000
 -13352349.36449 -10386939.06547  20014570.950    20014570.660    20014576.718
       238.000         198.000
  -4595601.37249  -3554536.10445  22137094.744    22137094.410    22137105.233
       205.000         143.000
   6595404.57949   5140765.59446  21578932.148    21578931.345    21578939.693
       219.000         168.000
 -26788236.78949 -20577122.64747  18887282.689    18887282.368    18887288.694
       238.000         203.000
 -35186782.84349 -27383470.08547  18103540.800    18103540.709    18103547.427
       235.000         202.000
 00  5 24 16 25 59.9930000  0  8G16G30G 4G 9G10G 7G 5G24
  -9998765.46649  -7769198.69845  22459916.217    22459915.806    22459925.263
       207.000         149.000
  -7252872.80049  -5627973.55746  21549554.446    21549554.708    21549562.231
       220.000         168.000
 -17795025.08449 -13845772.67147  19098082.585    19098082.753    19098088.414
       239.000         205.000
 -13312923.49549 -10356217.66347  20022073.440    20022073.190    20022079.263
       238.000         197.000
  -4725831.75449  -3656014.26345  22112312.585    22112312.358    22112322.950
       208.000         144.000
   6633129.42449   5170161.51746  21586110.985    21586110.201    21586118.543
       217.000         166.000
 -26875866.31049 -20645405.38647  18870607.308    18870607.007    18870613.353
       238.000         203.000
 -35230355.96449 -27417423.17247  18095249.102    18095249.018    18095255.747
       235.000         202.000
 00  5 24 16 26 29.9920000  0  8G16G30G 4G 9G10G 7G 5G24
  -9992760.90549  -7764519.84345  22461058.883    22461058.454    22461067.973
       204.000         146.000
  -7381628.85949  -5728302.88946  21525052.886    21525053.197    21525060.716
       219.000         169.000
 -17763653.47049 -13821327.29447  19104052.422    19104052.589    19104058.257
       240.000         205.000
 -13273121.52449 -10325203.20347  20029647.501    20029647.283    20029653.404
       238.000         197.000
  -4856062.86749  -3757492.94145  22087530.343    22087530.047    22087540.676
       208.000         148.000
   6670906.92449   5199598.46346  21593299.828    21593299.095    21593307.429
       217.000         167.000
 -26963154.33749 -20713422.03647  18853996.934    18853996.645    18854002.988
       238.000         203.000
 -35273384.59649 -27450951.98747  18087061.032    18087060.938    18087067.680
       235.000         201.000
 00  5 24 16 26 59.9920000  0  8G16G30G 4G 9G10G 7G 5G24
  -9986216.46749  -7759420.37345  22462304.219    22462303.759    22462313.444
       209.000         151.000
  -7510298.70249  -5828565.04146  21500567.623    21500568.081    21500575.652
       222.000         172.000
 -17731850.14149 -13796545.51647  19110104.350    19110104.580    19110110.234
       240.000         205.000
 -13232943.79249 -10293895.95547  20037293.076    20037292.881    20037299.046
       237.000         198.000
  -4986301.13249  -3858977.20045  22062746.945    22062746.470    22062757.092
       212.000         150.000
   6708738.97349   5229077.88946  21600499.072    21600498.365    21600506.679
       217.000         165.000
 -27050105.23449 -20781175.97847  18837450.737    18837450.421    18837456.802
       238.000         203.000
 -35315872.61349 -27484059.53647  18078975.807    18078975.742    18078982.487
       234.000         201.000
 00  5 24 16 27 29.9920000  0  8G16G30G 4G 9G10G 7G 5G24
  -9979142.36849  -7753908.14945  22463650.380    22463649.909    22463659.608
       205.000         151.000
  -7638885.20849  -5928762.25646  21476098.364    21476098.876    21476106.516
       222.000         172.000
 -17699627.56449 -13771437.04947  19116236.145    19116236.345    19116242.009
       241.000         205.000
 -13192403.19749 -10262305.95247  20045007.755    20045007.544    20045013.736
       237.000         197.000
  -5116547.79649  -3960468.04445  22037961.882    22037961.330    22037971.851
       210.000         151.000
   6746615.48149   5258591.96346  21607706.838    21607706.081    21607714.395
       217.000         165.000
 -27136722.84649 -20848670.21647  18820967.945    18820967.643    18820973.992
       238.000         203.000
 -35357827.74349 -27516751.85147  18070992.004    18070991.944    18070998.714
       234.000         201.000
 00  5 24 16 27 59.9920000  0  8G16G30G 4G 9G10G 7G 5G24
  -9971544.92849  -7747988.12545  22465096.258    22465095.773    22465105.457
       207.000         152.000
  -7767392.37049  -6028897.66946  21451644.317    21451644.766    21451652.465
       224.000         171.000
 -17666993.82649 -13746008.19347  19122446.159    19122446.373    19122452.027
       240.000         205.000
 -13151508.19949 -10230439.77647  20052789.752    20052789.617    20052795.879
       236.000         196.000
  -5246805.46449  -4061967.41345  22013174.558    22013174.054    22013184.546
       211.000         151.000
   6784530.61749   5288136.14346  21614921.971    21614921.169    21614929.453
       218.000         165.000
 -27223010.71249 -20915907.51347  18804547.933    18804547.601    18804553.912
       239.000         203.000
 -35399256.02749 -27549033.63247  18063108.479    18063108.408    18063115.169
       234.000         200.000
 00  5 24 16 28 29.9920000  0  8G16G30G 4G 9G10G 7G 5G24
  -9963409.50749  -7741648.91045  22466644.300    22466643.918    22466653.596
       203.000         150.000
  -7895802.16149  -6128957.19146  21427208.647    21427209.147    21427216.865
       223.000         173.000
 -17633935.91849 -13720248.81647  19128736.907    19128737.112    19128742.735
       240.000         205.000
 -13110245.61649 -10198287.16947  20060641.809    20060641.641    20060647.983
       237.000         196.000
  -5377055.59449  -4163460.94945  21988388.839    21988388.306    21988398.683
       211.000         153.000
   6822500.08749   5317722.66946  21622147.412    21622146.574    21622154.893
       218.000         167.000
 -27308951.27949 -20982874.18047  18788193.965    18788193.649    18788199.983
       238.000         203.000
 -35440142.33649 -27580893.10147  18055328.066    18055328.008    18055334.771
       234.000         201.000
 00  5 24 16 28 59.9920000  0  8G16G30G 4G 9G10G 7G 5G24
  -9954754.08449  -7734904.48845  22468291.294    22468290.999    22468300.745
       207.000         154.000
  -8024129.68249  -6228952.64446  21402788.713    21402789.215    21402796.955
       225.000         174.000
 -17600473.08849 -13694173.91747  19135104.748    19135104.917    19135110.533
       241.000         205.000
 -13068635.07249 -10165863.42847  20068560.097    20068559.908    20068566.287
       236.000         194.000
  -5507312.28449  -4264959.57245  21963601.860    21963601.298    21963611.499
       212.000         153.000
   6860506.96949   5347338.32046  21629379.843    21629379.070    21629387.514
       218.000         168.000
 -27394559.27949 -21049581.70747  18771903.296    18771902.981    18771909.305
       238.000         203.000
 -35480503.99749 -27612343.74747  18047647.541    18047647.473    18047654.205
       234.000         200.000
 00  5 24 16 29 29.9920000  0  8G16G30G 4G 9G10G 7G 5G24
  -9945560.48449  -7727740.69945  22470040.964    22470040.626    22470050.350
       213.000         157.000
  -8152353.84249  -6328867.52646  21378388.528    21378388.944    21378396.682
       224.000         171.000
 -17566589.03149 -13667770.79347  19141552.711    19141552.878    19141558.496
       240.000         205.000
 -13026660.55349 -10133156.07647  20076547.536    20076547.390    20076553.824
       236.000         194.000
  -5637553.08449  -4366445.81645  21938818.010    21938817.315    21938827.398
       213.000         155.000
   6898570.07849   5376997.80346  21636622.937    21636622.294    21636630.785
       217.000         169.000
 -27479813.80049 -21116013.79647  18755679.903    18755679.594    18755685.890
       238.000         203.000
 -35520322.67449 -27643371.29947  18040070.316    18040070.248    18040076.938
       233.000         200.000
 00  5 24 16 29 59.9920000  0  8G16G30G 4G 9G10G 7G 5G24
  -9935842.67249  -7720168.41345  22471890.455    22471890.012    22471899.593
       211.000         154.000
  -8280485.53749  -6428710.34646  21354005.910    21354006.250    21354014.070
       225.000         172.000
 -17532298.91749 -13641051.26247  19148077.972    19148078.111    19148083.736
       241.000         205.000
 -12984337.31949 -10100177.00347  20084601.417    20084601.260    20084607.759
       236.000         195.000
  -5767787.94849  -4467927.45045  21914035.193    21914034.474    21914044.477
       210.000         155.000
   6936676.75249   5406691.22146  21643874.454    21643873.810    21643882.369
       219.000         169.000
 -27564725.45549 -21182178.71247  18739521.745    18739521.421    18739527.743
       238.000         203.000
 -35559611.48349 -27673985.96147  18032593.956    18032593.833    18032600.535
       234.000         200.000
 00  5 24 16 30 29.9920000  0  8G16G30G 4G 9G10G 7G 5G24
  -9925582.61549  -7712173.61245  22473843.140    22473842.532    22473851.919
       211.000         151.000
  -8408503.76349  -6528464.79746  21329644.790    21329645.146    21329652.881
       225.000         168.000
 -17497586.37249 -13614002.55947  19154683.578    19154683.719    19154689.354
       241.000         205.000
 -12941649.20549 -10066913.61847  20092724.753    20092724.597    20092731.135
       236.000         195.000
  -5897994.75149  -4569387.19645  21889257.592    21889256.869    21889266.866
       209.000         151.000
   6974845.89949   5436433.34346  21651138.082    21651137.287    21651145.890
       218.000         167.000
 -27649273.31249 -21248060.15547  18723432.844    18723432.514    18723438.819
       239.000         204.000
 -35598352.03349 -27704173.40747  18025221.866    18025221.777    18025228.452
       234.000         200.000
 00  5 24 16 30 59.9920000  0  8G16G30G 4G 9G10G 7G 5G24
  -9914808.03649  -7703777.87245  22475893.331    22475892.901    22475902.196
       208.000         151.000
  -8536432.83949  -6628149.77746  21305300.650    21305301.003    21305308.644
       224.000         167.000
 -17462480.28149 -13586647.20247  19161364.079    19161364.224    19161369.878
       241.000         205.000
 -12898625.32149 -10033388.58947  20100912.028    20100911.838    20100918.366
       237.000         194.000
  -6028196.74749  -4670843.22245  21864480.676    21864480.207    21864490.179
       207.000         151.000
   7013051.02049   5466203.46746  21658408.531    21658407.568    21658416.182
       218.000         165.000
 -27733481.74649 -21313677.11847  18707408.536    18707408.200    18707414.469
       238.000         203.000
 -35636571.27349 -27733954.63947  18017948.974    18017948.904    18017955.583
       234.000         200.000
 00  5 24 16 31 29.9920000  0  8G16G30G 4G 9G10G 7G 5G24
  -9903518.43249  -7694980.86545  22478041.806    22478041.359    22478050.660
       209.000         152.000
  -8664269.35249  -6727762.57846  21280974.114    21280974.515    21280982.137
       226.000         169.000
 -17426981.93149 -13558986.19047  19168119.175    19168119.349    19168125.050
       240.000         205.000
 -12855267.27749  -9999603.17947  20109162.908    20109162.681    20109169.159
       236.000         193.000
  -6158389.85849  -4772292.33145  21839705.529    21839705.171    21839715.257
       209.000         150.000
   7051293.41749   5496002.64046  21665685.814    21665684.939    21665693.504
       217.000         165.000
 -27817347.49749 -21379027.05147  18691449.370    18691449.090    18691455.339
       238.000         204.000
 -35674268.54949 -27763329.15047  18010775.416    18010775.355    18010782.048
       233.000         200.000
 00  5 24 16 31 59.9920000  0  8G16G30G 4G 9G10G 7G 5G24
  -9891717.86449  -7685785.68645  22480287.567    22480287.036    22480296.358
       210.000         151.000
  -8792014.12349  -6827303.90946  21256664.921    21256665.405    21256673.077
       225.000         168.000
 -17391096.32849 -13531023.41347  19174947.963    19174948.170    19174953.903
       241.000         206.000
 -12811580.31849  -9965561.47147  20117476.343    20117476.096    20117482.547
       236.000         194.000
  -6288573.39949  -4873734.00345  21814932.475    21814932.052    21814941.922
       210.000         152.000
   7089570.48049   5525828.84146  21672969.674    21672968.886    21672977.458
       216.000         166.000
 -27900870.85449 -21444110.18047  18675555.396    18675555.100    18675561.410
       238.000         204.000
 -35711446.92449 -27792299.30947  18003700.626    18003700.552    18003707.224
       234.000         200.000
 00  5 24 16 32 29.9920000  0  8G16G30G 4G 9G10G 7G 5G24
  -9879402.20749  -7676189.11845  22482631.245    22482630.658    22482639.998
       211.000         150.000
  -8919660.05249  -6926768.24946  21232374.708    21232375.176    21232382.786
       227.000         170.000
 -17354821.13849 -13502757.07047  19181850.914    19181851.138    19181856.908
       240.000         206.000
 -12767562.15049  -9931261.68847  20125852.762    20125852.538    20125858.995
       235.000         193.000
  -6418739.39649  -4975161.97645  21790162.654    21790162.237    21790172.143
       211.000         152.000
   7127887.25649   5555685.97746  21680261.195    21680260.367    21680269.023
       218.000         166.000
 -27984044.97849 -21508921.18147  18659727.894    18659727.598    18659733.922
       238.000         204.000
 -35748102.03649 -27820861.74047  17996725.390    17996725.330    17996731.975
       234.000         200.000
 00  5 24 16 32 59.9920000  0  8G16G30G 4G 9G10G 7G 5G24
  -9866543.87849  -7666169.68345  22485078.176    22485077.569    22485086.866
       208.000         146.000
  -9047176.51649  -7026131.67046  21208109.039    21208109.526    21208117.160
       225.000         174.000
 -17318130.21749 -13474166.78147  19188833.028    19188833.231    19188839.011
       241.000         205.000
 -12723186.98649  -9896683.72147  20134297.101    20134296.900    20134303.365
       235.000         192.000
  -6548856.14549  -5076551.58145  21765402.309    21765401.760    21765411.706
       213.000         151.000
   7166272.34149   5585596.33646  21687565.639    21687564.896    21687573.551
       217.000         166.000
 -28066839.04849 -21573436.03847  18643972.734    18643972.425    18643978.767
       239.000         205.000
 -35784206.01049 -27848994.71447  17989855.049    17989854.987    17989861.622
       233.000         200.000
 00  5 24 16 33 29.9920000  0  8G16G30G 4G 9G10G 7G 5G24
  -9853163.14249  -7655743.19145  22487624.386    22487623.804    22487633.288
       208.000         141.000
  -9174580.33749  -7125407.31346  21183864.850    21183865.322    21183873.065
       226.000         174.000
 -17281045.02749 -13445269.26447  19195890.161    19195890.354    19195896.138
       241.000         205.000
 -12678476.36949  -9861844.35547  20142805.335    20142805.094    20142811.542
       236.000         192.000
  -6678939.32549  -5177915.06245  21740648.324    21740647.712    21740657.602
       216.000         153.000
   7204706.91449   5615545.26546  21694879.620    21694878.851    21694887.507
       220.000         168.000
 -28149270.10649 -21637668.02447  18628286.609    18628286.304    18628292.673
       238.000         204.000
 -35819778.30749 -27876713.38847  17983085.949    17983085.834    17983092.439
       233.000         200.000
 00  5 24 16 33 59.9920000  0  8G16G30G 4G 9G10G 7G 5G24
  -9839262.51849  -7644911.55445  22490269.663    22490268.998    22490278.579
       209.000         143.000
  -9301870.38949  -7224594.31746  21159642.316    21159642.794    21159650.536
       224.000         174.000
 -17243569.33049 -13416067.46547  19203021.615    19203021.773    19203027.562
       241.000         205.000
 -12633434.26349  -9826746.68747  20151376.699    20151376.412    20151382.864
       236.000         194.000
  -6808986.99749  -5279250.85445  21715901.135    21715900.448    21715910.228
       217.000         155.000
   7243189.64849   5645531.74146  21702202.604    21702201.926    21702210.652
       217.000         165.000
 -28231337.26749 -21701616.46047  18612669.792    18612669.452    18612675.822
       239.000         205.000
 -35854820.70249 -27904019.15747  17976417.617    17976417.504    17976424.104
       232.000         200.000
 00  5 24 16 34 29.9920000  0  8G16G30G 4G 9G10G 7G 5G24
  -9824871.16049  -7633697.57345  22493008.254    22493007.674    22493017.133
       210.000         145.000
  -9429073.09449  -7323713.26346  21135436.397    21135436.877    21135444.590
       227.000         176.000
 -17205733.76949 -13386585.24547  19210221.595    19210221.707    19210227.485
       240.000         205.000
 -12588091.51149  -9791414.76347  20160005.212    20160004.916    20160011.415
       235.000         194.000
  -6939024.41249  -5380578.66545  21691155.735    21691155.060    21691164.840
       214.000         157.000
   7281692.47549   5675533.85846  21709529.463    21709528.841    21709537.506
       217.000         164.000
 -28313066.81049 -21765301.82547  18597117.197    18597116.839    18597123.217
       238.000         204.000
 -35889362.08149 -27930934.52147  17969844.664    17969844.517    17969851.126
       233.000         200.000
 00  5 24 16 34 59.9920000  0  8G16G30G 4G 9G10G 7G 5G24
  -9809975.27549  -7622090.42645  22495842.886    22495842.378    22495851.724
       213.000         149.000
  -9556171.10449  -7422750.60146  21111250.473    21111250.920    21111258.721
       228.000         181.000
 -17167525.88549 -13356812.90647  19217492.337    19217492.463    19217498.244
       241.000         204.000
 -12542435.95349  -9755839.10747  20168693.187    20168692.920    20168699.491
       233.000         192.000
  -7069033.41149  -5481884.32145  21666415.915    21666415.169    21666424.993
       216.000         158.000
   7320230.38649   5705563.31246  21716863.011    21716862.437    21716871.074
       215.000         163.000
 -28394441.62049 -21828710.76847  18581632.095    18581631.730    18581638.095
       238.000         204.000
 -35923388.27949 -27957448.44547  17963369.718    17963369.563    17963376.170
       233.000         201.000
 00  5 24 16 35 29.9920000  0  8G16G30G 4G 9G10G 7G 5G24
  -9794544.80949  -7610066.71245  22498779.252    22498778.820    22498787.985
       208.000         143.000
  -9683131.22549  -7521680.51146  21087090.780    21087091.215    21087098.986
       230.000         178.000
 -17128916.81049 -13326727.94547  19224839.449    19224839.576    19224845.368
       241.000         205.000
 -12496439.16249  -9719997.55147  20177446.146    20177445.865    20177452.492
       234.000         192.000
  -7198979.46049  -5583140.92545  21641688.028    21641687.241    21641697.061
       215.000         158.000
   7358834.76749   5735644.54845  21724209.196    21724208.582    21724217.309
       217.000         160.000
 -28475428.14949 -21891817.15147  18566220.860    18566220.503    18566226.865
       238.000         204.000
 -35956868.66449 -27983537.05847  17956998.618    17956998.464    17957005.065
       233.000         200.000
 00  5 24 16 35 59.9920000  0  8G16G30G 4G 9G10G 7G 5G24
  -9778589.44349  -7597633.97445  22501815.324    22501814.946    22501824.265
       206.000         144.000
  -9809959.64749  -7620507.82146  21062956.123    21062956.519    21062964.319
       228.000         177.000
 -17089917.65649 -13296339.03147  19232260.733    19232260.897    19232266.708
       240.000         204.000
 -12450112.43249  -9683898.91147  20186261.920    20186261.628    20186268.271
       235.000         194.000
  -7328867.86149  -5684352.61045  21616970.935    21616970.217    21616980.130
       213.000         159.000
   7397497.09949   5765770.96345  21731566.629    21731565.945    21731574.551
       216.000         160.000
 -28556033.05349 -21954626.16547  18550882.265    18550881.895    18550888.236
       238.000         204.000
 -35989812.08949 -28009207.26647  17950729.695    17950729.552    17950736.159
       232.000         201.000
 00  5 24 16 36 29.9920000  0  8G16G30G 4G 9G10G 7G 5G24
  -9762124.20649  -7584804.01545  22504948.662    22504948.236    22504957.695
       208.000         150.000
  -9936667.81149  -7719241.38946  21038844.129    21038844.668    21038852.550
       227.000         175.000
 -17050544.44649 -13265658.64547  19239753.253    19239753.424    19239759.213
       241.000         204.000
 -12403471.88749  -9647555.74647  20195137.497    20195137.138    20195143.783
       234.000         193.000
  -7458708.97149  -5785527.42945  21592262.728    21592262.182    21592272.126
       214.000         157.000
   7436203.96049   5795932.06245  21738932.358    21738931.663    21738940.179
       216.000         159.000
 -28636267.59849 -22017146.59547  18535614.114    18535613.761    18535620.083
       238.000         204.000
 -36022233.25749 -28034470.51547  17944560.132    17944560.016    17944566.630
       232.000         200.000
 00  5 24 16 36 59.9920000  0  8G16G30G 4G 9G10G 7G 5G24
  -9745145.23749  -7571573.70145  22508179.938    22508179.348    22508188.749
       212.000         149.000
 -10063248.83949  -7817875.93846  21014756.594    21014757.097    21014764.931
       226.000         173.000
 -17010794.96849 -13234685.06047  19247317.353    19247317.526    19247323.321
       241.000         204.000
 -12356515.61149  -9610966.55347  20204072.996    20204072.678    20204079.359
       234.000         192.000
  -7588494.94749  -5886659.33045  21567565.211    21567564.675    21567574.573
       212.000         157.000
   7474960.27049   5826131.69646  21746307.556    21746306.832    21746315.418
       215.000         164.000
 -28716124.99749 -22079373.13847  18520417.768    18520417.410    18520423.703
       238.000         204.000
 -36054127.97949 -28059323.55547  17938490.751    17938490.648    17938497.265
       232.000         200.000
 00  5 24 16 37 29.9920000  0  8G16G30G 4G 9G10G 7G 5G24
  -9727649.62849  -7557940.78845  22511509.451    22511508.750    22511518.002
       207.000         147.000
 -10189695.60449  -7916405.83546  20990694.455    20990695.062    20990702.838
       229.000         177.000
 -16970667.07749 -13203416.61347  19254953.475    19254953.650    19254959.438
       241.000         204.000
 -12309241.75949  -9574129.89747  20213068.918    20213068.636    20213075.404
       234.000         193.000
  -7718217.83149  -5987742.02745  21542879.595    21542879.126    21542889.058
       210.000         158.000
   7513770.80049   5856373.55845  21753693.054    21753692.282    21753700.949
       213.000         159.000
 -28795598.35949 -22141300.43547  18505294.504    18505294.136    18505300.389
       238.000         203.000
 -36085492.17749 -28083763.18947  17932522.383    17932522.255    17932528.856
       231.000         200.000
